<?xml version="1.0" encoding="UTF-8" standalone="no" ?>
<gpx xmlns="http://www.topografix.com/GPX/1/1" xmlns:xsi="http://www.w3.org/2001/XMLSchema-instance" xsi:schemaLocation="http://www.topografix.com/GPX/1/1 http://www.topografix.com/GPX/1/1/gpx.xsd" version="1.1" creator="VisuGPX - https://www.visugpx.com">
  <metadata>
    <name>Roc des terrils 2011</name>
    <desc><![CDATA[Trace GPS du parcours de 55 kms organisé le dimanche 26 juin 2011 par \"LES GUEULES NOIRES VTT CLUB WALLERS\"]]></desc>
  </metadata>
  <trk>
    <name><![CDATA[2011-06-26T05:38:13Z]]></name>
    <trkseg>
      <trkpt lat="50.38736" lon="3.42295">
        <ele>-7.81</ele>
        <time>2011-06-26T05:38:13Z</time>
      </trkpt>
      <trkpt lat="50.38736" lon="3.42295">
        <ele>-8.008</ele>
        <time>2011-06-26T05:38:14Z</time>
      </trkpt>
      <trkpt lat="50.38736" lon="3.42294">
        <ele>-8.321</ele>
        <time>2011-06-26T05:38:17Z</time>
      </trkpt>
      <trkpt lat="50.38731" lon="3.42278">
        <ele>-7.178</ele>
        <time>2011-06-26T05:38:21Z</time>
      </trkpt>
      <trkpt lat="50.38729" lon="3.4226">
        <ele>-7.122</ele>
        <time>2011-06-26T05:38:24Z</time>
      </trkpt>
      <trkpt lat="50.38734" lon="3.42213">
        <ele>-6.789</ele>
        <time>2011-06-26T05:38:31Z</time>
      </trkpt>
      <trkpt lat="50.38728" lon="3.42189">
        <ele>-6.044</ele>
        <time>2011-06-26T05:38:36Z</time>
      </trkpt>
      <trkpt lat="50.38723" lon="3.42182">
        <ele>-5.621</ele>
        <time>2011-06-26T05:38:38Z</time>
      </trkpt>
      <trkpt lat="50.38705" lon="3.42176">
        <ele>-5.168</ele>
        <time>2011-06-26T05:38:43Z</time>
      </trkpt>
      <trkpt lat="50.38697" lon="3.4218">
        <ele>-5.398</ele>
        <time>2011-06-26T05:38:45Z</time>
      </trkpt>
      <trkpt lat="50.38675" lon="3.42197">
        <ele>-6.093</ele>
        <time>2011-06-26T05:38:50Z</time>
      </trkpt>
      <trkpt lat="50.38661" lon="3.42225">
        <ele>-6.687</ele>
        <time>2011-06-26T05:38:55Z</time>
      </trkpt>
      <trkpt lat="50.38662" lon="3.42232">
        <ele>-6.639</ele>
        <time>2011-06-26T05:38:56Z</time>
      </trkpt>
      <trkpt lat="50.38673" lon="3.42286">
        <ele>-6.55</ele>
        <time>2011-06-26T05:39:04Z</time>
      </trkpt>
      <trkpt lat="50.38681" lon="3.423">
        <ele>-6.386</ele>
        <time>2011-06-26T05:39:08Z</time>
      </trkpt>
      <trkpt lat="50.38697" lon="3.42304">
        <ele>-6.235</ele>
        <time>2011-06-26T05:39:13Z</time>
      </trkpt>
      <trkpt lat="50.38702" lon="3.42304">
        <ele>-6.201</ele>
        <time>2011-06-26T05:39:15Z</time>
      </trkpt>
      <trkpt lat="50.38711" lon="3.42313">
        <ele>-6.017</ele>
        <time>2011-06-26T05:39:20Z</time>
      </trkpt>
      <trkpt lat="50.38719" lon="3.42325">
        <ele>-5.915</ele>
        <time>2011-06-26T05:39:23Z</time>
      </trkpt>
      <trkpt lat="50.38714" lon="3.42347">
        <ele>-5.955</ele>
        <time>2011-06-26T05:39:28Z</time>
      </trkpt>
      <trkpt lat="50.38699" lon="3.42364">
        <ele>-6.08</ele>
        <time>2011-06-26T05:39:34Z</time>
      </trkpt>
      <trkpt lat="50.38697" lon="3.42382">
        <ele>-6.036</ele>
        <time>2011-06-26T05:39:39Z</time>
      </trkpt>
      <trkpt lat="50.38687" lon="3.4239">
        <ele>-6.083</ele>
        <time>2011-06-26T05:39:44Z</time>
      </trkpt>
      <trkpt lat="50.38681" lon="3.42382">
        <ele>-6.038</ele>
        <time>2011-06-26T05:39:48Z</time>
      </trkpt>
      <trkpt lat="50.38681" lon="3.42375">
        <ele>-6.053</ele>
        <time>2011-06-26T05:39:50Z</time>
      </trkpt>
      <trkpt lat="50.3868" lon="3.42372">
        <ele>-5.886</ele>
        <time>2011-06-26T05:39:52Z</time>
      </trkpt>
      <trkpt lat="50.38673" lon="3.42375">
        <ele>-5.739</ele>
        <time>2011-06-26T05:39:56Z</time>
      </trkpt>
      <trkpt lat="50.38667" lon="3.42399">
        <ele>-5.643</ele>
        <time>2011-06-26T05:40:02Z</time>
      </trkpt>
      <trkpt lat="50.38661" lon="3.4241">
        <ele>-5.371</ele>
        <time>2011-06-26T05:40:06Z</time>
      </trkpt>
      <trkpt lat="50.38656" lon="3.42403">
        <ele>-5.743</ele>
        <time>2011-06-26T05:40:10Z</time>
      </trkpt>
      <trkpt lat="50.38659" lon="3.42393">
        <ele>-5.709</ele>
        <time>2011-06-26T05:40:13Z</time>
      </trkpt>
      <trkpt lat="50.38638" lon="3.42407">
        <ele>-5.382</ele>
        <time>2011-06-26T05:40:26Z</time>
      </trkpt>
      <trkpt lat="50.38632" lon="3.42415">
        <ele>-5.401</ele>
        <time>2011-06-26T05:40:30Z</time>
      </trkpt>
      <trkpt lat="50.38628" lon="3.42407">
        <ele>-5.131</ele>
        <time>2011-06-26T05:40:34Z</time>
      </trkpt>
      <trkpt lat="50.38623" lon="3.42409">
        <ele>-4.969</ele>
        <time>2011-06-26T05:40:37Z</time>
      </trkpt>
      <trkpt lat="50.38618" lon="3.42419">
        <ele>-4.937</ele>
        <time>2011-06-26T05:40:40Z</time>
      </trkpt>
      <trkpt lat="50.38597" lon="3.42437">
        <ele>-4.466</ele>
        <time>2011-06-26T05:40:48Z</time>
      </trkpt>
      <trkpt lat="50.38592" lon="3.42441">
        <ele>-4.497</ele>
        <time>2011-06-26T05:40:50Z</time>
      </trkpt>
      <trkpt lat="50.38577" lon="3.42427">
        <ele>-4.344</ele>
        <time>2011-06-26T05:40:55Z</time>
      </trkpt>
      <trkpt lat="50.38565" lon="3.42406">
        <ele>-4.235</ele>
        <time>2011-06-26T05:41:00Z</time>
      </trkpt>
      <trkpt lat="50.38548" lon="3.42375">
        <ele>-4.234</ele>
        <time>2011-06-26T05:41:07Z</time>
      </trkpt>
      <trkpt lat="50.38533" lon="3.42375">
        <ele>-4.154</ele>
        <time>2011-06-26T05:41:12Z</time>
      </trkpt>
      <trkpt lat="50.38518" lon="3.42387">
        <ele>-4.008</ele>
        <time>2011-06-26T05:41:17Z</time>
      </trkpt>
      <trkpt lat="50.38495" lon="3.42408">
        <ele>-3.703</ele>
        <time>2011-06-26T05:41:25Z</time>
      </trkpt>
      <trkpt lat="50.38478" lon="3.42419">
        <ele>-3.235</ele>
        <time>2011-06-26T05:41:30Z</time>
      </trkpt>
      <trkpt lat="50.38443" lon="3.42446">
        <ele>-2.835</ele>
        <time>2011-06-26T05:41:39Z</time>
      </trkpt>
      <trkpt lat="50.38415" lon="3.42473">
        <ele>-3.109</ele>
        <time>2011-06-26T05:41:46Z</time>
      </trkpt>
      <trkpt lat="50.38385" lon="3.42503">
        <ele>-3.316</ele>
        <time>2011-06-26T05:41:54Z</time>
      </trkpt>
      <trkpt lat="50.38378" lon="3.42509">
        <ele>-3.453</ele>
        <time>2011-06-26T05:41:58Z</time>
      </trkpt>
      <trkpt lat="50.3837" lon="3.42513">
        <ele>-3.436</ele>
        <time>2011-06-26T05:42:01Z</time>
      </trkpt>
      <trkpt lat="50.38351" lon="3.42508">
        <ele>-3.657</ele>
        <time>2011-06-26T05:42:06Z</time>
      </trkpt>
      <trkpt lat="50.38313" lon="3.42501">
        <ele>-3.286</ele>
        <time>2011-06-26T05:42:14Z</time>
      </trkpt>
      <trkpt lat="50.38299" lon="3.425">
        <ele>-3.24</ele>
        <time>2011-06-26T05:42:17Z</time>
      </trkpt>
      <trkpt lat="50.38272" lon="3.42502">
        <ele>-3.349</ele>
        <time>2011-06-26T05:42:23Z</time>
      </trkpt>
      <trkpt lat="50.38271" lon="3.42488">
        <ele>-3.592</ele>
        <time>2011-06-26T05:42:28Z</time>
      </trkpt>
      <trkpt lat="50.38279" lon="3.42476">
        <ele>-3.329</ele>
        <time>2011-06-26T05:42:31Z</time>
      </trkpt>
      <trkpt lat="50.38298" lon="3.42458">
        <ele>-3.251</ele>
        <time>2011-06-26T05:42:38Z</time>
      </trkpt>
      <trkpt lat="50.38315" lon="3.42441">
        <ele>-2.999</ele>
        <time>2011-06-26T05:42:44Z</time>
      </trkpt>
      <trkpt lat="50.38328" lon="3.4243">
        <ele>-2.7</ele>
        <time>2011-06-26T05:42:49Z</time>
      </trkpt>
      <trkpt lat="50.38341" lon="3.42413">
        <ele>-2.557</ele>
        <time>2011-06-26T05:42:54Z</time>
      </trkpt>
      <trkpt lat="50.38356" lon="3.42401">
        <ele>-2.308</ele>
        <time>2011-06-26T05:42:59Z</time>
      </trkpt>
      <trkpt lat="50.38369" lon="3.42408">
        <ele>-2.28</ele>
        <time>2011-06-26T05:43:03Z</time>
      </trkpt>
      <trkpt lat="50.38403" lon="3.42432">
        <ele>-2.065</ele>
        <time>2011-06-26T05:43:12Z</time>
      </trkpt>
      <trkpt lat="50.3842" lon="3.42433">
        <ele>-1.876</ele>
        <time>2011-06-26T05:43:17Z</time>
      </trkpt>
      <trkpt lat="50.38439" lon="3.42416">
        <ele>-1.207</ele>
        <time>2011-06-26T05:43:23Z</time>
      </trkpt>
      <trkpt lat="50.38467" lon="3.42387">
        <ele>-0.862</ele>
        <time>2011-06-26T05:43:32Z</time>
      </trkpt>
      <trkpt lat="50.38469" lon="3.42384">
        <ele>-0.75</ele>
        <time>2011-06-26T05:43:33Z</time>
      </trkpt>
      <trkpt lat="50.38484" lon="3.42388">
        <ele>-0.733</ele>
        <time>2011-06-26T05:43:38Z</time>
      </trkpt>
      <trkpt lat="50.38487" lon="3.42386">
        <ele>-0.884</ele>
        <time>2011-06-26T05:43:39Z</time>
      </trkpt>
      <trkpt lat="50.38517" lon="3.42358">
        <ele>-1.896</ele>
        <time>2011-06-26T05:43:47Z</time>
      </trkpt>
      <trkpt lat="50.38533" lon="3.42341">
        <ele>-1.589</ele>
        <time>2011-06-26T05:43:53Z</time>
      </trkpt>
      <trkpt lat="50.38542" lon="3.42346">
        <ele>-1.244</ele>
        <time>2011-06-26T05:43:57Z</time>
      </trkpt>
      <trkpt lat="50.3855" lon="3.4235">
        <ele>-1.2</ele>
        <time>2011-06-26T05:44:01Z</time>
      </trkpt>
      <trkpt lat="50.38559" lon="3.4234">
        <ele>-1.186</ele>
        <time>2011-06-26T05:44:05Z</time>
      </trkpt>
      <trkpt lat="50.38561" lon="3.42322">
        <ele>-1.005</ele>
        <time>2011-06-26T05:44:09Z</time>
      </trkpt>
      <trkpt lat="50.38558" lon="3.42312">
        <ele>-0.993</ele>
        <time>2011-06-26T05:44:11Z</time>
      </trkpt>
      <trkpt lat="50.38564" lon="3.42297">
        <ele>0.313</ele>
        <time>2011-06-26T05:44:16Z</time>
      </trkpt>
      <trkpt lat="50.38575" lon="3.42296">
        <ele>0.498</ele>
        <time>2011-06-26T05:44:20Z</time>
      </trkpt>
      <trkpt lat="50.38597" lon="3.42314">
        <ele>-0.643</ele>
        <time>2011-06-26T05:44:26Z</time>
      </trkpt>
      <trkpt lat="50.386" lon="3.423">
        <ele>-0.389</ele>
        <time>2011-06-26T05:44:30Z</time>
      </trkpt>
      <trkpt lat="50.38599" lon="3.42296">
        <ele>-0.236</ele>
        <time>2011-06-26T05:44:31Z</time>
      </trkpt>
      <trkpt lat="50.38594" lon="3.42287">
        <ele>-0.184</ele>
        <time>2011-06-26T05:44:33Z</time>
      </trkpt>
      <trkpt lat="50.38589" lon="3.42268">
        <ele>0.311</ele>
        <time>2011-06-26T05:44:37Z</time>
      </trkpt>
      <trkpt lat="50.38594" lon="3.42262">
        <ele>1.038</ele>
        <time>2011-06-26T05:44:40Z</time>
      </trkpt>
      <trkpt lat="50.38601" lon="3.42265">
        <ele>1.526</ele>
        <time>2011-06-26T05:44:43Z</time>
      </trkpt>
      <trkpt lat="50.38605" lon="3.42268">
        <ele>1.191</ele>
        <time>2011-06-26T05:44:44Z</time>
      </trkpt>
      <trkpt lat="50.38619" lon="3.42278">
        <ele>0.064</ele>
        <time>2011-06-26T05:44:48Z</time>
      </trkpt>
      <trkpt lat="50.38626" lon="3.42267">
        <ele>0.135</ele>
        <time>2011-06-26T05:44:53Z</time>
      </trkpt>
      <trkpt lat="50.38619" lon="3.42256">
        <ele>0.183</ele>
        <time>2011-06-26T05:44:56Z</time>
      </trkpt>
      <trkpt lat="50.38614" lon="3.42238">
        <ele>1.005</ele>
        <time>2011-06-26T05:45:00Z</time>
      </trkpt>
      <trkpt lat="50.38619" lon="3.4223">
        <ele>2.282</ele>
        <time>2011-06-26T05:45:04Z</time>
      </trkpt>
      <trkpt lat="50.38627" lon="3.42241">
        <ele>1.789</ele>
        <time>2011-06-26T05:45:08Z</time>
      </trkpt>
      <trkpt lat="50.38639" lon="3.42249">
        <ele>0.435</ele>
        <time>2011-06-26T05:45:12Z</time>
      </trkpt>
      <trkpt lat="50.38644" lon="3.42254">
        <ele>0.502</ele>
        <time>2011-06-26T05:45:14Z</time>
      </trkpt>
      <trkpt lat="50.38649" lon="3.42245">
        <ele>0.712</ele>
        <time>2011-06-26T05:45:18Z</time>
      </trkpt>
      <trkpt lat="50.38642" lon="3.42239">
        <ele>0.786</ele>
        <time>2011-06-26T05:45:21Z</time>
      </trkpt>
      <trkpt lat="50.38639" lon="3.42238">
        <ele>0.727</ele>
        <time>2011-06-26T05:45:22Z</time>
      </trkpt>
      <trkpt lat="50.38629" lon="3.42229">
        <ele>0.83</ele>
        <time>2011-06-26T05:45:25Z</time>
      </trkpt>
      <trkpt lat="50.38633" lon="3.42216">
        <ele>2.523</ele>
        <time>2011-06-26T05:45:30Z</time>
      </trkpt>
      <trkpt lat="50.3864" lon="3.42206">
        <ele>2.934</ele>
        <time>2011-06-26T05:45:34Z</time>
      </trkpt>
      <trkpt lat="50.3864" lon="3.42198">
        <ele>2.948</ele>
        <time>2011-06-26T05:45:39Z</time>
      </trkpt>
      <trkpt lat="50.3864" lon="3.42194">
        <ele>2.896</ele>
        <time>2011-06-26T05:45:44Z</time>
      </trkpt>
      <trkpt lat="50.38641" lon="3.42181">
        <ele>3.189</ele>
        <time>2011-06-26T05:45:48Z</time>
      </trkpt>
      <trkpt lat="50.38641" lon="3.42171">
        <ele>3.238</ele>
        <time>2011-06-26T05:45:50Z</time>
      </trkpt>
      <trkpt lat="50.3865" lon="3.42154">
        <ele>3.396</ele>
        <time>2011-06-26T05:45:55Z</time>
      </trkpt>
      <trkpt lat="50.38659" lon="3.42152">
        <ele>3.489</ele>
        <time>2011-06-26T05:45:58Z</time>
      </trkpt>
      <trkpt lat="50.38667" lon="3.42145">
        <ele>3.569</ele>
        <time>2011-06-26T05:46:03Z</time>
      </trkpt>
      <trkpt lat="50.38665" lon="3.42142">
        <ele>3.666</ele>
        <time>2011-06-26T05:46:04Z</time>
      </trkpt>
      <trkpt lat="50.3866" lon="3.42134">
        <ele>3.823</ele>
        <time>2011-06-26T05:46:06Z</time>
      </trkpt>
      <trkpt lat="50.38661" lon="3.42113">
        <ele>3.754</ele>
        <time>2011-06-26T05:46:10Z</time>
      </trkpt>
      <trkpt lat="50.38668" lon="3.42094">
        <ele>3.687</ele>
        <time>2011-06-26T05:46:14Z</time>
      </trkpt>
      <trkpt lat="50.38666" lon="3.42096">
        <ele>3.572</ele>
        <time>2011-06-26T05:46:17Z</time>
      </trkpt>
      <trkpt lat="50.38663" lon="3.42106">
        <ele>3.735</ele>
        <time>2011-06-26T05:46:21Z</time>
      </trkpt>
      <trkpt lat="50.38656" lon="3.42114">
        <ele>3.974</ele>
        <time>2011-06-26T05:46:26Z</time>
      </trkpt>
      <trkpt lat="50.38654" lon="3.42115">
        <ele>4.092</ele>
        <time>2011-06-26T05:46:27Z</time>
      </trkpt>
      <trkpt lat="50.38648" lon="3.42116">
        <ele>4.48</ele>
        <time>2011-06-26T05:46:29Z</time>
      </trkpt>
      <trkpt lat="50.38638" lon="3.42106">
        <ele>5.56</ele>
        <time>2011-06-26T05:46:34Z</time>
      </trkpt>
      <trkpt lat="50.38622" lon="3.42093">
        <ele>4.017</ele>
        <time>2011-06-26T05:46:38Z</time>
      </trkpt>
      <trkpt lat="50.38617" lon="3.42069">
        <ele>2.262</ele>
        <time>2011-06-26T05:46:43Z</time>
      </trkpt>
      <trkpt lat="50.38611" lon="3.42057">
        <ele>1.558</ele>
        <time>2011-06-26T05:46:46Z</time>
      </trkpt>
      <trkpt lat="50.38593" lon="3.42049">
        <ele>-1.581</ele>
        <time>2011-06-26T05:46:51Z</time>
      </trkpt>
      <trkpt lat="50.38574" lon="3.4207">
        <ele>-1.441</ele>
        <time>2011-06-26T05:46:56Z</time>
      </trkpt>
      <trkpt lat="50.38565" lon="3.42078">
        <ele>-0.958</ele>
        <time>2011-06-26T05:46:58Z</time>
      </trkpt>
      <trkpt lat="50.38548" lon="3.42107">
        <ele>-0.999</ele>
        <time>2011-06-26T05:47:03Z</time>
      </trkpt>
      <trkpt lat="50.38544" lon="3.42132">
        <ele>-1.007</ele>
        <time>2011-06-26T05:47:06Z</time>
      </trkpt>
      <trkpt lat="50.38543" lon="3.42157">
        <ele>-0.973</ele>
        <time>2011-06-26T05:47:09Z</time>
      </trkpt>
      <trkpt lat="50.38546" lon="3.42198">
        <ele>0.634</ele>
        <time>2011-06-26T05:47:15Z</time>
      </trkpt>
      <trkpt lat="50.38548" lon="3.4221">
        <ele>2.833</ele>
        <time>2011-06-26T05:47:18Z</time>
      </trkpt>
      <trkpt lat="50.38537" lon="3.42238">
        <ele>4.603</ele>
        <time>2011-06-26T05:47:24Z</time>
      </trkpt>
      <trkpt lat="50.3853" lon="3.42248">
        <ele>4.514</ele>
        <time>2011-06-26T05:47:26Z</time>
      </trkpt>
      <trkpt lat="50.38514" lon="3.42266">
        <ele>4.677</ele>
        <time>2011-06-26T05:47:30Z</time>
      </trkpt>
      <trkpt lat="50.38501" lon="3.42274">
        <ele>4.559</ele>
        <time>2011-06-26T05:47:33Z</time>
      </trkpt>
      <trkpt lat="50.38474" lon="3.42286">
        <ele>4.423</ele>
        <time>2011-06-26T05:47:39Z</time>
      </trkpt>
      <trkpt lat="50.38464" lon="3.42286">
        <ele>4.131</ele>
        <time>2011-06-26T05:47:41Z</time>
      </trkpt>
      <trkpt lat="50.38454" lon="3.42284">
        <ele>3.961</ele>
        <time>2011-06-26T05:47:43Z</time>
      </trkpt>
      <trkpt lat="50.38435" lon="3.42273">
        <ele>3.882</ele>
        <time>2011-06-26T05:47:47Z</time>
      </trkpt>
      <trkpt lat="50.38415" lon="3.42255">
        <ele>3.923</ele>
        <time>2011-06-26T05:47:52Z</time>
      </trkpt>
      <trkpt lat="50.38396" lon="3.42246">
        <ele>3.278</ele>
        <time>2011-06-26T05:47:56Z</time>
      </trkpt>
      <trkpt lat="50.38374" lon="3.42223">
        <ele>2.475</ele>
        <time>2011-06-26T05:48:01Z</time>
      </trkpt>
      <trkpt lat="50.38371" lon="3.42216">
        <ele>2.392</ele>
        <time>2011-06-26T05:48:02Z</time>
      </trkpt>
      <trkpt lat="50.38349" lon="3.42153">
        <ele>2.221</ele>
        <time>2011-06-26T05:48:10Z</time>
      </trkpt>
      <trkpt lat="50.38341" lon="3.42115">
        <ele>2.79</ele>
        <time>2011-06-26T05:48:15Z</time>
      </trkpt>
      <trkpt lat="50.38338" lon="3.42086">
        <ele>2.838</ele>
        <time>2011-06-26T05:48:19Z</time>
      </trkpt>
      <trkpt lat="50.38341" lon="3.42063">
        <ele>3.104</ele>
        <time>2011-06-26T05:48:22Z</time>
      </trkpt>
      <trkpt lat="50.38342" lon="3.42022">
        <ele>3.23</ele>
        <time>2011-06-26T05:48:27Z</time>
      </trkpt>
      <trkpt lat="50.38346" lon="3.42006">
        <ele>3.52</ele>
        <time>2011-06-26T05:48:29Z</time>
      </trkpt>
      <trkpt lat="50.38357" lon="3.41967">
        <ele>3.451</ele>
        <time>2011-06-26T05:48:34Z</time>
      </trkpt>
      <trkpt lat="50.38379" lon="3.41942">
        <ele>3.761</ele>
        <time>2011-06-26T05:48:40Z</time>
      </trkpt>
      <trkpt lat="50.38385" lon="3.41937">
        <ele>3.843</ele>
        <time>2011-06-26T05:48:42Z</time>
      </trkpt>
      <trkpt lat="50.38399" lon="3.41937">
        <ele>4.536</ele>
        <time>2011-06-26T05:48:46Z</time>
      </trkpt>
      <trkpt lat="50.38405" lon="3.41936">
        <ele>4.832</ele>
        <time>2011-06-26T05:48:50Z</time>
      </trkpt>
      <trkpt lat="50.38408" lon="3.41933">
        <ele>5.915</ele>
        <time>2011-06-26T05:48:55Z</time>
      </trkpt>
      <trkpt lat="50.38417" lon="3.4193">
        <ele>6.185</ele>
        <time>2011-06-26T05:48:59Z</time>
      </trkpt>
      <trkpt lat="50.38429" lon="3.41925">
        <ele>6.135</ele>
        <time>2011-06-26T05:49:03Z</time>
      </trkpt>
      <trkpt lat="50.38434" lon="3.41929">
        <ele>5.491</ele>
        <time>2011-06-26T05:49:06Z</time>
      </trkpt>
      <trkpt lat="50.38452" lon="3.41932">
        <ele>3.345</ele>
        <time>2011-06-26T05:49:09Z</time>
      </trkpt>
      <trkpt lat="50.38463" lon="3.41928">
        <ele>2.413</ele>
        <time>2011-06-26T05:49:11Z</time>
      </trkpt>
      <trkpt lat="50.38482" lon="3.41926">
        <ele>2.834</ele>
        <time>2011-06-26T05:49:15Z</time>
      </trkpt>
      <trkpt lat="50.38494" lon="3.41923">
        <ele>3.287</ele>
        <time>2011-06-26T05:49:18Z</time>
      </trkpt>
      <trkpt lat="50.38519" lon="3.41907">
        <ele>3.188</ele>
        <time>2011-06-26T05:49:24Z</time>
      </trkpt>
      <trkpt lat="50.38525" lon="3.41903">
        <ele>2.478</ele>
        <time>2011-06-26T05:49:26Z</time>
      </trkpt>
      <trkpt lat="50.38522" lon="3.41888">
        <ele>1.179</ele>
        <time>2011-06-26T05:49:30Z</time>
      </trkpt>
      <trkpt lat="50.38516" lon="3.41873">
        <ele>0.679</ele>
        <time>2011-06-26T05:49:33Z</time>
      </trkpt>
      <trkpt lat="50.38516" lon="3.41867">
        <ele>1.334</ele>
        <time>2011-06-26T05:49:36Z</time>
      </trkpt>
      <trkpt lat="50.38516" lon="3.41856">
        <ele>0.944</ele>
        <time>2011-06-26T05:49:40Z</time>
      </trkpt>
      <trkpt lat="50.38516" lon="3.41844">
        <ele>0.157</ele>
        <time>2011-06-26T05:49:42Z</time>
      </trkpt>
      <trkpt lat="50.38519" lon="3.41842">
        <ele>-1.892</ele>
        <time>2011-06-26T05:49:45Z</time>
      </trkpt>
      <trkpt lat="50.38535" lon="3.41839">
        <ele>-1.707</ele>
        <time>2011-06-26T05:49:50Z</time>
      </trkpt>
      <trkpt lat="50.38557" lon="3.41818">
        <ele>-1.478</ele>
        <time>2011-06-26T05:49:57Z</time>
      </trkpt>
      <trkpt lat="50.3857" lon="3.41799">
        <ele>-1.713</ele>
        <time>2011-06-26T05:50:02Z</time>
      </trkpt>
      <trkpt lat="50.38578" lon="3.41786">
        <ele>-1.961</ele>
        <time>2011-06-26T05:50:08Z</time>
      </trkpt>
      <trkpt lat="50.38587" lon="3.41771">
        <ele>-2.354</ele>
        <time>2011-06-26T05:50:16Z</time>
      </trkpt>
      <trkpt lat="50.38599" lon="3.4175">
        <ele>-2.729</ele>
        <time>2011-06-26T05:50:23Z</time>
      </trkpt>
      <trkpt lat="50.38609" lon="3.41734">
        <ele>-2.759</ele>
        <time>2011-06-26T05:50:28Z</time>
      </trkpt>
      <trkpt lat="50.38618" lon="3.4173">
        <ele>-2.825</ele>
        <time>2011-06-26T05:50:31Z</time>
      </trkpt>
      <trkpt lat="50.38631" lon="3.41742">
        <ele>-2.657</ele>
        <time>2011-06-26T05:50:35Z</time>
      </trkpt>
      <trkpt lat="50.3866" lon="3.41774">
        <ele>-2.028</ele>
        <time>2011-06-26T05:50:43Z</time>
      </trkpt>
      <trkpt lat="50.38679" lon="3.41794">
        <ele>-1.983</ele>
        <time>2011-06-26T05:50:49Z</time>
      </trkpt>
      <trkpt lat="50.38695" lon="3.4181">
        <ele>-1.754</ele>
        <time>2011-06-26T05:50:54Z</time>
      </trkpt>
      <trkpt lat="50.38698" lon="3.41814">
        <ele>-1.754</ele>
        <time>2011-06-26T05:50:55Z</time>
      </trkpt>
      <trkpt lat="50.38711" lon="3.41831">
        <ele>-1.522</ele>
        <time>2011-06-26T05:50:59Z</time>
      </trkpt>
      <trkpt lat="50.38724" lon="3.41864">
        <ele>-1.36</ele>
        <time>2011-06-26T05:51:04Z</time>
      </trkpt>
      <trkpt lat="50.38732" lon="3.41911">
        <ele>-0.586</ele>
        <time>2011-06-26T05:51:10Z</time>
      </trkpt>
      <trkpt lat="50.38739" lon="3.41978">
        <ele>0.242</ele>
        <time>2011-06-26T05:51:18Z</time>
      </trkpt>
      <trkpt lat="50.38747" lon="3.42039">
        <ele>0.338</ele>
        <time>2011-06-26T05:51:25Z</time>
      </trkpt>
      <trkpt lat="50.38754" lon="3.42099">
        <ele>1.104</ele>
        <time>2011-06-26T05:51:32Z</time>
      </trkpt>
      <trkpt lat="50.38765" lon="3.42186">
        <ele>1.781</ele>
        <time>2011-06-26T05:51:42Z</time>
      </trkpt>
      <trkpt lat="50.38771" lon="3.42259">
        <ele>2.017</ele>
        <time>2011-06-26T05:51:50Z</time>
      </trkpt>
      <trkpt lat="50.38776" lon="3.42307">
        <ele>1.234</ele>
        <time>2011-06-26T05:51:55Z</time>
      </trkpt>
      <trkpt lat="50.38786" lon="3.42391">
        <ele>1.212</ele>
        <time>2011-06-26T05:52:04Z</time>
      </trkpt>
      <trkpt lat="50.38788" lon="3.42408">
        <ele>0.946</ele>
        <time>2011-06-26T05:52:06Z</time>
      </trkpt>
      <trkpt lat="50.38793" lon="3.42435">
        <ele>0.483</ele>
        <time>2011-06-26T05:52:10Z</time>
      </trkpt>
      <trkpt lat="50.38806" lon="3.42438">
        <ele>0.626</ele>
        <time>2011-06-26T05:52:14Z</time>
      </trkpt>
      <trkpt lat="50.38814" lon="3.42431">
        <ele>0.822</ele>
        <time>2011-06-26T05:52:16Z</time>
      </trkpt>
      <trkpt lat="50.38826" lon="3.42418">
        <ele>0.704</ele>
        <time>2011-06-26T05:52:19Z</time>
      </trkpt>
      <trkpt lat="50.38834" lon="3.42409">
        <ele>0.681</ele>
        <time>2011-06-26T05:52:21Z</time>
      </trkpt>
      <trkpt lat="50.38847" lon="3.42398">
        <ele>0.578</ele>
        <time>2011-06-26T05:52:24Z</time>
      </trkpt>
      <trkpt lat="50.38876" lon="3.42368">
        <ele>0.387</ele>
        <time>2011-06-26T05:52:30Z</time>
      </trkpt>
      <trkpt lat="50.38915" lon="3.42327">
        <ele>0.019</ele>
        <time>2011-06-26T05:52:37Z</time>
      </trkpt>
      <trkpt lat="50.38956" lon="3.42284">
        <ele>-0.916</ele>
        <time>2011-06-26T05:52:44Z</time>
      </trkpt>
      <trkpt lat="50.38972" lon="3.42285">
        <ele>-2.04</ele>
        <time>2011-06-26T05:52:48Z</time>
      </trkpt>
      <trkpt lat="50.38975" lon="3.42291">
        <ele>-2.175</ele>
        <time>2011-06-26T05:52:49Z</time>
      </trkpt>
      <trkpt lat="50.38988" lon="3.42335">
        <ele>-2.667</ele>
        <time>2011-06-26T05:52:55Z</time>
      </trkpt>
      <trkpt lat="50.38992" lon="3.4235">
        <ele>-2.861</ele>
        <time>2011-06-26T05:52:57Z</time>
      </trkpt>
      <trkpt lat="50.39009" lon="3.42377">
        <ele>-3.704</ele>
        <time>2011-06-26T05:53:02Z</time>
      </trkpt>
      <trkpt lat="50.39019" lon="3.42385">
        <ele>-4.035</ele>
        <time>2011-06-26T05:53:05Z</time>
      </trkpt>
      <trkpt lat="50.39026" lon="3.42376">
        <ele>-3.954</ele>
        <time>2011-06-26T05:53:10Z</time>
      </trkpt>
      <trkpt lat="50.39026" lon="3.42376">
        <ele>-3.651</ele>
        <time>2011-06-26T05:53:11Z</time>
      </trkpt>
      <trkpt lat="50.39029" lon="3.42372">
        <ele>-2.847</ele>
        <time>2011-06-26T05:53:15Z</time>
      </trkpt>
      <trkpt lat="50.39032" lon="3.42373">
        <ele>-2.605</ele>
        <time>2011-06-26T05:53:17Z</time>
      </trkpt>
      <trkpt lat="50.39042" lon="3.4239">
        <ele>-1.792</ele>
        <time>2011-06-26T05:53:22Z</time>
      </trkpt>
      <trkpt lat="50.39045" lon="3.42393">
        <ele>-1.842</ele>
        <time>2011-06-26T05:53:23Z</time>
      </trkpt>
      <trkpt lat="50.39058" lon="3.42423">
        <ele>-1.624</ele>
        <time>2011-06-26T05:53:31Z</time>
      </trkpt>
      <trkpt lat="50.39066" lon="3.42451">
        <ele>-1.223</ele>
        <time>2011-06-26T05:53:37Z</time>
      </trkpt>
      <trkpt lat="50.39074" lon="3.42484">
        <ele>-0.276</ele>
        <time>2011-06-26T05:53:43Z</time>
      </trkpt>
      <trkpt lat="50.39084" lon="3.42525">
        <ele>1.108</ele>
        <time>2011-06-26T05:53:50Z</time>
      </trkpt>
      <trkpt lat="50.39094" lon="3.42563">
        <ele>2.19</ele>
        <time>2011-06-26T05:53:57Z</time>
      </trkpt>
      <trkpt lat="50.39095" lon="3.42569">
        <ele>2.502</ele>
        <time>2011-06-26T05:53:58Z</time>
      </trkpt>
      <trkpt lat="50.39096" lon="3.42583">
        <ele>2.85</ele>
        <time>2011-06-26T05:54:00Z</time>
      </trkpt>
      <trkpt lat="50.39104" lon="3.42645">
        <ele>4.583</ele>
        <time>2011-06-26T05:54:10Z</time>
      </trkpt>
      <trkpt lat="50.39109" lon="3.42686">
        <ele>5.715</ele>
        <time>2011-06-26T05:54:17Z</time>
      </trkpt>
      <trkpt lat="50.39113" lon="3.42719">
        <ele>7.386</ele>
        <time>2011-06-26T05:54:23Z</time>
      </trkpt>
      <trkpt lat="50.39117" lon="3.42765">
        <ele>9.517</ele>
        <time>2011-06-26T05:54:32Z</time>
      </trkpt>
      <trkpt lat="50.39118" lon="3.42816">
        <ele>10.335</ele>
        <time>2011-06-26T05:54:41Z</time>
      </trkpt>
      <trkpt lat="50.39119" lon="3.42868">
        <ele>10.656</ele>
        <time>2011-06-26T05:54:49Z</time>
      </trkpt>
      <trkpt lat="50.39121" lon="3.42909">
        <ele>11.241</ele>
        <time>2011-06-26T05:54:55Z</time>
      </trkpt>
      <trkpt lat="50.39126" lon="3.4297">
        <ele>11.556</ele>
        <time>2011-06-26T05:55:04Z</time>
      </trkpt>
      <trkpt lat="50.39136" lon="3.42997">
        <ele>12.282</ele>
        <time>2011-06-26T05:55:09Z</time>
      </trkpt>
      <trkpt lat="50.3914" lon="3.43">
        <ele>12.295</ele>
        <time>2011-06-26T05:55:10Z</time>
      </trkpt>
      <trkpt lat="50.39153" lon="3.43001">
        <ele>12.404</ele>
        <time>2011-06-26T05:55:14Z</time>
      </trkpt>
      <trkpt lat="50.39164" lon="3.43001">
        <ele>12.235</ele>
        <time>2011-06-26T05:55:18Z</time>
      </trkpt>
      <trkpt lat="50.39168" lon="3.42992">
        <ele>12.671</ele>
        <time>2011-06-26T05:55:20Z</time>
      </trkpt>
      <trkpt lat="50.39173" lon="3.42969">
        <ele>13.207</ele>
        <time>2011-06-26T05:55:24Z</time>
      </trkpt>
      <trkpt lat="50.39181" lon="3.42921">
        <ele>13.477</ele>
        <time>2011-06-26T05:55:31Z</time>
      </trkpt>
      <trkpt lat="50.39183" lon="3.42907">
        <ele>13.475</ele>
        <time>2011-06-26T05:55:33Z</time>
      </trkpt>
      <trkpt lat="50.39182" lon="3.42856">
        <ele>13.527</ele>
        <time>2011-06-26T05:55:40Z</time>
      </trkpt>
      <trkpt lat="50.39181" lon="3.42843">
        <ele>13.754</ele>
        <time>2011-06-26T05:55:42Z</time>
      </trkpt>
      <trkpt lat="50.39178" lon="3.42802">
        <ele>14.119</ele>
        <time>2011-06-26T05:55:48Z</time>
      </trkpt>
      <trkpt lat="50.39175" lon="3.42781">
        <ele>13.804</ele>
        <time>2011-06-26T05:55:51Z</time>
      </trkpt>
      <trkpt lat="50.39171" lon="3.42755">
        <ele>13.803</ele>
        <time>2011-06-26T05:55:55Z</time>
      </trkpt>
      <trkpt lat="50.3917" lon="3.4274">
        <ele>13.731</ele>
        <time>2011-06-26T05:55:57Z</time>
      </trkpt>
      <trkpt lat="50.39163" lon="3.42689">
        <ele>13.774</ele>
        <time>2011-06-26T05:56:04Z</time>
      </trkpt>
      <trkpt lat="50.39161" lon="3.42676">
        <ele>13.72</ele>
        <time>2011-06-26T05:56:06Z</time>
      </trkpt>
      <trkpt lat="50.39157" lon="3.42664">
        <ele>13.521</ele>
        <time>2011-06-26T05:56:08Z</time>
      </trkpt>
      <trkpt lat="50.39152" lon="3.42635">
        <ele>13.337</ele>
        <time>2011-06-26T05:56:12Z</time>
      </trkpt>
      <trkpt lat="50.39141" lon="3.42585">
        <ele>13.295</ele>
        <time>2011-06-26T05:56:19Z</time>
      </trkpt>
      <trkpt lat="50.39138" lon="3.4257">
        <ele>13.185</ele>
        <time>2011-06-26T05:56:21Z</time>
      </trkpt>
      <trkpt lat="50.39132" lon="3.42531">
        <ele>13.358</ele>
        <time>2011-06-26T05:56:27Z</time>
      </trkpt>
      <trkpt lat="50.39136" lon="3.4253">
        <ele>12.967</ele>
        <time>2011-06-26T05:56:31Z</time>
      </trkpt>
      <trkpt lat="50.39142" lon="3.42552">
        <ele>11.599</ele>
        <time>2011-06-26T05:56:34Z</time>
      </trkpt>
      <trkpt lat="50.39144" lon="3.42561">
        <ele>11.022</ele>
        <time>2011-06-26T05:56:35Z</time>
      </trkpt>
      <trkpt lat="50.39159" lon="3.42619">
        <ele>5.888</ele>
        <time>2011-06-26T05:56:41Z</time>
      </trkpt>
      <trkpt lat="50.39161" lon="3.42624">
        <ele>5.138</ele>
        <time>2011-06-26T05:56:42Z</time>
      </trkpt>
      <trkpt lat="50.39165" lon="3.42621">
        <ele>2.698</ele>
        <time>2011-06-26T05:56:46Z</time>
      </trkpt>
      <trkpt lat="50.39165" lon="3.426">
        <ele>1.707</ele>
        <time>2011-06-26T05:56:49Z</time>
      </trkpt>
      <trkpt lat="50.39163" lon="3.42574">
        <ele>-0.092</ele>
        <time>2011-06-26T05:56:53Z</time>
      </trkpt>
      <trkpt lat="50.39161" lon="3.42535">
        <ele>-4.254</ele>
        <time>2011-06-26T05:56:59Z</time>
      </trkpt>
      <trkpt lat="50.39161" lon="3.42517">
        <ele>-6.197</ele>
        <time>2011-06-26T05:57:02Z</time>
      </trkpt>
      <trkpt lat="50.39154" lon="3.42484">
        <ele>-6.891</ele>
        <time>2011-06-26T05:57:08Z</time>
      </trkpt>
      <trkpt lat="50.39153" lon="3.42473">
        <ele>-6.386</ele>
        <time>2011-06-26T05:57:11Z</time>
      </trkpt>
      <trkpt lat="50.39162" lon="3.42443">
        <ele>-6.75</ele>
        <time>2011-06-26T05:57:16Z</time>
      </trkpt>
      <trkpt lat="50.39173" lon="3.42424">
        <ele>-6.457</ele>
        <time>2011-06-26T05:57:19Z</time>
      </trkpt>
      <trkpt lat="50.3918" lon="3.42412">
        <ele>-6.199</ele>
        <time>2011-06-26T05:57:21Z</time>
      </trkpt>
      <trkpt lat="50.39191" lon="3.42373">
        <ele>-6.736</ele>
        <time>2011-06-26T05:57:27Z</time>
      </trkpt>
      <trkpt lat="50.39186" lon="3.42351">
        <ele>-6.625</ele>
        <time>2011-06-26T05:57:32Z</time>
      </trkpt>
      <trkpt lat="50.39172" lon="3.42336">
        <ele>-5.837</ele>
        <time>2011-06-26T05:57:36Z</time>
      </trkpt>
      <trkpt lat="50.39158" lon="3.42324">
        <ele>-5.472</ele>
        <time>2011-06-26T05:57:40Z</time>
      </trkpt>
      <trkpt lat="50.39147" lon="3.42309">
        <ele>-4.842</ele>
        <time>2011-06-26T05:57:44Z</time>
      </trkpt>
      <trkpt lat="50.39133" lon="3.42285">
        <ele>-4.643</ele>
        <time>2011-06-26T05:57:49Z</time>
      </trkpt>
      <trkpt lat="50.39119" lon="3.42262">
        <ele>-4.282</ele>
        <time>2011-06-26T05:57:54Z</time>
      </trkpt>
      <trkpt lat="50.39101" lon="3.4223">
        <ele>-3.852</ele>
        <time>2011-06-26T05:58:01Z</time>
      </trkpt>
      <trkpt lat="50.3909" lon="3.42207">
        <ele>-3.405</ele>
        <time>2011-06-26T05:58:06Z</time>
      </trkpt>
      <trkpt lat="50.39079" lon="3.42191">
        <ele>-3.346</ele>
        <time>2011-06-26T05:58:11Z</time>
      </trkpt>
      <trkpt lat="50.39071" lon="3.42174">
        <ele>-2.833</ele>
        <time>2011-06-26T05:58:16Z</time>
      </trkpt>
      <trkpt lat="50.39068" lon="3.42168">
        <ele>-2.55</ele>
        <time>2011-06-26T05:58:18Z</time>
      </trkpt>
      <trkpt lat="50.39075" lon="3.42154">
        <ele>-2.091</ele>
        <time>2011-06-26T05:58:22Z</time>
      </trkpt>
      <trkpt lat="50.391" lon="3.42126">
        <ele>-2.496</ele>
        <time>2011-06-26T05:58:28Z</time>
      </trkpt>
      <trkpt lat="50.39132" lon="3.42093">
        <ele>-3.262</ele>
        <time>2011-06-26T05:58:34Z</time>
      </trkpt>
      <trkpt lat="50.39171" lon="3.42052">
        <ele>-3.783</ele>
        <time>2011-06-26T05:58:41Z</time>
      </trkpt>
      <trkpt lat="50.39228" lon="3.41993">
        <ele>-5.073</ele>
        <time>2011-06-26T05:58:51Z</time>
      </trkpt>
      <trkpt lat="50.39279" lon="3.41941">
        <ele>-5.582</ele>
        <time>2011-06-26T05:59:00Z</time>
      </trkpt>
      <trkpt lat="50.3933" lon="3.41887">
        <ele>-6.1</ele>
        <time>2011-06-26T05:59:09Z</time>
      </trkpt>
      <trkpt lat="50.39381" lon="3.41836">
        <ele>-6.802</ele>
        <time>2011-06-26T05:59:18Z</time>
      </trkpt>
      <trkpt lat="50.39431" lon="3.41786">
        <ele>-6.779</ele>
        <time>2011-06-26T05:59:27Z</time>
      </trkpt>
      <trkpt lat="50.39472" lon="3.41743">
        <ele>-6.231</ele>
        <time>2011-06-26T05:59:35Z</time>
      </trkpt>
      <trkpt lat="50.3951" lon="3.41704">
        <ele>-6.121</ele>
        <time>2011-06-26T05:59:43Z</time>
      </trkpt>
      <trkpt lat="50.39546" lon="3.41666">
        <ele>-5.938</ele>
        <time>2011-06-26T05:59:51Z</time>
      </trkpt>
      <trkpt lat="50.39586" lon="3.41624">
        <ele>-5.941</ele>
        <time>2011-06-26T05:59:59Z</time>
      </trkpt>
      <trkpt lat="50.39627" lon="3.41583">
        <ele>-5.916</ele>
        <time>2011-06-26T06:00:07Z</time>
      </trkpt>
      <trkpt lat="50.39662" lon="3.41546">
        <ele>-5.626</ele>
        <time>2011-06-26T06:00:14Z</time>
      </trkpt>
      <trkpt lat="50.39727" lon="3.41479">
        <ele>-6.032</ele>
        <time>2011-06-26T06:00:26Z</time>
      </trkpt>
      <trkpt lat="50.39764" lon="3.4144">
        <ele>-6.056</ele>
        <time>2011-06-26T06:00:33Z</time>
      </trkpt>
      <trkpt lat="50.39811" lon="3.41391">
        <ele>-5.871</ele>
        <time>2011-06-26T06:00:42Z</time>
      </trkpt>
      <trkpt lat="50.39856" lon="3.41343">
        <ele>-5.196</ele>
        <time>2011-06-26T06:00:51Z</time>
      </trkpt>
      <trkpt lat="50.39905" lon="3.41291">
        <ele>-5.008</ele>
        <time>2011-06-26T06:01:01Z</time>
      </trkpt>
      <trkpt lat="50.39941" lon="3.41256">
        <ele>-4.895</ele>
        <time>2011-06-26T06:01:08Z</time>
      </trkpt>
      <trkpt lat="50.39975" lon="3.41219">
        <ele>-4.75</ele>
        <time>2011-06-26T06:01:15Z</time>
      </trkpt>
      <trkpt lat="50.40021" lon="3.41173">
        <ele>-4.847</ele>
        <time>2011-06-26T06:01:24Z</time>
      </trkpt>
      <trkpt lat="50.40068" lon="3.41124">
        <ele>-4.993</ele>
        <time>2011-06-26T06:01:33Z</time>
      </trkpt>
      <trkpt lat="50.40083" lon="3.41109">
        <ele>-5.178</ele>
        <time>2011-06-26T06:01:36Z</time>
      </trkpt>
      <trkpt lat="50.40133" lon="3.41056">
        <ele>-4.938</ele>
        <time>2011-06-26T06:01:46Z</time>
      </trkpt>
      <trkpt lat="50.40169" lon="3.4102">
        <ele>-4.794</ele>
        <time>2011-06-26T06:01:53Z</time>
      </trkpt>
      <trkpt lat="50.40209" lon="3.40978">
        <ele>-4.894</ele>
        <time>2011-06-26T06:02:01Z</time>
      </trkpt>
      <trkpt lat="50.40262" lon="3.40921">
        <ele>-5.585</ele>
        <time>2011-06-26T06:02:11Z</time>
      </trkpt>
      <trkpt lat="50.40323" lon="3.40859">
        <ele>-6.056</ele>
        <time>2011-06-26T06:02:22Z</time>
      </trkpt>
      <trkpt lat="50.40328" lon="3.40854">
        <ele>-6.051</ele>
        <time>2011-06-26T06:02:23Z</time>
      </trkpt>
      <trkpt lat="50.40341" lon="3.40851">
        <ele>-6.204</ele>
        <time>2011-06-26T06:02:26Z</time>
      </trkpt>
      <trkpt lat="50.40348" lon="3.40863">
        <ele>-6.128</ele>
        <time>2011-06-26T06:02:28Z</time>
      </trkpt>
      <trkpt lat="50.40355" lon="3.40877">
        <ele>-6.091</ele>
        <time>2011-06-26T06:02:30Z</time>
      </trkpt>
      <trkpt lat="50.40389" lon="3.40927">
        <ele>-5.745</ele>
        <time>2011-06-26T06:02:38Z</time>
      </trkpt>
      <trkpt lat="50.40402" lon="3.40945">
        <ele>-5.702</ele>
        <time>2011-06-26T06:02:41Z</time>
      </trkpt>
      <trkpt lat="50.4041" lon="3.40959">
        <ele>-5.636</ele>
        <time>2011-06-26T06:02:43Z</time>
      </trkpt>
      <trkpt lat="50.40421" lon="3.40978">
        <ele>-5.459</ele>
        <time>2011-06-26T06:02:46Z</time>
      </trkpt>
      <trkpt lat="50.40438" lon="3.41">
        <ele>-5.406</ele>
        <time>2011-06-26T06:02:50Z</time>
      </trkpt>
      <trkpt lat="50.4047" lon="3.41042">
        <ele>-6.534</ele>
        <time>2011-06-26T06:02:57Z</time>
      </trkpt>
      <trkpt lat="50.40504" lon="3.41091">
        <ele>-7.053</ele>
        <time>2011-06-26T06:03:05Z</time>
      </trkpt>
      <trkpt lat="50.40546" lon="3.41147">
        <ele>-7.084</ele>
        <time>2011-06-26T06:03:14Z</time>
      </trkpt>
      <trkpt lat="50.40581" lon="3.41197">
        <ele>-7.202</ele>
        <time>2011-06-26T06:03:22Z</time>
      </trkpt>
      <trkpt lat="50.40625" lon="3.41259">
        <ele>-7.092</ele>
        <time>2011-06-26T06:03:32Z</time>
      </trkpt>
      <trkpt lat="50.4066" lon="3.41306">
        <ele>-7.141</ele>
        <time>2011-06-26T06:03:40Z</time>
      </trkpt>
      <trkpt lat="50.40696" lon="3.41353">
        <ele>-7.195</ele>
        <time>2011-06-26T06:03:48Z</time>
      </trkpt>
      <trkpt lat="50.40717" lon="3.41384">
        <ele>-6.992</ele>
        <time>2011-06-26T06:03:53Z</time>
      </trkpt>
      <trkpt lat="50.4073" lon="3.41399">
        <ele>-6.954</ele>
        <time>2011-06-26T06:03:56Z</time>
      </trkpt>
      <trkpt lat="50.40742" lon="3.41418">
        <ele>-6.991</ele>
        <time>2011-06-26T06:03:59Z</time>
      </trkpt>
      <trkpt lat="50.40759" lon="3.41441">
        <ele>-6.946</ele>
        <time>2011-06-26T06:04:03Z</time>
      </trkpt>
      <trkpt lat="50.40784" lon="3.41476">
        <ele>-6.881</ele>
        <time>2011-06-26T06:04:09Z</time>
      </trkpt>
      <trkpt lat="50.40808" lon="3.41512">
        <ele>-6.875</ele>
        <time>2011-06-26T06:04:15Z</time>
      </trkpt>
      <trkpt lat="50.40838" lon="3.41554">
        <ele>-6.691</ele>
        <time>2011-06-26T06:04:22Z</time>
      </trkpt>
      <trkpt lat="50.40861" lon="3.41584">
        <ele>-6.484</ele>
        <time>2011-06-26T06:04:27Z</time>
      </trkpt>
      <trkpt lat="50.4087" lon="3.41595">
        <ele>-6.635</ele>
        <time>2011-06-26T06:04:29Z</time>
      </trkpt>
      <trkpt lat="50.40897" lon="3.41634">
        <ele>-6.926</ele>
        <time>2011-06-26T06:04:35Z</time>
      </trkpt>
      <trkpt lat="50.4093" lon="3.41676">
        <ele>-6.962</ele>
        <time>2011-06-26T06:04:42Z</time>
      </trkpt>
      <trkpt lat="50.40941" lon="3.41691">
        <ele>-6.974</ele>
        <time>2011-06-26T06:04:45Z</time>
      </trkpt>
      <trkpt lat="50.40955" lon="3.41723">
        <ele>-7.319</ele>
        <time>2011-06-26T06:04:51Z</time>
      </trkpt>
      <trkpt lat="50.40954" lon="3.41729">
        <ele>-7.301</ele>
        <time>2011-06-26T06:04:52Z</time>
      </trkpt>
      <trkpt lat="50.40944" lon="3.41767">
        <ele>-7.031</ele>
        <time>2011-06-26T06:04:59Z</time>
      </trkpt>
      <trkpt lat="50.40937" lon="3.41788">
        <ele>-7.152</ele>
        <time>2011-06-26T06:05:04Z</time>
      </trkpt>
      <trkpt lat="50.40929" lon="3.41813">
        <ele>-7.001</ele>
        <time>2011-06-26T06:05:10Z</time>
      </trkpt>
      <trkpt lat="50.40922" lon="3.41836">
        <ele>-6.841</ele>
        <time>2011-06-26T06:05:15Z</time>
      </trkpt>
      <trkpt lat="50.40913" lon="3.41868">
        <ele>-6.633</ele>
        <time>2011-06-26T06:05:20Z</time>
      </trkpt>
      <trkpt lat="50.40905" lon="3.419">
        <ele>-6.839</ele>
        <time>2011-06-26T06:05:26Z</time>
      </trkpt>
      <trkpt lat="50.40897" lon="3.41927">
        <ele>-6.732</ele>
        <time>2011-06-26T06:05:32Z</time>
      </trkpt>
      <trkpt lat="50.40887" lon="3.41963">
        <ele>-6.538</ele>
        <time>2011-06-26T06:05:38Z</time>
      </trkpt>
      <trkpt lat="50.40881" lon="3.41993">
        <ele>-6.129</ele>
        <time>2011-06-26T06:05:44Z</time>
      </trkpt>
      <trkpt lat="50.40884" lon="3.42017">
        <ele>-5.723</ele>
        <time>2011-06-26T06:05:48Z</time>
      </trkpt>
      <trkpt lat="50.40887" lon="3.42041">
        <ele>-4.473</ele>
        <time>2011-06-26T06:05:52Z</time>
      </trkpt>
      <trkpt lat="50.40892" lon="3.42083">
        <ele>-3.679</ele>
        <time>2011-06-26T06:05:58Z</time>
      </trkpt>
      <trkpt lat="50.40898" lon="3.42128">
        <ele>-4.056</ele>
        <time>2011-06-26T06:06:04Z</time>
      </trkpt>
      <trkpt lat="50.409" lon="3.42151">
        <ele>-4.212</ele>
        <time>2011-06-26T06:06:07Z</time>
      </trkpt>
      <trkpt lat="50.40905" lon="3.42199">
        <ele>-4.29</ele>
        <time>2011-06-26T06:06:13Z</time>
      </trkpt>
      <trkpt lat="50.40906" lon="3.42207">
        <ele>-4.237</ele>
        <time>2011-06-26T06:06:14Z</time>
      </trkpt>
      <trkpt lat="50.40913" lon="3.42247">
        <ele>-4.515</ele>
        <time>2011-06-26T06:06:19Z</time>
      </trkpt>
      <trkpt lat="50.40917" lon="3.4227">
        <ele>-4.654</ele>
        <time>2011-06-26T06:06:22Z</time>
      </trkpt>
      <trkpt lat="50.40925" lon="3.42303">
        <ele>-4.236</ele>
        <time>2011-06-26T06:06:27Z</time>
      </trkpt>
      <trkpt lat="50.40932" lon="3.42322">
        <ele>-4.61</ele>
        <time>2011-06-26T06:06:30Z</time>
      </trkpt>
      <trkpt lat="50.40937" lon="3.42356">
        <ele>-4.566</ele>
        <time>2011-06-26T06:06:35Z</time>
      </trkpt>
      <trkpt lat="50.40938" lon="3.42386">
        <ele>-4.619</ele>
        <time>2011-06-26T06:06:39Z</time>
      </trkpt>
      <trkpt lat="50.40935" lon="3.42425">
        <ele>-5.065</ele>
        <time>2011-06-26T06:06:44Z</time>
      </trkpt>
      <trkpt lat="50.40928" lon="3.42461">
        <ele>-4.509</ele>
        <time>2011-06-26T06:06:49Z</time>
      </trkpt>
      <trkpt lat="50.40926" lon="3.42484">
        <ele>-4.743</ele>
        <time>2011-06-26T06:06:52Z</time>
      </trkpt>
      <trkpt lat="50.40925" lon="3.42499">
        <ele>-4.714</ele>
        <time>2011-06-26T06:06:54Z</time>
      </trkpt>
      <trkpt lat="50.40926" lon="3.42547">
        <ele>-4.43</ele>
        <time>2011-06-26T06:07:00Z</time>
      </trkpt>
      <trkpt lat="50.40929" lon="3.42587">
        <ele>-4.305</ele>
        <time>2011-06-26T06:07:05Z</time>
      </trkpt>
      <trkpt lat="50.40934" lon="3.42619">
        <ele>-3.87</ele>
        <time>2011-06-26T06:07:09Z</time>
      </trkpt>
      <trkpt lat="50.40937" lon="3.42656">
        <ele>-2.997</ele>
        <time>2011-06-26T06:07:14Z</time>
      </trkpt>
      <trkpt lat="50.40933" lon="3.42669">
        <ele>-2.738</ele>
        <time>2011-06-26T06:07:16Z</time>
      </trkpt>
      <trkpt lat="50.40923" lon="3.42694">
        <ele>-2.5</ele>
        <time>2011-06-26T06:07:20Z</time>
      </trkpt>
      <trkpt lat="50.40908" lon="3.42729">
        <ele>-2.152</ele>
        <time>2011-06-26T06:07:26Z</time>
      </trkpt>
      <trkpt lat="50.40897" lon="3.42764">
        <ele>-2.915</ele>
        <time>2011-06-26T06:07:31Z</time>
      </trkpt>
      <trkpt lat="50.40902" lon="3.42787">
        <ele>-3.159</ele>
        <time>2011-06-26T06:07:35Z</time>
      </trkpt>
      <trkpt lat="50.4091" lon="3.42789">
        <ele>-3.084</ele>
        <time>2011-06-26T06:07:37Z</time>
      </trkpt>
      <trkpt lat="50.40937" lon="3.42787">
        <ele>-2.504</ele>
        <time>2011-06-26T06:07:43Z</time>
      </trkpt>
      <trkpt lat="50.40946" lon="3.42788">
        <ele>-2.182</ele>
        <time>2011-06-26T06:07:45Z</time>
      </trkpt>
      <trkpt lat="50.40969" lon="3.42796">
        <ele>-1.706</ele>
        <time>2011-06-26T06:07:50Z</time>
      </trkpt>
      <trkpt lat="50.40983" lon="3.42805">
        <ele>-1.673</ele>
        <time>2011-06-26T06:07:53Z</time>
      </trkpt>
      <trkpt lat="50.41" lon="3.42812">
        <ele>-1.57</ele>
        <time>2011-06-26T06:07:56Z</time>
      </trkpt>
      <trkpt lat="50.41037" lon="3.4284">
        <ele>-1.824</ele>
        <time>2011-06-26T06:08:03Z</time>
      </trkpt>
      <trkpt lat="50.41052" lon="3.42851">
        <ele>-1.981</ele>
        <time>2011-06-26T06:08:06Z</time>
      </trkpt>
      <trkpt lat="50.41064" lon="3.42856">
        <ele>-1.715</ele>
        <time>2011-06-26T06:08:08Z</time>
      </trkpt>
      <trkpt lat="50.41094" lon="3.42877">
        <ele>-1.931</ele>
        <time>2011-06-26T06:08:14Z</time>
      </trkpt>
      <trkpt lat="50.41126" lon="3.42897">
        <ele>-4.028</ele>
        <time>2011-06-26T06:08:19Z</time>
      </trkpt>
      <trkpt lat="50.41167" lon="3.4292">
        <ele>-4.839</ele>
        <time>2011-06-26T06:08:25Z</time>
      </trkpt>
      <trkpt lat="50.41189" lon="3.42933">
        <ele>-3.457</ele>
        <time>2011-06-26T06:08:30Z</time>
      </trkpt>
      <trkpt lat="50.41188" lon="3.42947">
        <ele>-2.216</ele>
        <time>2011-06-26T06:08:34Z</time>
      </trkpt>
      <trkpt lat="50.41178" lon="3.42964">
        <ele>-1.595</ele>
        <time>2011-06-26T06:08:38Z</time>
      </trkpt>
      <trkpt lat="50.41176" lon="3.42972">
        <ele>-1.481</ele>
        <time>2011-06-26T06:08:39Z</time>
      </trkpt>
      <trkpt lat="50.41168" lon="3.43011">
        <ele>-1.145</ele>
        <time>2011-06-26T06:08:44Z</time>
      </trkpt>
      <trkpt lat="50.4117" lon="3.43057">
        <ele>-0.774</ele>
        <time>2011-06-26T06:08:50Z</time>
      </trkpt>
      <trkpt lat="50.41173" lon="3.43087">
        <ele>-0.539</ele>
        <time>2011-06-26T06:08:54Z</time>
      </trkpt>
      <trkpt lat="50.41186" lon="3.43162">
        <ele>-0.379</ele>
        <time>2011-06-26T06:09:04Z</time>
      </trkpt>
      <trkpt lat="50.41188" lon="3.43178">
        <ele>-0.2</ele>
        <time>2011-06-26T06:09:06Z</time>
      </trkpt>
      <trkpt lat="50.41194" lon="3.432">
        <ele>-0.354</ele>
        <time>2011-06-26T06:09:09Z</time>
      </trkpt>
      <trkpt lat="50.41224" lon="3.4326">
        <ele>-0.609</ele>
        <time>2011-06-26T06:09:18Z</time>
      </trkpt>
      <trkpt lat="50.41239" lon="3.43284">
        <ele>-0.585</ele>
        <time>2011-06-26T06:09:22Z</time>
      </trkpt>
      <trkpt lat="50.41249" lon="3.43301">
        <ele>-0.713</ele>
        <time>2011-06-26T06:09:25Z</time>
      </trkpt>
      <trkpt lat="50.41281" lon="3.43345">
        <ele>-0.518</ele>
        <time>2011-06-26T06:09:34Z</time>
      </trkpt>
      <trkpt lat="50.41298" lon="3.43381">
        <ele>-0.465</ele>
        <time>2011-06-26T06:09:40Z</time>
      </trkpt>
      <trkpt lat="50.41317" lon="3.43433">
        <ele>-0.555</ele>
        <time>2011-06-26T06:09:48Z</time>
      </trkpt>
      <trkpt lat="50.41333" lon="3.43477">
        <ele>-0.514</ele>
        <time>2011-06-26T06:09:55Z</time>
      </trkpt>
      <trkpt lat="50.41345" lon="3.43513">
        <ele>-0.491</ele>
        <time>2011-06-26T06:10:01Z</time>
      </trkpt>
      <trkpt lat="50.41359" lon="3.43557">
        <ele>-0.235</ele>
        <time>2011-06-26T06:10:08Z</time>
      </trkpt>
      <trkpt lat="50.41363" lon="3.43586">
        <ele>0.038</ele>
        <time>2011-06-26T06:10:12Z</time>
      </trkpt>
      <trkpt lat="50.41362" lon="3.43612">
        <ele>0.564</ele>
        <time>2011-06-26T06:10:16Z</time>
      </trkpt>
      <trkpt lat="50.4136" lon="3.43632">
        <ele>0.539</ele>
        <time>2011-06-26T06:10:19Z</time>
      </trkpt>
      <trkpt lat="50.4135" lon="3.43687">
        <ele>0.536</ele>
        <time>2011-06-26T06:10:26Z</time>
      </trkpt>
      <trkpt lat="50.41346" lon="3.43713">
        <ele>0.346</ele>
        <time>2011-06-26T06:10:29Z</time>
      </trkpt>
      <trkpt lat="50.41332" lon="3.43762">
        <ele>-0.453</ele>
        <time>2011-06-26T06:10:35Z</time>
      </trkpt>
      <trkpt lat="50.4133" lon="3.4377">
        <ele>-0.619</ele>
        <time>2011-06-26T06:10:36Z</time>
      </trkpt>
      <trkpt lat="50.41331" lon="3.43804">
        <ele>-0.44</ele>
        <time>2011-06-26T06:10:40Z</time>
      </trkpt>
      <trkpt lat="50.41336" lon="3.43828">
        <ele>-0.427</ele>
        <time>2011-06-26T06:10:43Z</time>
      </trkpt>
      <trkpt lat="50.41341" lon="3.43867">
        <ele>-0.474</ele>
        <time>2011-06-26T06:10:48Z</time>
      </trkpt>
      <trkpt lat="50.41342" lon="3.43891">
        <ele>-0.27</ele>
        <time>2011-06-26T06:10:51Z</time>
      </trkpt>
      <trkpt lat="50.41337" lon="3.43929">
        <ele>-0.349</ele>
        <time>2011-06-26T06:10:56Z</time>
      </trkpt>
      <trkpt lat="50.41333" lon="3.43944">
        <ele>-0.093</ele>
        <time>2011-06-26T06:10:58Z</time>
      </trkpt>
      <trkpt lat="50.41325" lon="3.43974">
        <ele>-0.404</ele>
        <time>2011-06-26T06:11:02Z</time>
      </trkpt>
      <trkpt lat="50.4132" lon="3.44001">
        <ele>-0.665</ele>
        <time>2011-06-26T06:11:06Z</time>
      </trkpt>
      <trkpt lat="50.41317" lon="3.44024">
        <ele>-0.877</ele>
        <time>2011-06-26T06:11:09Z</time>
      </trkpt>
      <trkpt lat="50.41313" lon="3.44056">
        <ele>-1.179</ele>
        <time>2011-06-26T06:11:14Z</time>
      </trkpt>
      <trkpt lat="50.41304" lon="3.44081">
        <ele>-1.183</ele>
        <time>2011-06-26T06:11:19Z</time>
      </trkpt>
      <trkpt lat="50.41296" lon="3.44117">
        <ele>-0.997</ele>
        <time>2011-06-26T06:11:25Z</time>
      </trkpt>
      <trkpt lat="50.41293" lon="3.44141">
        <ele>-0.929</ele>
        <time>2011-06-26T06:11:29Z</time>
      </trkpt>
      <trkpt lat="50.41299" lon="3.44152">
        <ele>-0.919</ele>
        <time>2011-06-26T06:11:32Z</time>
      </trkpt>
      <trkpt lat="50.41322" lon="3.4416">
        <ele>-1.237</ele>
        <time>2011-06-26T06:11:39Z</time>
      </trkpt>
      <trkpt lat="50.41339" lon="3.44167">
        <ele>-0.759</ele>
        <time>2011-06-26T06:11:43Z</time>
      </trkpt>
      <trkpt lat="50.41353" lon="3.44175">
        <ele>-0.202</ele>
        <time>2011-06-26T06:11:47Z</time>
      </trkpt>
      <trkpt lat="50.41357" lon="3.44199">
        <ele>-0.374</ele>
        <time>2011-06-26T06:11:52Z</time>
      </trkpt>
      <trkpt lat="50.41352" lon="3.44214">
        <ele>-0.533</ele>
        <time>2011-06-26T06:11:55Z</time>
      </trkpt>
      <trkpt lat="50.41338" lon="3.44257">
        <ele>-0.856</ele>
        <time>2011-06-26T06:12:02Z</time>
      </trkpt>
      <trkpt lat="50.4132" lon="3.44288">
        <ele>-1.212</ele>
        <time>2011-06-26T06:12:08Z</time>
      </trkpt>
      <trkpt lat="50.4131" lon="3.44311">
        <ele>-1.073</ele>
        <time>2011-06-26T06:12:13Z</time>
      </trkpt>
      <trkpt lat="50.41315" lon="3.44329">
        <ele>-1.138</ele>
        <time>2011-06-26T06:12:18Z</time>
      </trkpt>
      <trkpt lat="50.41327" lon="3.44334">
        <ele>-1.038</ele>
        <time>2011-06-26T06:12:23Z</time>
      </trkpt>
      <trkpt lat="50.41344" lon="3.44338">
        <ele>-0.423</ele>
        <time>2011-06-26T06:12:28Z</time>
      </trkpt>
      <trkpt lat="50.41364" lon="3.44342">
        <ele>0.523</ele>
        <time>2011-06-26T06:12:34Z</time>
      </trkpt>
      <trkpt lat="50.41373" lon="3.44345">
        <ele>0.663</ele>
        <time>2011-06-26T06:12:37Z</time>
      </trkpt>
      <trkpt lat="50.41386" lon="3.44351">
        <ele>0.518</ele>
        <time>2011-06-26T06:12:43Z</time>
      </trkpt>
      <trkpt lat="50.41392" lon="3.44353">
        <ele>0.521</ele>
        <time>2011-06-26T06:12:45Z</time>
      </trkpt>
      <trkpt lat="50.41412" lon="3.44362">
        <ele>0.301</ele>
        <time>2011-06-26T06:12:52Z</time>
      </trkpt>
      <trkpt lat="50.4143" lon="3.44364">
        <ele>0.223</ele>
        <time>2011-06-26T06:12:57Z</time>
      </trkpt>
      <trkpt lat="50.41449" lon="3.44374">
        <ele>-0.255</ele>
        <time>2011-06-26T06:13:03Z</time>
      </trkpt>
      <trkpt lat="50.41461" lon="3.44376">
        <ele>-0.39</ele>
        <time>2011-06-26T06:13:06Z</time>
      </trkpt>
      <trkpt lat="50.41471" lon="3.44376">
        <ele>-0.444</ele>
        <time>2011-06-26T06:13:09Z</time>
      </trkpt>
      <trkpt lat="50.41484" lon="3.44367">
        <ele>-0.611</ele>
        <time>2011-06-26T06:13:14Z</time>
      </trkpt>
      <trkpt lat="50.41495" lon="3.44354">
        <ele>-0.679</ele>
        <time>2011-06-26T06:13:20Z</time>
      </trkpt>
      <trkpt lat="50.41506" lon="3.4435">
        <ele>-0.52</ele>
        <time>2011-06-26T06:13:26Z</time>
      </trkpt>
      <trkpt lat="50.41507" lon="3.44351">
        <ele>-0.473</ele>
        <time>2011-06-26T06:13:28Z</time>
      </trkpt>
      <trkpt lat="50.41519" lon="3.44354">
        <ele>-0.591</ele>
        <time>2011-06-26T06:13:33Z</time>
      </trkpt>
      <trkpt lat="50.41534" lon="3.44358">
        <ele>-0.558</ele>
        <time>2011-06-26T06:13:38Z</time>
      </trkpt>
      <trkpt lat="50.41537" lon="3.44359">
        <ele>-0.548</ele>
        <time>2011-06-26T06:13:39Z</time>
      </trkpt>
      <trkpt lat="50.41549" lon="3.44365">
        <ele>-0.194</ele>
        <time>2011-06-26T06:13:44Z</time>
      </trkpt>
      <trkpt lat="50.41555" lon="3.44367">
        <ele>-0.173</ele>
        <time>2011-06-26T06:13:46Z</time>
      </trkpt>
      <trkpt lat="50.41582" lon="3.44379">
        <ele>-0.484</ele>
        <time>2011-06-26T06:13:54Z</time>
      </trkpt>
      <trkpt lat="50.41601" lon="3.44377">
        <ele>-0.684</ele>
        <time>2011-06-26T06:13:58Z</time>
      </trkpt>
      <trkpt lat="50.41623" lon="3.44377">
        <ele>-0.992</ele>
        <time>2011-06-26T06:14:03Z</time>
      </trkpt>
      <trkpt lat="50.41649" lon="3.44382">
        <ele>-1.253</ele>
        <time>2011-06-26T06:14:09Z</time>
      </trkpt>
      <trkpt lat="50.41677" lon="3.44385">
        <ele>-1.383</ele>
        <time>2011-06-26T06:14:15Z</time>
      </trkpt>
      <trkpt lat="50.41699" lon="3.44383">
        <ele>-1.36</ele>
        <time>2011-06-26T06:14:20Z</time>
      </trkpt>
      <trkpt lat="50.41704" lon="3.4438">
        <ele>-1.445</ele>
        <time>2011-06-26T06:14:21Z</time>
      </trkpt>
      <trkpt lat="50.41719" lon="3.44379">
        <ele>-2.051</ele>
        <time>2011-06-26T06:14:25Z</time>
      </trkpt>
      <trkpt lat="50.41737" lon="3.44384">
        <ele>-2.062</ele>
        <time>2011-06-26T06:14:30Z</time>
      </trkpt>
      <trkpt lat="50.4176" lon="3.44399">
        <ele>-1.308</ele>
        <time>2011-06-26T06:14:36Z</time>
      </trkpt>
      <trkpt lat="50.41781" lon="3.44407">
        <ele>-0.473</ele>
        <time>2011-06-26T06:14:41Z</time>
      </trkpt>
      <trkpt lat="50.41797" lon="3.44408">
        <ele>-0.397</ele>
        <time>2011-06-26T06:14:45Z</time>
      </trkpt>
      <trkpt lat="50.41813" lon="3.44403">
        <ele>-0.48</ele>
        <time>2011-06-26T06:14:49Z</time>
      </trkpt>
      <trkpt lat="50.41834" lon="3.44399">
        <ele>-0.412</ele>
        <time>2011-06-26T06:14:54Z</time>
      </trkpt>
      <trkpt lat="50.41852" lon="3.4441">
        <ele>-0.326</ele>
        <time>2011-06-26T06:14:59Z</time>
      </trkpt>
      <trkpt lat="50.41869" lon="3.44419">
        <ele>-0.535</ele>
        <time>2011-06-26T06:15:03Z</time>
      </trkpt>
      <trkpt lat="50.41872" lon="3.44419">
        <ele>-0.507</ele>
        <time>2011-06-26T06:15:04Z</time>
      </trkpt>
      <trkpt lat="50.4189" lon="3.44403">
        <ele>-0.089</ele>
        <time>2011-06-26T06:15:09Z</time>
      </trkpt>
      <trkpt lat="50.41917" lon="3.4436">
        <ele>18</ele>
        <time>2011-06-26T06:15:18Z</time>
      </trkpt>
      <trkpt lat="50.41933" lon="3.44327">
        <ele>0.075</ele>
        <time>2011-06-26T06:15:24Z</time>
      </trkpt>
      <trkpt lat="50.41946" lon="3.44302">
        <ele>-0.055</ele>
        <time>2011-06-26T06:15:29Z</time>
      </trkpt>
      <trkpt lat="50.41966" lon="3.44267">
        <ele>0.067</ele>
        <time>2011-06-26T06:15:36Z</time>
      </trkpt>
      <trkpt lat="50.41982" lon="3.44233">
        <ele>-0.7</ele>
        <time>2011-06-26T06:15:42Z</time>
      </trkpt>
      <trkpt lat="50.41997" lon="3.44207">
        <ele>-0.39</ele>
        <time>2011-06-26T06:15:48Z</time>
      </trkpt>
      <trkpt lat="50.42006" lon="3.44194">
        <ele>-0.509</ele>
        <time>2011-06-26T06:15:52Z</time>
      </trkpt>
      <trkpt lat="50.42012" lon="3.44178">
        <ele>-0.253</ele>
        <time>2011-06-26T06:15:55Z</time>
      </trkpt>
      <trkpt lat="50.42022" lon="3.44158">
        <ele>-0.166</ele>
        <time>2011-06-26T06:15:59Z</time>
      </trkpt>
      <trkpt lat="50.42032" lon="3.44137">
        <ele>-0.155</ele>
        <time>2011-06-26T06:16:03Z</time>
      </trkpt>
      <trkpt lat="50.42054" lon="3.44099">
        <ele>-0.614</ele>
        <time>2011-06-26T06:16:10Z</time>
      </trkpt>
      <trkpt lat="50.42068" lon="3.44076">
        <ele>-0.468</ele>
        <time>2011-06-26T06:16:15Z</time>
      </trkpt>
      <trkpt lat="50.4208" lon="3.44055">
        <ele>-0.756</ele>
        <time>2011-06-26T06:16:20Z</time>
      </trkpt>
      <trkpt lat="50.42095" lon="3.44026">
        <ele>-1.126</ele>
        <time>2011-06-26T06:16:26Z</time>
      </trkpt>
      <trkpt lat="50.42107" lon="3.44006">
        <ele>-1.153</ele>
        <time>2011-06-26T06:16:31Z</time>
      </trkpt>
      <trkpt lat="50.42116" lon="3.44014">
        <ele>-1.053</ele>
        <time>2011-06-26T06:16:35Z</time>
      </trkpt>
      <trkpt lat="50.42132" lon="3.4404">
        <ele>-0.884</ele>
        <time>2011-06-26T06:16:41Z</time>
      </trkpt>
      <trkpt lat="50.42151" lon="3.44069">
        <ele>-0.766</ele>
        <time>2011-06-26T06:16:47Z</time>
      </trkpt>
      <trkpt lat="50.42157" lon="3.44079">
        <ele>-0.888</ele>
        <time>2011-06-26T06:16:49Z</time>
      </trkpt>
      <trkpt lat="50.42179" lon="3.4411">
        <ele>-1.478</ele>
        <time>2011-06-26T06:16:56Z</time>
      </trkpt>
      <trkpt lat="50.422" lon="3.4413">
        <ele>-1.416</ele>
        <time>2011-06-26T06:17:02Z</time>
      </trkpt>
      <trkpt lat="50.4222" lon="3.44149">
        <ele>-1.347</ele>
        <time>2011-06-26T06:17:07Z</time>
      </trkpt>
      <trkpt lat="50.42237" lon="3.44168">
        <ele>-1.414</ele>
        <time>2011-06-26T06:17:12Z</time>
      </trkpt>
      <trkpt lat="50.42247" lon="3.44182">
        <ele>-1.257</ele>
        <time>2011-06-26T06:17:15Z</time>
      </trkpt>
      <trkpt lat="50.42263" lon="3.44207">
        <ele>-1.164</ele>
        <time>2011-06-26T06:17:20Z</time>
      </trkpt>
      <trkpt lat="50.42268" lon="3.44217">
        <ele>-1.094</ele>
        <time>2011-06-26T06:17:22Z</time>
      </trkpt>
      <trkpt lat="50.4228" lon="3.44236">
        <ele>-0.999</ele>
        <time>2011-06-26T06:17:26Z</time>
      </trkpt>
      <trkpt lat="50.42296" lon="3.44257">
        <ele>-0.965</ele>
        <time>2011-06-26T06:17:31Z</time>
      </trkpt>
      <trkpt lat="50.4231" lon="3.44274">
        <ele>-0.767</ele>
        <time>2011-06-26T06:17:35Z</time>
      </trkpt>
      <trkpt lat="50.42329" lon="3.4429">
        <ele>-0.823</ele>
        <time>2011-06-26T06:17:40Z</time>
      </trkpt>
      <trkpt lat="50.42352" lon="3.44307">
        <ele>-0.985</ele>
        <time>2011-06-26T06:17:46Z</time>
      </trkpt>
      <trkpt lat="50.42371" lon="3.44301">
        <ele>-0.828</ele>
        <time>2011-06-26T06:17:51Z</time>
      </trkpt>
      <trkpt lat="50.42381" lon="3.44312">
        <ele>-0.745</ele>
        <time>2011-06-26T06:17:54Z</time>
      </trkpt>
      <trkpt lat="50.42394" lon="3.44327">
        <ele>-0.034</ele>
        <time>2011-06-26T06:17:58Z</time>
      </trkpt>
      <trkpt lat="50.42424" lon="3.44364">
        <ele>0.489</ele>
        <time>2011-06-26T06:18:06Z</time>
      </trkpt>
      <trkpt lat="50.42431" lon="3.44374">
        <ele>0.549</ele>
        <time>2011-06-26T06:18:08Z</time>
      </trkpt>
      <trkpt lat="50.42461" lon="3.44402">
        <ele>0.711</ele>
        <time>2011-06-26T06:18:15Z</time>
      </trkpt>
      <trkpt lat="50.42465" lon="3.44407">
        <ele>0.726</ele>
        <time>2011-06-26T06:18:16Z</time>
      </trkpt>
      <trkpt lat="50.42491" lon="3.44433">
        <ele>0.965</ele>
        <time>2011-06-26T06:18:23Z</time>
      </trkpt>
      <trkpt lat="50.42494" lon="3.44441">
        <ele>1.016</ele>
        <time>2011-06-26T06:18:28Z</time>
      </trkpt>
      <trkpt lat="50.42495" lon="3.44444">
        <ele>1.064</ele>
        <time>2011-06-26T06:18:38Z</time>
      </trkpt>
      <trkpt lat="50.42508" lon="3.44449">
        <ele>1.416</ele>
        <time>2011-06-26T06:18:43Z</time>
      </trkpt>
      <trkpt lat="50.42515" lon="3.44445">
        <ele>1.603</ele>
        <time>2011-06-26T06:18:45Z</time>
      </trkpt>
      <trkpt lat="50.42545" lon="3.44411">
        <ele>2.085</ele>
        <time>2011-06-26T06:18:53Z</time>
      </trkpt>
      <trkpt lat="50.42555" lon="3.44396">
        <ele>2.06</ele>
        <time>2011-06-26T06:18:56Z</time>
      </trkpt>
      <trkpt lat="50.42574" lon="3.44381">
        <ele>1.923</ele>
        <time>2011-06-26T06:19:01Z</time>
      </trkpt>
      <trkpt lat="50.42593" lon="3.44368">
        <ele>2.308</ele>
        <time>2011-06-26T06:19:06Z</time>
      </trkpt>
      <trkpt lat="50.42625" lon="3.44333">
        <ele>2.574</ele>
        <time>2011-06-26T06:19:14Z</time>
      </trkpt>
      <trkpt lat="50.42627" lon="3.44329">
        <ele>2.869</ele>
        <time>2011-06-26T06:19:15Z</time>
      </trkpt>
      <trkpt lat="50.42629" lon="3.44322">
        <ele>3.263</ele>
        <time>2011-06-26T06:19:17Z</time>
      </trkpt>
      <trkpt lat="50.42642" lon="3.44307">
        <ele>3.678</ele>
        <time>2011-06-26T06:19:22Z</time>
      </trkpt>
      <trkpt lat="50.42646" lon="3.44304">
        <ele>3.758</ele>
        <time>2011-06-26T06:19:23Z</time>
      </trkpt>
      <trkpt lat="50.42671" lon="3.44281">
        <ele>5.524</ele>
        <time>2011-06-26T06:19:30Z</time>
      </trkpt>
      <trkpt lat="50.4269" lon="3.44265">
        <ele>6.514</ele>
        <time>2011-06-26T06:19:35Z</time>
      </trkpt>
      <trkpt lat="50.42709" lon="3.4425">
        <ele>7.625</ele>
        <time>2011-06-26T06:19:41Z</time>
      </trkpt>
      <trkpt lat="50.42712" lon="3.44249">
        <ele>7.753</ele>
        <time>2011-06-26T06:19:42Z</time>
      </trkpt>
      <trkpt lat="50.42718" lon="3.44258">
        <ele>7.763</ele>
        <time>2011-06-26T06:19:47Z</time>
      </trkpt>
      <trkpt lat="50.42729" lon="3.44271">
        <ele>5.601</ele>
        <time>2011-06-26T06:19:51Z</time>
      </trkpt>
      <trkpt lat="50.42742" lon="3.44295">
        <ele>4.591</ele>
        <time>2011-06-26T06:19:56Z</time>
      </trkpt>
      <trkpt lat="50.42745" lon="3.44318">
        <ele>5.184</ele>
        <time>2011-06-26T06:20:00Z</time>
      </trkpt>
      <trkpt lat="50.42754" lon="3.44347">
        <ele>5.583</ele>
        <time>2011-06-26T06:20:05Z</time>
      </trkpt>
      <trkpt lat="50.42763" lon="3.44379">
        <ele>6.635</ele>
        <time>2011-06-26T06:20:10Z</time>
      </trkpt>
      <trkpt lat="50.42768" lon="3.44404">
        <ele>6.971</ele>
        <time>2011-06-26T06:20:14Z</time>
      </trkpt>
      <trkpt lat="50.42764" lon="3.44414">
        <ele>7.331</ele>
        <time>2011-06-26T06:20:18Z</time>
      </trkpt>
      <trkpt lat="50.42761" lon="3.44417">
        <ele>8.055</ele>
        <time>2011-06-26T06:20:23Z</time>
      </trkpt>
      <trkpt lat="50.4276" lon="3.4442">
        <ele>7.941</ele>
        <time>2011-06-26T06:20:29Z</time>
      </trkpt>
      <trkpt lat="50.42757" lon="3.44421">
        <ele>8.085</ele>
        <time>2011-06-26T06:20:42Z</time>
      </trkpt>
      <trkpt lat="50.42749" lon="3.44421">
        <ele>7.601</ele>
        <time>2011-06-26T06:20:48Z</time>
      </trkpt>
      <trkpt lat="50.42736" lon="3.44424">
        <ele>6.937</ele>
        <time>2011-06-26T06:20:52Z</time>
      </trkpt>
      <trkpt lat="50.42735" lon="3.44427">
        <ele>7.402</ele>
        <time>2011-06-26T06:20:53Z</time>
      </trkpt>
      <trkpt lat="50.42732" lon="3.44433">
        <ele>9.031</ele>
        <time>2011-06-26T06:20:57Z</time>
      </trkpt>
      <trkpt lat="50.42732" lon="3.44434">
        <ele>9.038</ele>
        <time>2011-06-26T06:20:58Z</time>
      </trkpt>
      <trkpt lat="50.42729" lon="3.4444">
        <ele>11.13</ele>
        <time>2011-06-26T06:21:03Z</time>
      </trkpt>
      <trkpt lat="50.42729" lon="3.44444">
        <ele>11.84</ele>
        <time>2011-06-26T06:21:05Z</time>
      </trkpt>
      <trkpt lat="50.42722" lon="3.4446">
        <ele>12.333</ele>
        <time>2011-06-26T06:21:10Z</time>
      </trkpt>
      <trkpt lat="50.42718" lon="3.44469">
        <ele>12.284</ele>
        <time>2011-06-26T06:21:12Z</time>
      </trkpt>
      <trkpt lat="50.42705" lon="3.44501">
        <ele>12.236</ele>
        <time>2011-06-26T06:21:18Z</time>
      </trkpt>
      <trkpt lat="50.42695" lon="3.44537">
        <ele>12.082</ele>
        <time>2011-06-26T06:21:23Z</time>
      </trkpt>
      <trkpt lat="50.42681" lon="3.44566">
        <ele>11.274</ele>
        <time>2011-06-26T06:21:27Z</time>
      </trkpt>
      <trkpt lat="50.4266" lon="3.44621">
        <ele>9.128</ele>
        <time>2011-06-26T06:21:33Z</time>
      </trkpt>
      <trkpt lat="50.42638" lon="3.44683">
        <ele>6.972</ele>
        <time>2011-06-26T06:21:39Z</time>
      </trkpt>
      <trkpt lat="50.42635" lon="3.44691">
        <ele>6.51</ele>
        <time>2011-06-26T06:21:40Z</time>
      </trkpt>
      <trkpt lat="50.42638" lon="3.44714">
        <ele>4.849</ele>
        <time>2011-06-26T06:21:44Z</time>
      </trkpt>
      <trkpt lat="50.42652" lon="3.44725">
        <ele>5.07</ele>
        <time>2011-06-26T06:21:48Z</time>
      </trkpt>
      <trkpt lat="50.42666" lon="3.44739">
        <ele>6.169</ele>
        <time>2011-06-26T06:21:52Z</time>
      </trkpt>
      <trkpt lat="50.42693" lon="3.4476">
        <ele>6.91</ele>
        <time>2011-06-26T06:21:58Z</time>
      </trkpt>
      <trkpt lat="50.42725" lon="3.44789">
        <ele>7.389</ele>
        <time>2011-06-26T06:22:05Z</time>
      </trkpt>
      <trkpt lat="50.42744" lon="3.44807">
        <ele>6.932</ele>
        <time>2011-06-26T06:22:09Z</time>
      </trkpt>
      <trkpt lat="50.42758" lon="3.44823">
        <ele>6.509</ele>
        <time>2011-06-26T06:22:12Z</time>
      </trkpt>
      <trkpt lat="50.42776" lon="3.44843">
        <ele>6.415</ele>
        <time>2011-06-26T06:22:16Z</time>
      </trkpt>
      <trkpt lat="50.42792" lon="3.44866">
        <ele>6.007</ele>
        <time>2011-06-26T06:22:20Z</time>
      </trkpt>
      <trkpt lat="50.42806" lon="3.44901">
        <ele>6.06</ele>
        <time>2011-06-26T06:22:25Z</time>
      </trkpt>
      <trkpt lat="50.42809" lon="3.44946">
        <ele>6.33</ele>
        <time>2011-06-26T06:22:31Z</time>
      </trkpt>
      <trkpt lat="50.42808" lon="3.44983">
        <ele>6.72</ele>
        <time>2011-06-26T06:22:36Z</time>
      </trkpt>
      <trkpt lat="50.42813" lon="3.45015">
        <ele>7.196</ele>
        <time>2011-06-26T06:22:41Z</time>
      </trkpt>
      <trkpt lat="50.42815" lon="3.45022">
        <ele>7.016</ele>
        <time>2011-06-26T06:22:43Z</time>
      </trkpt>
      <trkpt lat="50.42818" lon="3.45031">
        <ele>6.962</ele>
        <time>2011-06-26T06:22:47Z</time>
      </trkpt>
      <trkpt lat="50.42812" lon="3.45049">
        <ele>7.587</ele>
        <time>2011-06-26T06:22:52Z</time>
      </trkpt>
      <trkpt lat="50.428" lon="3.45064">
        <ele>7.915</ele>
        <time>2011-06-26T06:22:56Z</time>
      </trkpt>
      <trkpt lat="50.42785" lon="3.45088">
        <ele>8.473</ele>
        <time>2011-06-26T06:23:01Z</time>
      </trkpt>
      <trkpt lat="50.42776" lon="3.45114">
        <ele>9.059</ele>
        <time>2011-06-26T06:23:05Z</time>
      </trkpt>
      <trkpt lat="50.42773" lon="3.4512">
        <ele>9.124</ele>
        <time>2011-06-26T06:23:06Z</time>
      </trkpt>
      <trkpt lat="50.42761" lon="3.45151">
        <ele>9.612</ele>
        <time>2011-06-26T06:23:11Z</time>
      </trkpt>
      <trkpt lat="50.42753" lon="3.45176">
        <ele>9.715</ele>
        <time>2011-06-26T06:23:15Z</time>
      </trkpt>
      <trkpt lat="50.42738" lon="3.45209">
        <ele>10.172</ele>
        <time>2011-06-26T06:23:21Z</time>
      </trkpt>
      <trkpt lat="50.42727" lon="3.45238">
        <ele>10.689</ele>
        <time>2011-06-26T06:23:26Z</time>
      </trkpt>
      <trkpt lat="50.42717" lon="3.45264">
        <ele>11.446</ele>
        <time>2011-06-26T06:23:31Z</time>
      </trkpt>
      <trkpt lat="50.42706" lon="3.4529">
        <ele>11.911</ele>
        <time>2011-06-26T06:23:36Z</time>
      </trkpt>
      <trkpt lat="50.42696" lon="3.45314">
        <ele>11.986</ele>
        <time>2011-06-26T06:23:41Z</time>
      </trkpt>
      <trkpt lat="50.42689" lon="3.45334">
        <ele>11.725</ele>
        <time>2011-06-26T06:23:44Z</time>
      </trkpt>
      <trkpt lat="50.42675" lon="3.45369">
        <ele>11.185</ele>
        <time>2011-06-26T06:23:49Z</time>
      </trkpt>
      <trkpt lat="50.42653" lon="3.45419">
        <ele>9.811</ele>
        <time>2011-06-26T06:23:56Z</time>
      </trkpt>
      <trkpt lat="50.42636" lon="3.45467">
        <ele>8.601</ele>
        <time>2011-06-26T06:24:02Z</time>
      </trkpt>
      <trkpt lat="50.42629" lon="3.4548">
        <ele>8.387</ele>
        <time>2011-06-26T06:24:04Z</time>
      </trkpt>
      <trkpt lat="50.42618" lon="3.45501">
        <ele>8.345</ele>
        <time>2011-06-26T06:24:07Z</time>
      </trkpt>
      <trkpt lat="50.42604" lon="3.45533">
        <ele>7.992</ele>
        <time>2011-06-26T06:24:12Z</time>
      </trkpt>
      <trkpt lat="50.42597" lon="3.45552">
        <ele>8.26</ele>
        <time>2011-06-26T06:24:15Z</time>
      </trkpt>
      <trkpt lat="50.42592" lon="3.45563">
        <ele>8.546</ele>
        <time>2011-06-26T06:24:17Z</time>
      </trkpt>
      <trkpt lat="50.42578" lon="3.45597">
        <ele>8.994</ele>
        <time>2011-06-26T06:24:23Z</time>
      </trkpt>
      <trkpt lat="50.42576" lon="3.45602">
        <ele>9.048</ele>
        <time>2011-06-26T06:24:24Z</time>
      </trkpt>
      <trkpt lat="50.42572" lon="3.45616">
        <ele>9.437</ele>
        <time>2011-06-26T06:24:26Z</time>
      </trkpt>
      <trkpt lat="50.42564" lon="3.45634">
        <ele>9.488</ele>
        <time>2011-06-26T06:24:29Z</time>
      </trkpt>
      <trkpt lat="50.42545" lon="3.45681">
        <ele>9.285</ele>
        <time>2011-06-26T06:24:36Z</time>
      </trkpt>
      <trkpt lat="50.42534" lon="3.45708">
        <ele>9.119</ele>
        <time>2011-06-26T06:24:41Z</time>
      </trkpt>
      <trkpt lat="50.42521" lon="3.45739">
        <ele>9.554</ele>
        <time>2011-06-26T06:24:47Z</time>
      </trkpt>
      <trkpt lat="50.4251" lon="3.4577">
        <ele>10.079</ele>
        <time>2011-06-26T06:24:53Z</time>
      </trkpt>
      <trkpt lat="50.42496" lon="3.45804">
        <ele>10.723</ele>
        <time>2011-06-26T06:24:59Z</time>
      </trkpt>
      <trkpt lat="50.42485" lon="3.45831">
        <ele>11.1</ele>
        <time>2011-06-26T06:25:04Z</time>
      </trkpt>
      <trkpt lat="50.42477" lon="3.45847">
        <ele>12.126</ele>
        <time>2011-06-26T06:25:08Z</time>
      </trkpt>
      <trkpt lat="50.42477" lon="3.45849">
        <ele>12.215</ele>
        <time>2011-06-26T06:25:09Z</time>
      </trkpt>
      <trkpt lat="50.42471" lon="3.45843">
        <ele>12.481</ele>
        <time>2011-06-26T06:25:14Z</time>
      </trkpt>
      <trkpt lat="50.42468" lon="3.45835">
        <ele>12.896</ele>
        <time>2011-06-26T06:25:18Z</time>
      </trkpt>
      <trkpt lat="50.42462" lon="3.45849">
        <ele>12.642</ele>
        <time>2011-06-26T06:25:22Z</time>
      </trkpt>
      <trkpt lat="50.42459" lon="3.45856">
        <ele>13.153</ele>
        <time>2011-06-26T06:25:24Z</time>
      </trkpt>
      <trkpt lat="50.42451" lon="3.45878">
        <ele>13.935</ele>
        <time>2011-06-26T06:25:29Z</time>
      </trkpt>
      <trkpt lat="50.42441" lon="3.45906">
        <ele>15.153</ele>
        <time>2011-06-26T06:25:35Z</time>
      </trkpt>
      <trkpt lat="50.42433" lon="3.45924">
        <ele>16.326</ele>
        <time>2011-06-26T06:25:39Z</time>
      </trkpt>
      <trkpt lat="50.42424" lon="3.45952">
        <ele>18.407</ele>
        <time>2011-06-26T06:25:46Z</time>
      </trkpt>
      <trkpt lat="50.42417" lon="3.4597">
        <ele>20.514</ele>
        <time>2011-06-26T06:25:51Z</time>
      </trkpt>
      <trkpt lat="50.42408" lon="3.45991">
        <ele>21.883</ele>
        <time>2011-06-26T06:25:57Z</time>
      </trkpt>
      <trkpt lat="50.42402" lon="3.4601">
        <ele>23.56</ele>
        <time>2011-06-26T06:26:02Z</time>
      </trkpt>
      <trkpt lat="50.42395" lon="3.46032">
        <ele>23.469</ele>
        <time>2011-06-26T06:26:07Z</time>
      </trkpt>
      <trkpt lat="50.42394" lon="3.46037">
        <ele>23.186</ele>
        <time>2011-06-26T06:26:08Z</time>
      </trkpt>
      <trkpt lat="50.424" lon="3.46053">
        <ele>21.907</ele>
        <time>2011-06-26T06:26:13Z</time>
      </trkpt>
      <trkpt lat="50.4241" lon="3.46061">
        <ele>21.731</ele>
        <time>2011-06-26T06:26:16Z</time>
      </trkpt>
      <trkpt lat="50.42438" lon="3.46088">
        <ele>19.132</ele>
        <time>2011-06-26T06:26:22Z</time>
      </trkpt>
      <trkpt lat="50.42455" lon="3.46105">
        <ele>16.722</ele>
        <time>2011-06-26T06:26:25Z</time>
      </trkpt>
      <trkpt lat="50.42474" lon="3.46121">
        <ele>13.326</ele>
        <time>2011-06-26T06:26:30Z</time>
      </trkpt>
      <trkpt lat="50.42475" lon="3.46126">
        <ele>12.649</ele>
        <time>2011-06-26T06:26:32Z</time>
      </trkpt>
      <trkpt lat="50.42472" lon="3.46131">
        <ele>12.421</ele>
        <time>2011-06-26T06:26:35Z</time>
      </trkpt>
      <trkpt lat="50.42452" lon="3.46146">
        <ele>13.05</ele>
        <time>2011-06-26T06:26:42Z</time>
      </trkpt>
      <trkpt lat="50.42435" lon="3.46159">
        <ele>13.687</ele>
        <time>2011-06-26T06:26:48Z</time>
      </trkpt>
      <trkpt lat="50.4242" lon="3.46173">
        <ele>13.623</ele>
        <time>2011-06-26T06:26:52Z</time>
      </trkpt>
      <trkpt lat="50.42397" lon="3.46194">
        <ele>14.076</ele>
        <time>2011-06-26T06:26:59Z</time>
      </trkpt>
      <trkpt lat="50.42374" lon="3.46211">
        <ele>14.403</ele>
        <time>2011-06-26T06:27:05Z</time>
      </trkpt>
      <trkpt lat="50.42354" lon="3.46232">
        <ele>15.006</ele>
        <time>2011-06-26T06:27:11Z</time>
      </trkpt>
      <trkpt lat="50.42341" lon="3.46242">
        <ele>15.787</ele>
        <time>2011-06-26T06:27:15Z</time>
      </trkpt>
      <trkpt lat="50.42327" lon="3.46255">
        <ele>16.365</ele>
        <time>2011-06-26T06:27:19Z</time>
      </trkpt>
      <trkpt lat="50.42309" lon="3.46271">
        <ele>17.434</ele>
        <time>2011-06-26T06:27:24Z</time>
      </trkpt>
      <trkpt lat="50.42314" lon="3.46283">
        <ele>17.702</ele>
        <time>2011-06-26T06:27:28Z</time>
      </trkpt>
      <trkpt lat="50.42326" lon="3.46288">
        <ele>17.254</ele>
        <time>2011-06-26T06:27:31Z</time>
      </trkpt>
      <trkpt lat="50.42365" lon="3.46315">
        <ele>15.075</ele>
        <time>2011-06-26T06:27:38Z</time>
      </trkpt>
      <trkpt lat="50.424" lon="3.46334">
        <ele>13.032</ele>
        <time>2011-06-26T06:27:43Z</time>
      </trkpt>
      <trkpt lat="50.42445" lon="3.46359">
        <ele>10.436</ele>
        <time>2011-06-26T06:27:49Z</time>
      </trkpt>
      <trkpt lat="50.42487" lon="3.46378">
        <ele>8.833</ele>
        <time>2011-06-26T06:27:55Z</time>
      </trkpt>
      <trkpt lat="50.42511" lon="3.46394">
        <ele>7.711</ele>
        <time>2011-06-26T06:27:59Z</time>
      </trkpt>
      <trkpt lat="50.42524" lon="3.46419">
        <ele>7.539</ele>
        <time>2011-06-26T06:28:03Z</time>
      </trkpt>
      <trkpt lat="50.42517" lon="3.46452">
        <ele>7.355</ele>
        <time>2011-06-26T06:28:07Z</time>
      </trkpt>
      <trkpt lat="50.42515" lon="3.4646">
        <ele>7.285</ele>
        <time>2011-06-26T06:28:08Z</time>
      </trkpt>
      <trkpt lat="50.425" lon="3.46532">
        <ele>6.995</ele>
        <time>2011-06-26T06:28:16Z</time>
      </trkpt>
      <trkpt lat="50.42492" lon="3.46567">
        <ele>6.903</ele>
        <time>2011-06-26T06:28:20Z</time>
      </trkpt>
      <trkpt lat="50.42479" lon="3.46622">
        <ele>7.111</ele>
        <time>2011-06-26T06:28:26Z</time>
      </trkpt>
      <trkpt lat="50.42466" lon="3.46683">
        <ele>6.552</ele>
        <time>2011-06-26T06:28:33Z</time>
      </trkpt>
      <trkpt lat="50.42455" lon="3.46727">
        <ele>6.302</ele>
        <time>2011-06-26T06:28:38Z</time>
      </trkpt>
      <trkpt lat="50.42441" lon="3.46798">
        <ele>6.59</ele>
        <time>2011-06-26T06:28:46Z</time>
      </trkpt>
      <trkpt lat="50.42431" lon="3.46843">
        <ele>6.326</ele>
        <time>2011-06-26T06:28:51Z</time>
      </trkpt>
      <trkpt lat="50.42417" lon="3.46912">
        <ele>6.318</ele>
        <time>2011-06-26T06:28:59Z</time>
      </trkpt>
      <trkpt lat="50.42412" lon="3.46948">
        <ele>6.03</ele>
        <time>2011-06-26T06:29:04Z</time>
      </trkpt>
      <trkpt lat="50.42406" lon="3.46963">
        <ele>6.293</ele>
        <time>2011-06-26T06:29:08Z</time>
      </trkpt>
      <trkpt lat="50.42405" lon="3.46973">
        <ele>6.461</ele>
        <time>2011-06-26T06:29:10Z</time>
      </trkpt>
      <trkpt lat="50.424" lon="3.46993">
        <ele>6.23</ele>
        <time>2011-06-26T06:29:15Z</time>
      </trkpt>
      <trkpt lat="50.42395" lon="3.47015">
        <ele>6.527</ele>
        <time>2011-06-26T06:29:19Z</time>
      </trkpt>
      <trkpt lat="50.42386" lon="3.47045">
        <ele>6.923</ele>
        <time>2011-06-26T06:29:24Z</time>
      </trkpt>
      <trkpt lat="50.42381" lon="3.47068">
        <ele>6.888</ele>
        <time>2011-06-26T06:29:27Z</time>
      </trkpt>
      <trkpt lat="50.42377" lon="3.47083">
        <ele>7.251</ele>
        <time>2011-06-26T06:29:29Z</time>
      </trkpt>
      <trkpt lat="50.4237" lon="3.47108">
        <ele>7.454</ele>
        <time>2011-06-26T06:29:32Z</time>
      </trkpt>
      <trkpt lat="50.42359" lon="3.47157">
        <ele>7.324</ele>
        <time>2011-06-26T06:29:38Z</time>
      </trkpt>
      <trkpt lat="50.42348" lon="3.4721">
        <ele>7.563</ele>
        <time>2011-06-26T06:29:45Z</time>
      </trkpt>
      <trkpt lat="50.42335" lon="3.47268">
        <ele>7.395</ele>
        <time>2011-06-26T06:29:52Z</time>
      </trkpt>
      <trkpt lat="50.4233" lon="3.4729">
        <ele>7.328</ele>
        <time>2011-06-26T06:29:56Z</time>
      </trkpt>
      <trkpt lat="50.42323" lon="3.47324">
        <ele>7.969</ele>
        <time>2011-06-26T06:30:01Z</time>
      </trkpt>
      <trkpt lat="50.42312" lon="3.47371">
        <ele>9.18</ele>
        <time>2011-06-26T06:30:08Z</time>
      </trkpt>
      <trkpt lat="50.42308" lon="3.47393">
        <ele>9.356</ele>
        <time>2011-06-26T06:30:11Z</time>
      </trkpt>
      <trkpt lat="50.42304" lon="3.47408">
        <ele>9.408</ele>
        <time>2011-06-26T06:30:13Z</time>
      </trkpt>
      <trkpt lat="50.42299" lon="3.47437">
        <ele>9.495</ele>
        <time>2011-06-26T06:30:17Z</time>
      </trkpt>
      <trkpt lat="50.4229" lon="3.47466">
        <ele>9.257</ele>
        <time>2011-06-26T06:30:22Z</time>
      </trkpt>
      <trkpt lat="50.42296" lon="3.47494">
        <ele>9.6</ele>
        <time>2011-06-26T06:30:27Z</time>
      </trkpt>
      <trkpt lat="50.423" lon="3.47533">
        <ele>9.674</ele>
        <time>2011-06-26T06:30:32Z</time>
      </trkpt>
      <trkpt lat="50.42303" lon="3.47557">
        <ele>9.194</ele>
        <time>2011-06-26T06:30:36Z</time>
      </trkpt>
      <trkpt lat="50.42308" lon="3.4757">
        <ele>8.946</ele>
        <time>2011-06-26T06:30:40Z</time>
      </trkpt>
      <trkpt lat="50.42313" lon="3.4759">
        <ele>9.276</ele>
        <time>2011-06-26T06:30:45Z</time>
      </trkpt>
      <trkpt lat="50.42318" lon="3.47612">
        <ele>8.889</ele>
        <time>2011-06-26T06:30:50Z</time>
      </trkpt>
      <trkpt lat="50.42326" lon="3.47636">
        <ele>8.948</ele>
        <time>2011-06-26T06:30:55Z</time>
      </trkpt>
      <trkpt lat="50.42332" lon="3.47645">
        <ele>8.924</ele>
        <time>2011-06-26T06:30:57Z</time>
      </trkpt>
      <trkpt lat="50.42351" lon="3.47662">
        <ele>8.794</ele>
        <time>2011-06-26T06:31:01Z</time>
      </trkpt>
      <trkpt lat="50.42364" lon="3.47675">
        <ele>8.15</ele>
        <time>2011-06-26T06:31:04Z</time>
      </trkpt>
      <trkpt lat="50.42379" lon="3.47687">
        <ele>7.706</ele>
        <time>2011-06-26T06:31:07Z</time>
      </trkpt>
      <trkpt lat="50.424" lon="3.47712">
        <ele>7.207</ele>
        <time>2011-06-26T06:31:13Z</time>
      </trkpt>
      <trkpt lat="50.42409" lon="3.47725">
        <ele>7.035</ele>
        <time>2011-06-26T06:31:17Z</time>
      </trkpt>
      <trkpt lat="50.42415" lon="3.47735">
        <ele>7.109</ele>
        <time>2011-06-26T06:31:19Z</time>
      </trkpt>
      <trkpt lat="50.42434" lon="3.47769">
        <ele>7.128</ele>
        <time>2011-06-26T06:31:25Z</time>
      </trkpt>
      <trkpt lat="50.4244" lon="3.47777">
        <ele>7.102</ele>
        <time>2011-06-26T06:31:27Z</time>
      </trkpt>
      <trkpt lat="50.42449" lon="3.47798">
        <ele>6.948</ele>
        <time>2011-06-26T06:31:31Z</time>
      </trkpt>
      <trkpt lat="50.42459" lon="3.47811">
        <ele>6.788</ele>
        <time>2011-06-26T06:31:34Z</time>
      </trkpt>
      <trkpt lat="50.42481" lon="3.4783">
        <ele>6.897</ele>
        <time>2011-06-26T06:31:39Z</time>
      </trkpt>
      <trkpt lat="50.42491" lon="3.47839">
        <ele>6.851</ele>
        <time>2011-06-26T06:31:42Z</time>
      </trkpt>
      <trkpt lat="50.42505" lon="3.47858">
        <ele>6.488</ele>
        <time>2011-06-26T06:31:47Z</time>
      </trkpt>
      <trkpt lat="50.4252" lon="3.47874">
        <ele>6.535</ele>
        <time>2011-06-26T06:31:51Z</time>
      </trkpt>
      <trkpt lat="50.42545" lon="3.47884">
        <ele>6.721</ele>
        <time>2011-06-26T06:31:56Z</time>
      </trkpt>
      <trkpt lat="50.42569" lon="3.47891">
        <ele>7.029</ele>
        <time>2011-06-26T06:32:01Z</time>
      </trkpt>
      <trkpt lat="50.42572" lon="3.4791">
        <ele>7.138</ele>
        <time>2011-06-26T06:32:05Z</time>
      </trkpt>
      <trkpt lat="50.4257" lon="3.47915">
        <ele>7.145</ele>
        <time>2011-06-26T06:32:06Z</time>
      </trkpt>
      <trkpt lat="50.4256" lon="3.47956">
        <ele>7.669</ele>
        <time>2011-06-26T06:32:12Z</time>
      </trkpt>
      <trkpt lat="50.42559" lon="3.47997">
        <ele>7.925</ele>
        <time>2011-06-26T06:32:18Z</time>
      </trkpt>
      <trkpt lat="50.42561" lon="3.48024">
        <ele>7.737</ele>
        <time>2011-06-26T06:32:23Z</time>
      </trkpt>
      <trkpt lat="50.42558" lon="3.48037">
        <ele>7.508</ele>
        <time>2011-06-26T06:32:27Z</time>
      </trkpt>
      <trkpt lat="50.42557" lon="3.4804">
        <ele>7.623</ele>
        <time>2011-06-26T06:32:28Z</time>
      </trkpt>
      <trkpt lat="50.4255" lon="3.48045">
        <ele>7.549</ele>
        <time>2011-06-26T06:32:33Z</time>
      </trkpt>
      <trkpt lat="50.42547" lon="3.48063">
        <ele>7.813</ele>
        <time>2011-06-26T06:32:37Z</time>
      </trkpt>
      <trkpt lat="50.42545" lon="3.48067">
        <ele>7.815</ele>
        <time>2011-06-26T06:32:38Z</time>
      </trkpt>
      <trkpt lat="50.42535" lon="3.48087">
        <ele>7.762</ele>
        <time>2011-06-26T06:32:43Z</time>
      </trkpt>
      <trkpt lat="50.42528" lon="3.48106">
        <ele>7.674</ele>
        <time>2011-06-26T06:32:48Z</time>
      </trkpt>
      <trkpt lat="50.42522" lon="3.48125">
        <ele>7.734</ele>
        <time>2011-06-26T06:32:53Z</time>
      </trkpt>
      <trkpt lat="50.42513" lon="3.48151">
        <ele>7.634</ele>
        <time>2011-06-26T06:32:58Z</time>
      </trkpt>
      <trkpt lat="50.42503" lon="3.48184">
        <ele>7.683</ele>
        <time>2011-06-26T06:33:04Z</time>
      </trkpt>
      <trkpt lat="50.42503" lon="3.48195">
        <ele>7.941</ele>
        <time>2011-06-26T06:33:06Z</time>
      </trkpt>
      <trkpt lat="50.42517" lon="3.48193">
        <ele>7.806</ele>
        <time>2011-06-26T06:33:10Z</time>
      </trkpt>
      <trkpt lat="50.42529" lon="3.48194">
        <ele>7.881</ele>
        <time>2011-06-26T06:33:13Z</time>
      </trkpt>
      <trkpt lat="50.42539" lon="3.48208">
        <ele>7.699</ele>
        <time>2011-06-26T06:33:17Z</time>
      </trkpt>
      <trkpt lat="50.42542" lon="3.48215">
        <ele>7.629</ele>
        <time>2011-06-26T06:33:19Z</time>
      </trkpt>
      <trkpt lat="50.42542" lon="3.48231">
        <ele>7.986</ele>
        <time>2011-06-26T06:33:22Z</time>
      </trkpt>
      <trkpt lat="50.42544" lon="3.48263">
        <ele>8.189</ele>
        <time>2011-06-26T06:33:26Z</time>
      </trkpt>
      <trkpt lat="50.42543" lon="3.48305">
        <ele>7.999</ele>
        <time>2011-06-26T06:33:31Z</time>
      </trkpt>
      <trkpt lat="50.42541" lon="3.48322">
        <ele>7.982</ele>
        <time>2011-06-26T06:33:33Z</time>
      </trkpt>
      <trkpt lat="50.42526" lon="3.48366">
        <ele>7.967</ele>
        <time>2011-06-26T06:33:39Z</time>
      </trkpt>
      <trkpt lat="50.42513" lon="3.48408">
        <ele>8.445</ele>
        <time>2011-06-26T06:33:45Z</time>
      </trkpt>
      <trkpt lat="50.42512" lon="3.48415">
        <ele>8.587</ele>
        <time>2011-06-26T06:33:46Z</time>
      </trkpt>
      <trkpt lat="50.42509" lon="3.4843">
        <ele>8.757</ele>
        <time>2011-06-26T06:33:48Z</time>
      </trkpt>
      <trkpt lat="50.42507" lon="3.4846">
        <ele>9.437</ele>
        <time>2011-06-26T06:33:52Z</time>
      </trkpt>
      <trkpt lat="50.42505" lon="3.48497">
        <ele>9.277</ele>
        <time>2011-06-26T06:33:57Z</time>
      </trkpt>
      <trkpt lat="50.42494" lon="3.48544">
        <ele>9.854</ele>
        <time>2011-06-26T06:34:04Z</time>
      </trkpt>
      <trkpt lat="50.42483" lon="3.48584">
        <ele>10.352</ele>
        <time>2011-06-26T06:34:10Z</time>
      </trkpt>
      <trkpt lat="50.42466" lon="3.48627">
        <ele>10.751</ele>
        <time>2011-06-26T06:34:17Z</time>
      </trkpt>
      <trkpt lat="50.4246" lon="3.4866">
        <ele>11.252</ele>
        <time>2011-06-26T06:34:22Z</time>
      </trkpt>
      <trkpt lat="50.42463" lon="3.48675">
        <ele>11.101</ele>
        <time>2011-06-26T06:34:24Z</time>
      </trkpt>
      <trkpt lat="50.42471" lon="3.48702">
        <ele>10.608</ele>
        <time>2011-06-26T06:34:28Z</time>
      </trkpt>
      <trkpt lat="50.42484" lon="3.48755">
        <ele>10.634</ele>
        <time>2011-06-26T06:34:35Z</time>
      </trkpt>
      <trkpt lat="50.42482" lon="3.48788">
        <ele>9.929</ele>
        <time>2011-06-26T06:34:40Z</time>
      </trkpt>
      <trkpt lat="50.42475" lon="3.488">
        <ele>9.823</ele>
        <time>2011-06-26T06:34:42Z</time>
      </trkpt>
      <trkpt lat="50.4246" lon="3.48837">
        <ele>10.136</ele>
        <time>2011-06-26T06:34:48Z</time>
      </trkpt>
      <trkpt lat="50.42445" lon="3.48878">
        <ele>10.054</ele>
        <time>2011-06-26T06:34:54Z</time>
      </trkpt>
      <trkpt lat="50.42438" lon="3.48891">
        <ele>9.927</ele>
        <time>2011-06-26T06:34:56Z</time>
      </trkpt>
      <trkpt lat="50.42427" lon="3.48925">
        <ele>9.838</ele>
        <time>2011-06-26T06:35:01Z</time>
      </trkpt>
      <trkpt lat="50.42412" lon="3.48946">
        <ele>9.492</ele>
        <time>2011-06-26T06:35:05Z</time>
      </trkpt>
      <trkpt lat="50.42388" lon="3.48983">
        <ele>10.167</ele>
        <time>2011-06-26T06:35:12Z</time>
      </trkpt>
      <trkpt lat="50.42373" lon="3.49017">
        <ele>10.273</ele>
        <time>2011-06-26T06:35:17Z</time>
      </trkpt>
      <trkpt lat="50.42351" lon="3.49041">
        <ele>9.856</ele>
        <time>2011-06-26T06:35:22Z</time>
      </trkpt>
      <trkpt lat="50.42331" lon="3.49062">
        <ele>10.56</ele>
        <time>2011-06-26T06:35:27Z</time>
      </trkpt>
      <trkpt lat="50.42312" lon="3.49088">
        <ele>10.431</ele>
        <time>2011-06-26T06:35:32Z</time>
      </trkpt>
      <trkpt lat="50.42302" lon="3.49107">
        <ele>10.504</ele>
        <time>2011-06-26T06:35:35Z</time>
      </trkpt>
      <trkpt lat="50.42285" lon="3.49143">
        <ele>10.662</ele>
        <time>2011-06-26T06:35:41Z</time>
      </trkpt>
      <trkpt lat="50.42268" lon="3.49182">
        <ele>11.086</ele>
        <time>2011-06-26T06:35:47Z</time>
      </trkpt>
      <trkpt lat="50.42266" lon="3.49188">
        <ele>11.072</ele>
        <time>2011-06-26T06:35:48Z</time>
      </trkpt>
      <trkpt lat="50.42251" lon="3.49221">
        <ele>11.036</ele>
        <time>2011-06-26T06:35:53Z</time>
      </trkpt>
      <trkpt lat="50.42244" lon="3.49242">
        <ele>11.145</ele>
        <time>2011-06-26T06:35:57Z</time>
      </trkpt>
      <trkpt lat="50.42253" lon="3.4926">
        <ele>11.305</ele>
        <time>2011-06-26T06:36:01Z</time>
      </trkpt>
      <trkpt lat="50.42261" lon="3.4927">
        <ele>11.315</ele>
        <time>2011-06-26T06:36:03Z</time>
      </trkpt>
      <trkpt lat="50.42273" lon="3.49284">
        <ele>10.989</ele>
        <time>2011-06-26T06:36:06Z</time>
      </trkpt>
      <trkpt lat="50.42294" lon="3.49308">
        <ele>10.955</ele>
        <time>2011-06-26T06:36:11Z</time>
      </trkpt>
      <trkpt lat="50.42301" lon="3.49318">
        <ele>10.99</ele>
        <time>2011-06-26T06:36:13Z</time>
      </trkpt>
      <trkpt lat="50.42317" lon="3.49337">
        <ele>11.16</ele>
        <time>2011-06-26T06:36:17Z</time>
      </trkpt>
      <trkpt lat="50.42321" lon="3.49359">
        <ele>11.699</ele>
        <time>2011-06-26T06:36:21Z</time>
      </trkpt>
      <trkpt lat="50.4232" lon="3.49365">
        <ele>11.826</ele>
        <time>2011-06-26T06:36:22Z</time>
      </trkpt>
      <trkpt lat="50.42314" lon="3.49396">
        <ele>11.773</ele>
        <time>2011-06-26T06:36:26Z</time>
      </trkpt>
      <trkpt lat="50.42307" lon="3.49452">
        <ele>12.142</ele>
        <time>2011-06-26T06:36:33Z</time>
      </trkpt>
      <trkpt lat="50.42305" lon="3.49467">
        <ele>12.269</ele>
        <time>2011-06-26T06:36:35Z</time>
      </trkpt>
      <trkpt lat="50.42299" lon="3.49514">
        <ele>12.47</ele>
        <time>2011-06-26T06:36:41Z</time>
      </trkpt>
      <trkpt lat="50.42296" lon="3.49545">
        <ele>12.308</ele>
        <time>2011-06-26T06:36:45Z</time>
      </trkpt>
      <trkpt lat="50.42284" lon="3.49604">
        <ele>12.292</ele>
        <time>2011-06-26T06:36:53Z</time>
      </trkpt>
      <trkpt lat="50.42273" lon="3.49648">
        <ele>12.389</ele>
        <time>2011-06-26T06:36:59Z</time>
      </trkpt>
      <trkpt lat="50.4227" lon="3.49671">
        <ele>12.375</ele>
        <time>2011-06-26T06:37:02Z</time>
      </trkpt>
      <trkpt lat="50.4227" lon="3.49716">
        <ele>12.525</ele>
        <time>2011-06-26T06:37:08Z</time>
      </trkpt>
      <trkpt lat="50.42273" lon="3.49761">
        <ele>12.589</ele>
        <time>2011-06-26T06:37:14Z</time>
      </trkpt>
      <trkpt lat="50.42273" lon="3.49794">
        <ele>12.779</ele>
        <time>2011-06-26T06:37:18Z</time>
      </trkpt>
      <trkpt lat="50.42277" lon="3.49824">
        <ele>12.605</ele>
        <time>2011-06-26T06:37:22Z</time>
      </trkpt>
      <trkpt lat="50.42288" lon="3.49839">
        <ele>12.623</ele>
        <time>2011-06-26T06:37:26Z</time>
      </trkpt>
      <trkpt lat="50.42291" lon="3.49838">
        <ele>12.625</ele>
        <time>2011-06-26T06:37:27Z</time>
      </trkpt>
      <trkpt lat="50.42309" lon="3.4983">
        <ele>12.934</ele>
        <time>2011-06-26T06:37:32Z</time>
      </trkpt>
      <trkpt lat="50.42347" lon="3.49812">
        <ele>13.161</ele>
        <time>2011-06-26T06:37:40Z</time>
      </trkpt>
      <trkpt lat="50.42372" lon="3.498">
        <ele>13.238</ele>
        <time>2011-06-26T06:37:45Z</time>
      </trkpt>
      <trkpt lat="50.42382" lon="3.49797">
        <ele>13.354</ele>
        <time>2011-06-26T06:37:47Z</time>
      </trkpt>
      <trkpt lat="50.42428" lon="3.49777">
        <ele>13.464</ele>
        <time>2011-06-26T06:37:56Z</time>
      </trkpt>
      <trkpt lat="50.42463" lon="3.49761">
        <ele>13.045</ele>
        <time>2011-06-26T06:38:03Z</time>
      </trkpt>
      <trkpt lat="50.42491" lon="3.49747">
        <ele>12.882</ele>
        <time>2011-06-26T06:38:09Z</time>
      </trkpt>
      <trkpt lat="50.4253" lon="3.49729">
        <ele>12.757</ele>
        <time>2011-06-26T06:38:17Z</time>
      </trkpt>
      <trkpt lat="50.4257" lon="3.4971">
        <ele>12.646</ele>
        <time>2011-06-26T06:38:25Z</time>
      </trkpt>
      <trkpt lat="50.42599" lon="3.49698">
        <ele>12.96</ele>
        <time>2011-06-26T06:38:31Z</time>
      </trkpt>
      <trkpt lat="50.42624" lon="3.49687">
        <ele>12.852</ele>
        <time>2011-06-26T06:38:36Z</time>
      </trkpt>
      <trkpt lat="50.42654" lon="3.49673">
        <ele>12.705</ele>
        <time>2011-06-26T06:38:42Z</time>
      </trkpt>
      <trkpt lat="50.42683" lon="3.4966">
        <ele>12.742</ele>
        <time>2011-06-26T06:38:48Z</time>
      </trkpt>
      <trkpt lat="50.4272" lon="3.49644">
        <ele>12.651</ele>
        <time>2011-06-26T06:38:55Z</time>
      </trkpt>
      <trkpt lat="50.42755" lon="3.49628">
        <ele>12.766</ele>
        <time>2011-06-26T06:39:02Z</time>
      </trkpt>
      <trkpt lat="50.42767" lon="3.49624">
        <ele>12.401</ele>
        <time>2011-06-26T06:39:05Z</time>
      </trkpt>
      <trkpt lat="50.42777" lon="3.49643">
        <ele>12.231</ele>
        <time>2011-06-26T06:39:10Z</time>
      </trkpt>
      <trkpt lat="50.42778" lon="3.49649">
        <ele>12.244</ele>
        <time>2011-06-26T06:39:11Z</time>
      </trkpt>
      <trkpt lat="50.42788" lon="3.49718">
        <ele>12.628</ele>
        <time>2011-06-26T06:39:20Z</time>
      </trkpt>
      <trkpt lat="50.42801" lon="3.4979">
        <ele>12.956</ele>
        <time>2011-06-26T06:39:29Z</time>
      </trkpt>
      <trkpt lat="50.42814" lon="3.49872">
        <ele>13.216</ele>
        <time>2011-06-26T06:39:39Z</time>
      </trkpt>
      <trkpt lat="50.42825" lon="3.49947">
        <ele>13.726</ele>
        <time>2011-06-26T06:39:48Z</time>
      </trkpt>
      <trkpt lat="50.42835" lon="3.50017">
        <ele>13.879</ele>
        <time>2011-06-26T06:39:56Z</time>
      </trkpt>
      <trkpt lat="50.42845" lon="3.50087">
        <ele>13.945</ele>
        <time>2011-06-26T06:40:04Z</time>
      </trkpt>
      <trkpt lat="50.42854" lon="3.50142">
        <ele>14.029</ele>
        <time>2011-06-26T06:40:11Z</time>
      </trkpt>
      <trkpt lat="50.42864" lon="3.50146">
        <ele>13.626</ele>
        <time>2011-06-26T06:40:15Z</time>
      </trkpt>
      <trkpt lat="50.42867" lon="3.50144">
        <ele>13.483</ele>
        <time>2011-06-26T06:40:16Z</time>
      </trkpt>
      <trkpt lat="50.42882" lon="3.50134">
        <ele>12.941</ele>
        <time>2011-06-26T06:40:21Z</time>
      </trkpt>
      <trkpt lat="50.42899" lon="3.50128">
        <ele>12.792</ele>
        <time>2011-06-26T06:40:26Z</time>
      </trkpt>
      <trkpt lat="50.42906" lon="3.50124">
        <ele>12.752</ele>
        <time>2011-06-26T06:40:29Z</time>
      </trkpt>
      <trkpt lat="50.42913" lon="3.50122">
        <ele>12.712</ele>
        <time>2011-06-26T06:40:33Z</time>
      </trkpt>
      <trkpt lat="50.42923" lon="3.50117">
        <ele>12.497</ele>
        <time>2011-06-26T06:40:37Z</time>
      </trkpt>
      <trkpt lat="50.42931" lon="3.50115">
        <ele>12.623</ele>
        <time>2011-06-26T06:40:41Z</time>
      </trkpt>
      <trkpt lat="50.42948" lon="3.50108">
        <ele>12.54</ele>
        <time>2011-06-26T06:40:48Z</time>
      </trkpt>
      <trkpt lat="50.42962" lon="3.50099">
        <ele>12.487</ele>
        <time>2011-06-26T06:40:53Z</time>
      </trkpt>
      <trkpt lat="50.42971" lon="3.50094">
        <ele>12.38</ele>
        <time>2011-06-26T06:40:57Z</time>
      </trkpt>
      <trkpt lat="50.4298" lon="3.5009">
        <ele>12.59</ele>
        <time>2011-06-26T06:41:01Z</time>
      </trkpt>
      <trkpt lat="50.4299" lon="3.50088">
        <ele>12.53</ele>
        <time>2011-06-26T06:41:05Z</time>
      </trkpt>
      <trkpt lat="50.43004" lon="3.50083">
        <ele>12.665</ele>
        <time>2011-06-26T06:41:10Z</time>
      </trkpt>
      <trkpt lat="50.43015" lon="3.50079">
        <ele>12.686</ele>
        <time>2011-06-26T06:41:15Z</time>
      </trkpt>
      <trkpt lat="50.43027" lon="3.50076">
        <ele>12.713</ele>
        <time>2011-06-26T06:41:21Z</time>
      </trkpt>
      <trkpt lat="50.43041" lon="3.50071">
        <ele>12.648</ele>
        <time>2011-06-26T06:41:27Z</time>
      </trkpt>
      <trkpt lat="50.43055" lon="3.50068">
        <ele>12.617</ele>
        <time>2011-06-26T06:41:33Z</time>
      </trkpt>
      <trkpt lat="50.43061" lon="3.50066">
        <ele>12.684</ele>
        <time>2011-06-26T06:41:38Z</time>
      </trkpt>
      <trkpt lat="50.43066" lon="3.50063">
        <ele>12.755</ele>
        <time>2011-06-26T06:41:42Z</time>
      </trkpt>
      <trkpt lat="50.43083" lon="3.50055">
        <ele>12.919</ele>
        <time>2011-06-26T06:41:48Z</time>
      </trkpt>
      <trkpt lat="50.4311" lon="3.50043">
        <ele>13.166</ele>
        <time>2011-06-26T06:41:56Z</time>
      </trkpt>
      <trkpt lat="50.43132" lon="3.5004">
        <ele>13</ele>
        <time>2011-06-26T06:42:03Z</time>
      </trkpt>
      <trkpt lat="50.43148" lon="3.50036">
        <ele>13.175</ele>
        <time>2011-06-26T06:42:08Z</time>
      </trkpt>
      <trkpt lat="50.4318" lon="3.50022">
        <ele>12.832</ele>
        <time>2011-06-26T06:42:16Z</time>
      </trkpt>
      <trkpt lat="50.43213" lon="3.50015">
        <ele>12.549</ele>
        <time>2011-06-26T06:42:24Z</time>
      </trkpt>
      <trkpt lat="50.43232" lon="3.50016">
        <ele>12.104</ele>
        <time>2011-06-26T06:42:30Z</time>
      </trkpt>
      <trkpt lat="50.43237" lon="3.50036">
        <ele>12.21</ele>
        <time>2011-06-26T06:42:35Z</time>
      </trkpt>
      <trkpt lat="50.43238" lon="3.50073">
        <ele>12.847</ele>
        <time>2011-06-26T06:42:41Z</time>
      </trkpt>
      <trkpt lat="50.4324" lon="3.50114">
        <ele>12.71</ele>
        <time>2011-06-26T06:42:48Z</time>
      </trkpt>
      <trkpt lat="50.43245" lon="3.50146">
        <ele>12.736</ele>
        <time>2011-06-26T06:42:54Z</time>
      </trkpt>
      <trkpt lat="50.43255" lon="3.50167">
        <ele>12.641</ele>
        <time>2011-06-26T06:42:58Z</time>
      </trkpt>
      <trkpt lat="50.4328" lon="3.50196">
        <ele>13.03</ele>
        <time>2011-06-26T06:43:05Z</time>
      </trkpt>
      <trkpt lat="50.43284" lon="3.502">
        <ele>13.034</ele>
        <time>2011-06-26T06:43:06Z</time>
      </trkpt>
      <trkpt lat="50.43293" lon="3.50208">
        <ele>13.118</ele>
        <time>2011-06-26T06:43:08Z</time>
      </trkpt>
      <trkpt lat="50.43328" lon="3.50223">
        <ele>13.26</ele>
        <time>2011-06-26T06:43:15Z</time>
      </trkpt>
      <trkpt lat="50.43352" lon="3.50233">
        <ele>13.633</ele>
        <time>2011-06-26T06:43:20Z</time>
      </trkpt>
      <trkpt lat="50.43383" lon="3.50247">
        <ele>13.399</ele>
        <time>2011-06-26T06:43:26Z</time>
      </trkpt>
      <trkpt lat="50.43432" lon="3.50268">
        <ele>13.936</ele>
        <time>2011-06-26T06:43:35Z</time>
      </trkpt>
      <trkpt lat="50.43481" lon="3.5029">
        <ele>13.956</ele>
        <time>2011-06-26T06:43:44Z</time>
      </trkpt>
      <trkpt lat="50.43523" lon="3.50308">
        <ele>14</ele>
        <time>2011-06-26T06:43:52Z</time>
      </trkpt>
      <trkpt lat="50.43574" lon="3.50331">
        <ele>13.695</ele>
        <time>2011-06-26T06:44:02Z</time>
      </trkpt>
      <trkpt lat="50.43616" lon="3.50349">
        <ele>13.913</ele>
        <time>2011-06-26T06:44:10Z</time>
      </trkpt>
      <trkpt lat="50.43642" lon="3.50362">
        <ele>14.075</ele>
        <time>2011-06-26T06:44:15Z</time>
      </trkpt>
      <trkpt lat="50.43683" lon="3.50378">
        <ele>14.161</ele>
        <time>2011-06-26T06:44:23Z</time>
      </trkpt>
      <trkpt lat="50.43724" lon="3.50395">
        <ele>14.3</ele>
        <time>2011-06-26T06:44:31Z</time>
      </trkpt>
      <trkpt lat="50.43728" lon="3.50397">
        <ele>14.209</ele>
        <time>2011-06-26T06:44:32Z</time>
      </trkpt>
      <trkpt lat="50.43727" lon="3.50414">
        <ele>14.036</ele>
        <time>2011-06-26T06:44:36Z</time>
      </trkpt>
      <trkpt lat="50.43719" lon="3.50422">
        <ele>14.038</ele>
        <time>2011-06-26T06:44:38Z</time>
      </trkpt>
      <trkpt lat="50.43678" lon="3.50458">
        <ele>13.926</ele>
        <time>2011-06-26T06:44:47Z</time>
      </trkpt>
      <trkpt lat="50.43665" lon="3.50473">
        <ele>13.829</ele>
        <time>2011-06-26T06:44:50Z</time>
      </trkpt>
      <trkpt lat="50.43642" lon="3.50514">
        <ele>13.803</ele>
        <time>2011-06-26T06:44:56Z</time>
      </trkpt>
      <trkpt lat="50.43637" lon="3.50529">
        <ele>13.761</ele>
        <time>2011-06-26T06:44:58Z</time>
      </trkpt>
      <trkpt lat="50.4363" lon="3.50554">
        <ele>13.756</ele>
        <time>2011-06-26T06:45:01Z</time>
      </trkpt>
      <trkpt lat="50.43612" lon="3.50589">
        <ele>13.743</ele>
        <time>2011-06-26T06:45:06Z</time>
      </trkpt>
      <trkpt lat="50.43605" lon="3.50617">
        <ele>13.742</ele>
        <time>2011-06-26T06:45:10Z</time>
      </trkpt>
      <trkpt lat="50.43615" lon="3.5064">
        <ele>13.818</ele>
        <time>2011-06-26T06:45:14Z</time>
      </trkpt>
      <trkpt lat="50.43618" lon="3.50642">
        <ele>13.822</ele>
        <time>2011-06-26T06:45:15Z</time>
      </trkpt>
      <trkpt lat="50.43625" lon="3.50644">
        <ele>13.872</ele>
        <time>2011-06-26T06:45:17Z</time>
      </trkpt>
      <trkpt lat="50.43645" lon="3.50665">
        <ele>14.204</ele>
        <time>2011-06-26T06:45:22Z</time>
      </trkpt>
      <trkpt lat="50.43649" lon="3.50666">
        <ele>14.201</ele>
        <time>2011-06-26T06:45:23Z</time>
      </trkpt>
      <trkpt lat="50.43678" lon="3.50679">
        <ele>14.627</ele>
        <time>2011-06-26T06:45:29Z</time>
      </trkpt>
      <trkpt lat="50.43701" lon="3.507">
        <ele>13.974</ele>
        <time>2011-06-26T06:45:34Z</time>
      </trkpt>
      <trkpt lat="50.43704" lon="3.50708">
        <ele>13.811</ele>
        <time>2011-06-26T06:45:35Z</time>
      </trkpt>
      <trkpt lat="50.43725" lon="3.50764">
        <ele>14.422</ele>
        <time>2011-06-26T06:45:43Z</time>
      </trkpt>
      <trkpt lat="50.43744" lon="3.50808">
        <ele>14.918</ele>
        <time>2011-06-26T06:45:49Z</time>
      </trkpt>
      <trkpt lat="50.4376" lon="3.50853">
        <ele>15.093</ele>
        <time>2011-06-26T06:45:55Z</time>
      </trkpt>
      <trkpt lat="50.4377" lon="3.50885">
        <ele>15.712</ele>
        <time>2011-06-26T06:45:59Z</time>
      </trkpt>
      <trkpt lat="50.43788" lon="3.5093">
        <ele>15.542</ele>
        <time>2011-06-26T06:46:05Z</time>
      </trkpt>
      <trkpt lat="50.43795" lon="3.50945">
        <ele>15.73</ele>
        <time>2011-06-26T06:46:07Z</time>
      </trkpt>
      <trkpt lat="50.43811" lon="3.5099">
        <ele>16.282</ele>
        <time>2011-06-26T06:46:13Z</time>
      </trkpt>
      <trkpt lat="50.43816" lon="3.51004">
        <ele>16.154</ele>
        <time>2011-06-26T06:46:15Z</time>
      </trkpt>
      <trkpt lat="50.4382" lon="3.51041">
        <ele>16.176</ele>
        <time>2011-06-26T06:46:20Z</time>
      </trkpt>
      <trkpt lat="50.43822" lon="3.51056">
        <ele>16.252</ele>
        <time>2011-06-26T06:46:22Z</time>
      </trkpt>
      <trkpt lat="50.43833" lon="3.51109">
        <ele>17.033</ele>
        <time>2011-06-26T06:46:29Z</time>
      </trkpt>
      <trkpt lat="50.43842" lon="3.51142">
        <ele>17.458</ele>
        <time>2011-06-26T06:46:34Z</time>
      </trkpt>
      <trkpt lat="50.43854" lon="3.51176">
        <ele>17.962</ele>
        <time>2011-06-26T06:46:39Z</time>
      </trkpt>
      <trkpt lat="50.43863" lon="3.51212">
        <ele>19.046</ele>
        <time>2011-06-26T06:46:45Z</time>
      </trkpt>
      <trkpt lat="50.43869" lon="3.51247">
        <ele>21.035</ele>
        <time>2011-06-26T06:46:51Z</time>
      </trkpt>
      <trkpt lat="50.43878" lon="3.51266">
        <ele>22.082</ele>
        <time>2011-06-26T06:46:56Z</time>
      </trkpt>
      <trkpt lat="50.4389" lon="3.5129">
        <ele>24.921</ele>
        <time>2011-06-26T06:47:03Z</time>
      </trkpt>
      <trkpt lat="50.43896" lon="3.51298">
        <ele>26.003</ele>
        <time>2011-06-26T06:47:06Z</time>
      </trkpt>
      <trkpt lat="50.43901" lon="3.5132">
        <ele>26.991</ele>
        <time>2011-06-26T06:47:11Z</time>
      </trkpt>
      <trkpt lat="50.43905" lon="3.51349">
        <ele>27.974</ele>
        <time>2011-06-26T06:47:17Z</time>
      </trkpt>
      <trkpt lat="50.43914" lon="3.51378">
        <ele>28.235</ele>
        <time>2011-06-26T06:47:23Z</time>
      </trkpt>
      <trkpt lat="50.43925" lon="3.51405">
        <ele>27.559</ele>
        <time>2011-06-26T06:47:28Z</time>
      </trkpt>
      <trkpt lat="50.43932" lon="3.51429">
        <ele>26.525</ele>
        <time>2011-06-26T06:47:31Z</time>
      </trkpt>
      <trkpt lat="50.43943" lon="3.51454">
        <ele>25.564</ele>
        <time>2011-06-26T06:47:34Z</time>
      </trkpt>
      <trkpt lat="50.43961" lon="3.51488">
        <ele>24.086</ele>
        <time>2011-06-26T06:47:39Z</time>
      </trkpt>
      <trkpt lat="50.4397" lon="3.51505">
        <ele>24.035</ele>
        <time>2011-06-26T06:47:43Z</time>
      </trkpt>
      <trkpt lat="50.43973" lon="3.51533">
        <ele>24.122</ele>
        <time>2011-06-26T06:47:48Z</time>
      </trkpt>
      <trkpt lat="50.4398" lon="3.51572">
        <ele>25.391</ele>
        <time>2011-06-26T06:47:55Z</time>
      </trkpt>
      <trkpt lat="50.43985" lon="3.51599">
        <ele>26.984</ele>
        <time>2011-06-26T06:48:01Z</time>
      </trkpt>
      <trkpt lat="50.43987" lon="3.51623">
        <ele>28.477</ele>
        <time>2011-06-26T06:48:06Z</time>
      </trkpt>
      <trkpt lat="50.43991" lon="3.51653">
        <ele>28.831</ele>
        <time>2011-06-26T06:48:11Z</time>
      </trkpt>
      <trkpt lat="50.43997" lon="3.51693">
        <ele>28.621</ele>
        <time>2011-06-26T06:48:17Z</time>
      </trkpt>
      <trkpt lat="50.44006" lon="3.51726">
        <ele>29.1</ele>
        <time>2011-06-26T06:48:23Z</time>
      </trkpt>
      <trkpt lat="50.44017" lon="3.51761">
        <ele>29.458</ele>
        <time>2011-06-26T06:48:29Z</time>
      </trkpt>
      <trkpt lat="50.44022" lon="3.5178">
        <ele>29.239</ele>
        <time>2011-06-26T06:48:32Z</time>
      </trkpt>
      <trkpt lat="50.44031" lon="3.51809">
        <ele>29.115</ele>
        <time>2011-06-26T06:48:37Z</time>
      </trkpt>
      <trkpt lat="50.44033" lon="3.51827">
        <ele>29.315</ele>
        <time>2011-06-26T06:48:40Z</time>
      </trkpt>
      <trkpt lat="50.4404" lon="3.51867">
        <ele>29.485</ele>
        <time>2011-06-26T06:48:46Z</time>
      </trkpt>
      <trkpt lat="50.44042" lon="3.51878">
        <ele>29.309</ele>
        <time>2011-06-26T06:48:48Z</time>
      </trkpt>
      <trkpt lat="50.44043" lon="3.5191">
        <ele>29.268</ele>
        <time>2011-06-26T06:48:53Z</time>
      </trkpt>
      <trkpt lat="50.4405" lon="3.51934">
        <ele>29.634</ele>
        <time>2011-06-26T06:48:57Z</time>
      </trkpt>
      <trkpt lat="50.44064" lon="3.51981">
        <ele>30.58</ele>
        <time>2011-06-26T06:49:04Z</time>
      </trkpt>
      <trkpt lat="50.44074" lon="3.52022">
        <ele>31.522</ele>
        <time>2011-06-26T06:49:10Z</time>
      </trkpt>
      <trkpt lat="50.44087" lon="3.52064">
        <ele>31.874</ele>
        <time>2011-06-26T06:49:17Z</time>
      </trkpt>
      <trkpt lat="50.44091" lon="3.52099">
        <ele>31.915</ele>
        <time>2011-06-26T06:49:23Z</time>
      </trkpt>
      <trkpt lat="50.44087" lon="3.52107">
        <ele>32.198</ele>
        <time>2011-06-26T06:49:25Z</time>
      </trkpt>
      <trkpt lat="50.4408" lon="3.52115">
        <ele>32.286</ele>
        <time>2011-06-26T06:49:27Z</time>
      </trkpt>
      <trkpt lat="50.44065" lon="3.52141">
        <ele>32.434</ele>
        <time>2011-06-26T06:49:32Z</time>
      </trkpt>
      <trkpt lat="50.44055" lon="3.52159">
        <ele>32.638</ele>
        <time>2011-06-26T06:49:36Z</time>
      </trkpt>
      <trkpt lat="50.44048" lon="3.52169">
        <ele>32.805</ele>
        <time>2011-06-26T06:49:38Z</time>
      </trkpt>
      <trkpt lat="50.44031" lon="3.52192">
        <ele>32.607</ele>
        <time>2011-06-26T06:49:43Z</time>
      </trkpt>
      <trkpt lat="50.44021" lon="3.52208">
        <ele>32.289</ele>
        <time>2011-06-26T06:49:46Z</time>
      </trkpt>
      <trkpt lat="50.44006" lon="3.52225">
        <ele>31.999</ele>
        <time>2011-06-26T06:49:50Z</time>
      </trkpt>
      <trkpt lat="50.43985" lon="3.52258">
        <ele>31.088</ele>
        <time>2011-06-26T06:49:56Z</time>
      </trkpt>
      <trkpt lat="50.43981" lon="3.52263">
        <ele>31.025</ele>
        <time>2011-06-26T06:49:57Z</time>
      </trkpt>
      <trkpt lat="50.43955" lon="3.523">
        <ele>30.318</ele>
        <time>2011-06-26T06:50:04Z</time>
      </trkpt>
      <trkpt lat="50.43951" lon="3.52305">
        <ele>30.248</ele>
        <time>2011-06-26T06:50:05Z</time>
      </trkpt>
      <trkpt lat="50.43927" lon="3.52341">
        <ele>29.517</ele>
        <time>2011-06-26T06:50:13Z</time>
      </trkpt>
      <trkpt lat="50.43924" lon="3.52345">
        <ele>29.35</ele>
        <time>2011-06-26T06:50:15Z</time>
      </trkpt>
      <trkpt lat="50.43915" lon="3.52352">
        <ele>29.21</ele>
        <time>2011-06-26T06:50:19Z</time>
      </trkpt>
      <trkpt lat="50.43901" lon="3.52372">
        <ele>28.917</ele>
        <time>2011-06-26T06:50:25Z</time>
      </trkpt>
      <trkpt lat="50.43882" lon="3.52396">
        <ele>28.955</ele>
        <time>2011-06-26T06:50:31Z</time>
      </trkpt>
      <trkpt lat="50.43875" lon="3.52405">
        <ele>29.054</ele>
        <time>2011-06-26T06:50:33Z</time>
      </trkpt>
      <trkpt lat="50.43858" lon="3.52436">
        <ele>28.942</ele>
        <time>2011-06-26T06:50:39Z</time>
      </trkpt>
      <trkpt lat="50.43844" lon="3.52457">
        <ele>28.548</ele>
        <time>2011-06-26T06:50:44Z</time>
      </trkpt>
      <trkpt lat="50.43833" lon="3.52476">
        <ele>28.615</ele>
        <time>2011-06-26T06:50:49Z</time>
      </trkpt>
      <trkpt lat="50.4382" lon="3.52492">
        <ele>27.893</ele>
        <time>2011-06-26T06:50:54Z</time>
      </trkpt>
      <trkpt lat="50.43807" lon="3.52509">
        <ele>28.129</ele>
        <time>2011-06-26T06:50:59Z</time>
      </trkpt>
      <trkpt lat="50.43798" lon="3.52523">
        <ele>27.821</ele>
        <time>2011-06-26T06:51:04Z</time>
      </trkpt>
      <trkpt lat="50.43788" lon="3.52536">
        <ele>27.46</ele>
        <time>2011-06-26T06:51:08Z</time>
      </trkpt>
      <trkpt lat="50.43778" lon="3.52551">
        <ele>27.448</ele>
        <time>2011-06-26T06:51:13Z</time>
      </trkpt>
      <trkpt lat="50.43768" lon="3.52566">
        <ele>27.409</ele>
        <time>2011-06-26T06:51:19Z</time>
      </trkpt>
      <trkpt lat="50.43751" lon="3.5259">
        <ele>27.74</ele>
        <time>2011-06-26T06:51:25Z</time>
      </trkpt>
      <trkpt lat="50.43744" lon="3.52599">
        <ele>27.754</ele>
        <time>2011-06-26T06:51:27Z</time>
      </trkpt>
      <trkpt lat="50.4372" lon="3.52633">
        <ele>27.44</ele>
        <time>2011-06-26T06:51:34Z</time>
      </trkpt>
      <trkpt lat="50.43706" lon="3.52654">
        <ele>26.752</ele>
        <time>2011-06-26T06:51:39Z</time>
      </trkpt>
      <trkpt lat="50.43696" lon="3.52666">
        <ele>26.204</ele>
        <time>2011-06-26T06:51:44Z</time>
      </trkpt>
      <trkpt lat="50.43683" lon="3.52682">
        <ele>26.061</ele>
        <time>2011-06-26T06:51:50Z</time>
      </trkpt>
      <trkpt lat="50.43666" lon="3.52703">
        <ele>26.394</ele>
        <time>2011-06-26T06:51:56Z</time>
      </trkpt>
      <trkpt lat="50.43649" lon="3.52728">
        <ele>26.275</ele>
        <time>2011-06-26T06:52:03Z</time>
      </trkpt>
      <trkpt lat="50.43638" lon="3.52747">
        <ele>25.769</ele>
        <time>2011-06-26T06:52:09Z</time>
      </trkpt>
      <trkpt lat="50.43626" lon="3.52759">
        <ele>26.041</ele>
        <time>2011-06-26T06:52:14Z</time>
      </trkpt>
      <trkpt lat="50.43618" lon="3.52768">
        <ele>26.167</ele>
        <time>2011-06-26T06:52:17Z</time>
      </trkpt>
      <trkpt lat="50.43608" lon="3.52779">
        <ele>26.329</ele>
        <time>2011-06-26T06:52:22Z</time>
      </trkpt>
      <trkpt lat="50.436" lon="3.52792">
        <ele>26.164</ele>
        <time>2011-06-26T06:52:27Z</time>
      </trkpt>
      <trkpt lat="50.43598" lon="3.52796">
        <ele>26.112</ele>
        <time>2011-06-26T06:52:29Z</time>
      </trkpt>
      <trkpt lat="50.43582" lon="3.52819">
        <ele>26.885</ele>
        <time>2011-06-26T06:52:36Z</time>
      </trkpt>
      <trkpt lat="50.43565" lon="3.52846">
        <ele>27.741</ele>
        <time>2011-06-26T06:52:43Z</time>
      </trkpt>
      <trkpt lat="50.43552" lon="3.52862">
        <ele>27.999</ele>
        <time>2011-06-26T06:52:48Z</time>
      </trkpt>
      <trkpt lat="50.43535" lon="3.52879">
        <ele>28.178</ele>
        <time>2011-06-26T06:52:54Z</time>
      </trkpt>
      <trkpt lat="50.43522" lon="3.52894">
        <ele>28.131</ele>
        <time>2011-06-26T06:52:59Z</time>
      </trkpt>
      <trkpt lat="50.43509" lon="3.52915">
        <ele>28.434</ele>
        <time>2011-06-26T06:53:04Z</time>
      </trkpt>
      <trkpt lat="50.43496" lon="3.52935">
        <ele>28.84</ele>
        <time>2011-06-26T06:53:09Z</time>
      </trkpt>
      <trkpt lat="50.4348" lon="3.52958">
        <ele>28.516</ele>
        <time>2011-06-26T06:53:15Z</time>
      </trkpt>
      <trkpt lat="50.43467" lon="3.52978">
        <ele>28.933</ele>
        <time>2011-06-26T06:53:21Z</time>
      </trkpt>
      <trkpt lat="50.43454" lon="3.52996">
        <ele>29.083</ele>
        <time>2011-06-26T06:53:26Z</time>
      </trkpt>
      <trkpt lat="50.43434" lon="3.53023">
        <ele>28.874</ele>
        <time>2011-06-26T06:53:33Z</time>
      </trkpt>
      <trkpt lat="50.43431" lon="3.53029">
        <ele>28.546</ele>
        <time>2011-06-26T06:53:36Z</time>
      </trkpt>
      <trkpt lat="50.4342" lon="3.53043">
        <ele>28.719</ele>
        <time>2011-06-26T06:53:42Z</time>
      </trkpt>
      <trkpt lat="50.43396" lon="3.53071">
        <ele>28.736</ele>
        <time>2011-06-26T06:53:50Z</time>
      </trkpt>
      <trkpt lat="50.43387" lon="3.53082">
        <ele>28.829</ele>
        <time>2011-06-26T06:53:53Z</time>
      </trkpt>
      <trkpt lat="50.43375" lon="3.53079">
        <ele>28.529</ele>
        <time>2011-06-26T06:53:57Z</time>
      </trkpt>
      <trkpt lat="50.43348" lon="3.5304">
        <ele>28.508</ele>
        <time>2011-06-26T06:54:05Z</time>
      </trkpt>
      <trkpt lat="50.43317" lon="3.52994">
        <ele>28.309</ele>
        <time>2011-06-26T06:54:13Z</time>
      </trkpt>
      <trkpt lat="50.43288" lon="3.52949">
        <ele>28.558</ele>
        <time>2011-06-26T06:54:21Z</time>
      </trkpt>
      <trkpt lat="50.43267" lon="3.52919">
        <ele>28.751</ele>
        <time>2011-06-26T06:54:27Z</time>
      </trkpt>
      <trkpt lat="50.43252" lon="3.52898">
        <ele>28.842</ele>
        <time>2011-06-26T06:54:31Z</time>
      </trkpt>
      <trkpt lat="50.4323" lon="3.52869">
        <ele>28.947</ele>
        <time>2011-06-26T06:54:38Z</time>
      </trkpt>
      <trkpt lat="50.43229" lon="3.52868">
        <ele>28.769</ele>
        <time>2011-06-26T06:54:41Z</time>
      </trkpt>
      <trkpt lat="50.43226" lon="3.52863">
        <ele>29.163</ele>
        <time>2011-06-26T06:54:54Z</time>
      </trkpt>
      <trkpt lat="50.43223" lon="3.52856">
        <ele>29.235</ele>
        <time>2011-06-26T06:54:56Z</time>
      </trkpt>
      <trkpt lat="50.43195" lon="3.52814">
        <ele>29.548</ele>
        <time>2011-06-26T06:55:04Z</time>
      </trkpt>
      <trkpt lat="50.43165" lon="3.5277">
        <ele>29.611</ele>
        <time>2011-06-26T06:55:12Z</time>
      </trkpt>
      <trkpt lat="50.43142" lon="3.52737">
        <ele>29.774</ele>
        <time>2011-06-26T06:55:18Z</time>
      </trkpt>
      <trkpt lat="50.43111" lon="3.52693">
        <ele>29.855</ele>
        <time>2011-06-26T06:55:26Z</time>
      </trkpt>
      <trkpt lat="50.43092" lon="3.52665">
        <ele>29.887</ele>
        <time>2011-06-26T06:55:31Z</time>
      </trkpt>
      <trkpt lat="50.43064" lon="3.52624">
        <ele>30.274</ele>
        <time>2011-06-26T06:55:38Z</time>
      </trkpt>
      <trkpt lat="50.43045" lon="3.52596">
        <ele>30.015</ele>
        <time>2011-06-26T06:55:43Z</time>
      </trkpt>
      <trkpt lat="50.43023" lon="3.52561">
        <ele>30.237</ele>
        <time>2011-06-26T06:55:49Z</time>
      </trkpt>
      <trkpt lat="50.42998" lon="3.52523">
        <ele>30.681</ele>
        <time>2011-06-26T06:55:56Z</time>
      </trkpt>
      <trkpt lat="50.42979" lon="3.52496">
        <ele>30.461</ele>
        <time>2011-06-26T06:56:01Z</time>
      </trkpt>
      <trkpt lat="50.42968" lon="3.52482">
        <ele>30.547</ele>
        <time>2011-06-26T06:56:04Z</time>
      </trkpt>
      <trkpt lat="50.42936" lon="3.52437">
        <ele>30.348</ele>
        <time>2011-06-26T06:56:12Z</time>
      </trkpt>
      <trkpt lat="50.42907" lon="3.52393">
        <ele>30.566</ele>
        <time>2011-06-26T06:56:20Z</time>
      </trkpt>
      <trkpt lat="50.42881" lon="3.52354">
        <ele>30.584</ele>
        <time>2011-06-26T06:56:27Z</time>
      </trkpt>
      <trkpt lat="50.42865" lon="3.52333">
        <ele>30.132</ele>
        <time>2011-06-26T06:56:31Z</time>
      </trkpt>
      <trkpt lat="50.42834" lon="3.52293">
        <ele>29.486</ele>
        <time>2011-06-26T06:56:38Z</time>
      </trkpt>
      <trkpt lat="50.42796" lon="3.52239">
        <ele>28.271</ele>
        <time>2011-06-26T06:56:46Z</time>
      </trkpt>
      <trkpt lat="50.42763" lon="3.52191">
        <ele>27.325</ele>
        <time>2011-06-26T06:56:53Z</time>
      </trkpt>
      <trkpt lat="50.42737" lon="3.52151">
        <ele>27.063</ele>
        <time>2011-06-26T06:56:59Z</time>
      </trkpt>
      <trkpt lat="50.42707" lon="3.52107">
        <ele>27.485</ele>
        <time>2011-06-26T06:57:07Z</time>
      </trkpt>
      <trkpt lat="50.42689" lon="3.52079">
        <ele>27.522</ele>
        <time>2011-06-26T06:57:12Z</time>
      </trkpt>
      <trkpt lat="50.42687" lon="3.52058">
        <ele>27.196</ele>
        <time>2011-06-26T06:57:16Z</time>
      </trkpt>
      <trkpt lat="50.42688" lon="3.52031">
        <ele>27.179</ele>
        <time>2011-06-26T06:57:21Z</time>
      </trkpt>
      <trkpt lat="50.42688" lon="3.51993">
        <ele>27.686</ele>
        <time>2011-06-26T06:57:27Z</time>
      </trkpt>
      <trkpt lat="50.42688" lon="3.51954">
        <ele>28.367</ele>
        <time>2011-06-26T06:57:33Z</time>
      </trkpt>
      <trkpt lat="50.4269" lon="3.51912">
        <ele>29.257</ele>
        <time>2011-06-26T06:57:40Z</time>
      </trkpt>
      <trkpt lat="50.42689" lon="3.51879">
        <ele>29.671</ele>
        <time>2011-06-26T06:57:45Z</time>
      </trkpt>
      <trkpt lat="50.42687" lon="3.51851">
        <ele>29.836</ele>
        <time>2011-06-26T06:57:49Z</time>
      </trkpt>
      <trkpt lat="50.42686" lon="3.51814">
        <ele>30.147</ele>
        <time>2011-06-26T06:57:55Z</time>
      </trkpt>
      <trkpt lat="50.42687" lon="3.51783">
        <ele>30.502</ele>
        <time>2011-06-26T06:58:00Z</time>
      </trkpt>
      <trkpt lat="50.42688" lon="3.5175">
        <ele>31.077</ele>
        <time>2011-06-26T06:58:06Z</time>
      </trkpt>
      <trkpt lat="50.42687" lon="3.51722">
        <ele>31.321</ele>
        <time>2011-06-26T06:58:11Z</time>
      </trkpt>
      <trkpt lat="50.42687" lon="3.51693">
        <ele>31.305</ele>
        <time>2011-06-26T06:58:16Z</time>
      </trkpt>
      <trkpt lat="50.42689" lon="3.51668">
        <ele>31.392</ele>
        <time>2011-06-26T06:58:21Z</time>
      </trkpt>
      <trkpt lat="50.42687" lon="3.51641">
        <ele>31.669</ele>
        <time>2011-06-26T06:58:26Z</time>
      </trkpt>
      <trkpt lat="50.42684" lon="3.51614">
        <ele>31.394</ele>
        <time>2011-06-26T06:58:31Z</time>
      </trkpt>
      <trkpt lat="50.42673" lon="3.51585">
        <ele>30.924</ele>
        <time>2011-06-26T06:58:37Z</time>
      </trkpt>
      <trkpt lat="50.42663" lon="3.51542">
        <ele>30.788</ele>
        <time>2011-06-26T06:58:44Z</time>
      </trkpt>
      <trkpt lat="50.42661" lon="3.51512">
        <ele>30.681</ele>
        <time>2011-06-26T06:58:49Z</time>
      </trkpt>
      <trkpt lat="50.42659" lon="3.51476">
        <ele>30.572</ele>
        <time>2011-06-26T06:58:55Z</time>
      </trkpt>
      <trkpt lat="50.42651" lon="3.5144">
        <ele>30.433</ele>
        <time>2011-06-26T06:59:01Z</time>
      </trkpt>
      <trkpt lat="50.42645" lon="3.51409">
        <ele>29.907</ele>
        <time>2011-06-26T06:59:07Z</time>
      </trkpt>
      <trkpt lat="50.42638" lon="3.5138">
        <ele>29.764</ele>
        <time>2011-06-26T06:59:12Z</time>
      </trkpt>
      <trkpt lat="50.42632" lon="3.51348">
        <ele>30.003</ele>
        <time>2011-06-26T06:59:18Z</time>
      </trkpt>
      <trkpt lat="50.42627" lon="3.51316">
        <ele>29.94</ele>
        <time>2011-06-26T06:59:23Z</time>
      </trkpt>
      <trkpt lat="50.42623" lon="3.51283">
        <ele>29.425</ele>
        <time>2011-06-26T06:59:28Z</time>
      </trkpt>
      <trkpt lat="50.42624" lon="3.51262">
        <ele>29.145</ele>
        <time>2011-06-26T06:59:32Z</time>
      </trkpt>
      <trkpt lat="50.42626" lon="3.51226">
        <ele>28.978</ele>
        <time>2011-06-26T06:59:38Z</time>
      </trkpt>
      <trkpt lat="50.42628" lon="3.51196">
        <ele>28.632</ele>
        <time>2011-06-26T06:59:43Z</time>
      </trkpt>
      <trkpt lat="50.42629" lon="3.51168">
        <ele>28.584</ele>
        <time>2011-06-26T06:59:47Z</time>
      </trkpt>
      <trkpt lat="50.42634" lon="3.51129">
        <ele>27.697</ele>
        <time>2011-06-26T06:59:53Z</time>
      </trkpt>
      <trkpt lat="50.42638" lon="3.51091">
        <ele>27.349</ele>
        <time>2011-06-26T07:00:00Z</time>
      </trkpt>
      <trkpt lat="50.42635" lon="3.5108">
        <ele>27.042</ele>
        <time>2011-06-26T07:00:03Z</time>
      </trkpt>
      <trkpt lat="50.42622" lon="3.51077">
        <ele>26.963</ele>
        <time>2011-06-26T07:00:07Z</time>
      </trkpt>
      <trkpt lat="50.42614" lon="3.51079">
        <ele>26.912</ele>
        <time>2011-06-26T07:00:09Z</time>
      </trkpt>
      <trkpt lat="50.42595" lon="3.51085">
        <ele>26.412</ele>
        <time>2011-06-26T07:00:15Z</time>
      </trkpt>
      <trkpt lat="50.42574" lon="3.51092">
        <ele>26.541</ele>
        <time>2011-06-26T07:00:21Z</time>
      </trkpt>
      <trkpt lat="50.42552" lon="3.51101">
        <ele>26.268</ele>
        <time>2011-06-26T07:00:27Z</time>
      </trkpt>
      <trkpt lat="50.42532" lon="3.5111">
        <ele>26.266</ele>
        <time>2011-06-26T07:00:33Z</time>
      </trkpt>
      <trkpt lat="50.4252" lon="3.51115">
        <ele>25.797</ele>
        <time>2011-06-26T07:00:38Z</time>
      </trkpt>
      <trkpt lat="50.42495" lon="3.51126">
        <ele>25.392</ele>
        <time>2011-06-26T07:00:46Z</time>
      </trkpt>
      <trkpt lat="50.42478" lon="3.51133">
        <ele>24.983</ele>
        <time>2011-06-26T07:00:52Z</time>
      </trkpt>
      <trkpt lat="50.42449" lon="3.51144">
        <ele>24.371</ele>
        <time>2011-06-26T07:01:01Z</time>
      </trkpt>
      <trkpt lat="50.42431" lon="3.51152">
        <ele>24.061</ele>
        <time>2011-06-26T07:01:07Z</time>
      </trkpt>
      <trkpt lat="50.42408" lon="3.51162">
        <ele>24.134</ele>
        <time>2011-06-26T07:01:15Z</time>
      </trkpt>
      <trkpt lat="50.42388" lon="3.51172">
        <ele>24.104</ele>
        <time>2011-06-26T07:01:21Z</time>
      </trkpt>
      <trkpt lat="50.42367" lon="3.5118">
        <ele>23.577</ele>
        <time>2011-06-26T07:01:27Z</time>
      </trkpt>
      <trkpt lat="50.4234" lon="3.5119">
        <ele>22.946</ele>
        <time>2011-06-26T07:01:34Z</time>
      </trkpt>
      <trkpt lat="50.42323" lon="3.51193">
        <ele>22.578</ele>
        <time>2011-06-26T07:01:39Z</time>
      </trkpt>
      <trkpt lat="50.42309" lon="3.51201">
        <ele>22.493</ele>
        <time>2011-06-26T07:01:43Z</time>
      </trkpt>
      <trkpt lat="50.42295" lon="3.5121">
        <ele>22.118</ele>
        <time>2011-06-26T07:01:46Z</time>
      </trkpt>
      <trkpt lat="50.42253" lon="3.51228">
        <ele>21.869</ele>
        <time>2011-06-26T07:01:54Z</time>
      </trkpt>
      <trkpt lat="50.42223" lon="3.51241">
        <ele>21.281</ele>
        <time>2011-06-26T07:02:00Z</time>
      </trkpt>
      <trkpt lat="50.42218" lon="3.51243">
        <ele>21.191</ele>
        <time>2011-06-26T07:02:01Z</time>
      </trkpt>
      <trkpt lat="50.42188" lon="3.51253">
        <ele>20.942</ele>
        <time>2011-06-26T07:02:07Z</time>
      </trkpt>
      <trkpt lat="50.42167" lon="3.51261">
        <ele>20.666</ele>
        <time>2011-06-26T07:02:11Z</time>
      </trkpt>
      <trkpt lat="50.42156" lon="3.51267">
        <ele>20.665</ele>
        <time>2011-06-26T07:02:13Z</time>
      </trkpt>
      <trkpt lat="50.42113" lon="3.51285">
        <ele>20.364</ele>
        <time>2011-06-26T07:02:21Z</time>
      </trkpt>
      <trkpt lat="50.42083" lon="3.51298">
        <ele>19.938</ele>
        <time>2011-06-26T07:02:27Z</time>
      </trkpt>
      <trkpt lat="50.42066" lon="3.51305">
        <ele>19.603</ele>
        <time>2011-06-26T07:02:32Z</time>
      </trkpt>
      <trkpt lat="50.42048" lon="3.51312">
        <ele>19.573</ele>
        <time>2011-06-26T07:02:38Z</time>
      </trkpt>
      <trkpt lat="50.42031" lon="3.5132">
        <ele>19.87</ele>
        <time>2011-06-26T07:02:43Z</time>
      </trkpt>
      <trkpt lat="50.42006" lon="3.51331">
        <ele>19.9</ele>
        <time>2011-06-26T07:02:49Z</time>
      </trkpt>
      <trkpt lat="50.41989" lon="3.51337">
        <ele>19.902</ele>
        <time>2011-06-26T07:02:53Z</time>
      </trkpt>
      <trkpt lat="50.41939" lon="3.51359">
        <ele>20.152</ele>
        <time>2011-06-26T07:03:04Z</time>
      </trkpt>
      <trkpt lat="50.41915" lon="3.51368">
        <ele>20.249</ele>
        <time>2011-06-26T07:03:09Z</time>
      </trkpt>
      <trkpt lat="50.41877" lon="3.51385">
        <ele>20.737</ele>
        <time>2011-06-26T07:03:17Z</time>
      </trkpt>
      <trkpt lat="50.41849" lon="3.51398">
        <ele>20.844</ele>
        <time>2011-06-26T07:03:23Z</time>
      </trkpt>
      <trkpt lat="50.41827" lon="3.51406">
        <ele>20.724</ele>
        <time>2011-06-26T07:03:29Z</time>
      </trkpt>
      <trkpt lat="50.41812" lon="3.5141">
        <ele>20.425</ele>
        <time>2011-06-26T07:03:34Z</time>
      </trkpt>
      <trkpt lat="50.41809" lon="3.51413">
        <ele>20.391</ele>
        <time>2011-06-26T07:03:36Z</time>
      </trkpt>
      <trkpt lat="50.41795" lon="3.51417">
        <ele>20.609</ele>
        <time>2011-06-26T07:03:42Z</time>
      </trkpt>
      <trkpt lat="50.41772" lon="3.51426">
        <ele>20.642</ele>
        <time>2011-06-26T07:03:49Z</time>
      </trkpt>
      <trkpt lat="50.41759" lon="3.51433">
        <ele>20.245</ele>
        <time>2011-06-26T07:03:54Z</time>
      </trkpt>
      <trkpt lat="50.41741" lon="3.5144">
        <ele>21.015</ele>
        <time>2011-06-26T07:04:00Z</time>
      </trkpt>
      <trkpt lat="50.41739" lon="3.51441">
        <ele>21.148</ele>
        <time>2011-06-26T07:04:01Z</time>
      </trkpt>
      <trkpt lat="50.4174" lon="3.51457">
        <ele>21.366</ele>
        <time>2011-06-26T07:04:06Z</time>
      </trkpt>
      <trkpt lat="50.41743" lon="3.51461">
        <ele>21.408</ele>
        <time>2011-06-26T07:04:07Z</time>
      </trkpt>
      <trkpt lat="50.41747" lon="3.51471">
        <ele>21.475</ele>
        <time>2011-06-26T07:04:09Z</time>
      </trkpt>
      <trkpt lat="50.41766" lon="3.51518">
        <ele>21.44</ele>
        <time>2011-06-26T07:04:17Z</time>
      </trkpt>
      <trkpt lat="50.41784" lon="3.51568">
        <ele>21.874</ele>
        <time>2011-06-26T07:04:25Z</time>
      </trkpt>
      <trkpt lat="50.41799" lon="3.51614">
        <ele>21.893</ele>
        <time>2011-06-26T07:04:32Z</time>
      </trkpt>
      <trkpt lat="50.41807" lon="3.51642">
        <ele>22.028</ele>
        <time>2011-06-26T07:04:36Z</time>
      </trkpt>
      <trkpt lat="50.41821" lon="3.51697">
        <ele>22.406</ele>
        <time>2011-06-26T07:04:44Z</time>
      </trkpt>
      <trkpt lat="50.41833" lon="3.51752">
        <ele>22.574</ele>
        <time>2011-06-26T07:04:52Z</time>
      </trkpt>
      <trkpt lat="50.41846" lon="3.51799">
        <ele>22.923</ele>
        <time>2011-06-26T07:04:59Z</time>
      </trkpt>
      <trkpt lat="50.41857" lon="3.51849">
        <ele>22.849</ele>
        <time>2011-06-26T07:05:06Z</time>
      </trkpt>
      <trkpt lat="50.41868" lon="3.51899">
        <ele>22.87</ele>
        <time>2011-06-26T07:05:13Z</time>
      </trkpt>
      <trkpt lat="50.4188" lon="3.51953">
        <ele>22.694</ele>
        <time>2011-06-26T07:05:21Z</time>
      </trkpt>
      <trkpt lat="50.41891" lon="3.52006">
        <ele>22.764</ele>
        <time>2011-06-26T07:05:29Z</time>
      </trkpt>
      <trkpt lat="50.41903" lon="3.52063">
        <ele>22.73</ele>
        <time>2011-06-26T07:05:37Z</time>
      </trkpt>
      <trkpt lat="50.41918" lon="3.52123">
        <ele>22.753</ele>
        <time>2011-06-26T07:05:45Z</time>
      </trkpt>
      <trkpt lat="50.4193" lon="3.52179">
        <ele>22.837</ele>
        <time>2011-06-26T07:05:52Z</time>
      </trkpt>
      <trkpt lat="50.4195" lon="3.52258">
        <ele>22.748</ele>
        <time>2011-06-26T07:06:02Z</time>
      </trkpt>
      <trkpt lat="50.41955" lon="3.52282">
        <ele>22.756</ele>
        <time>2011-06-26T07:06:05Z</time>
      </trkpt>
      <trkpt lat="50.41969" lon="3.52338">
        <ele>22.342</ele>
        <time>2011-06-26T07:06:12Z</time>
      </trkpt>
      <trkpt lat="50.41985" lon="3.52412">
        <ele>22.018</ele>
        <time>2011-06-26T07:06:21Z</time>
      </trkpt>
      <trkpt lat="50.41989" lon="3.52429">
        <ele>21.853</ele>
        <time>2011-06-26T07:06:23Z</time>
      </trkpt>
      <trkpt lat="50.42004" lon="3.52494">
        <ele>21.714</ele>
        <time>2011-06-26T07:06:31Z</time>
      </trkpt>
      <trkpt lat="50.42019" lon="3.52568">
        <ele>21.539</ele>
        <time>2011-06-26T07:06:40Z</time>
      </trkpt>
      <trkpt lat="50.4203" lon="3.52633">
        <ele>21.252</ele>
        <time>2011-06-26T07:06:48Z</time>
      </trkpt>
      <trkpt lat="50.42037" lon="3.52691">
        <ele>21.311</ele>
        <time>2011-06-26T07:06:55Z</time>
      </trkpt>
      <trkpt lat="50.4204" lon="3.52758">
        <ele>21.252</ele>
        <time>2011-06-26T07:07:03Z</time>
      </trkpt>
      <trkpt lat="50.42043" lon="3.52787">
        <ele>21.153</ele>
        <time>2011-06-26T07:07:07Z</time>
      </trkpt>
      <trkpt lat="50.42043" lon="3.52818">
        <ele>21.105</ele>
        <time>2011-06-26T07:07:11Z</time>
      </trkpt>
      <trkpt lat="50.42044" lon="3.52867">
        <ele>21.164</ele>
        <time>2011-06-26T07:07:17Z</time>
      </trkpt>
      <trkpt lat="50.42043" lon="3.52909">
        <ele>21.14</ele>
        <time>2011-06-26T07:07:22Z</time>
      </trkpt>
      <trkpt lat="50.42042" lon="3.52944">
        <ele>21.389</ele>
        <time>2011-06-26T07:07:27Z</time>
      </trkpt>
      <trkpt lat="50.42042" lon="3.52965">
        <ele>21.241</ele>
        <time>2011-06-26T07:07:30Z</time>
      </trkpt>
      <trkpt lat="50.4204" lon="3.52987">
        <ele>21.404</ele>
        <time>2011-06-26T07:07:33Z</time>
      </trkpt>
      <trkpt lat="50.42039" lon="3.53">
        <ele>21.379</ele>
        <time>2011-06-26T07:07:35Z</time>
      </trkpt>
      <trkpt lat="50.42037" lon="3.5303">
        <ele>21.429</ele>
        <time>2011-06-26T07:07:39Z</time>
      </trkpt>
      <trkpt lat="50.4203" lon="3.53084">
        <ele>21.687</ele>
        <time>2011-06-26T07:07:47Z</time>
      </trkpt>
      <trkpt lat="50.42025" lon="3.53114">
        <ele>21.735</ele>
        <time>2011-06-26T07:07:52Z</time>
      </trkpt>
      <trkpt lat="50.42024" lon="3.53119">
        <ele>21.714</ele>
        <time>2011-06-26T07:07:53Z</time>
      </trkpt>
      <trkpt lat="50.42021" lon="3.53134">
        <ele>21.878</ele>
        <time>2011-06-26T07:07:59Z</time>
      </trkpt>
      <trkpt lat="50.4202" lon="3.53138">
        <ele>21.941</ele>
        <time>2011-06-26T07:08:00Z</time>
      </trkpt>
      <trkpt lat="50.42015" lon="3.53163">
        <ele>21.977</ele>
        <time>2011-06-26T07:08:05Z</time>
      </trkpt>
      <trkpt lat="50.42009" lon="3.53192">
        <ele>21.93</ele>
        <time>2011-06-26T07:08:10Z</time>
      </trkpt>
      <trkpt lat="50.42005" lon="3.53227">
        <ele>21.936</ele>
        <time>2011-06-26T07:08:16Z</time>
      </trkpt>
      <trkpt lat="50.42003" lon="3.53242">
        <ele>21.901</ele>
        <time>2011-06-26T07:08:20Z</time>
      </trkpt>
      <trkpt lat="50.41997" lon="3.53273">
        <ele>22.067</ele>
        <time>2011-06-26T07:08:25Z</time>
      </trkpt>
      <trkpt lat="50.41991" lon="3.53307">
        <ele>22.091</ele>
        <time>2011-06-26T07:08:31Z</time>
      </trkpt>
      <trkpt lat="50.41986" lon="3.53335">
        <ele>22.003</ele>
        <time>2011-06-26T07:08:36Z</time>
      </trkpt>
      <trkpt lat="50.41976" lon="3.53377">
        <ele>22.017</ele>
        <time>2011-06-26T07:08:42Z</time>
      </trkpt>
      <trkpt lat="50.41968" lon="3.53415">
        <ele>22.007</ele>
        <time>2011-06-26T07:08:48Z</time>
      </trkpt>
      <trkpt lat="50.4197" lon="3.53432">
        <ele>21.998</ele>
        <time>2011-06-26T07:08:52Z</time>
      </trkpt>
      <trkpt lat="50.41971" lon="3.53439">
        <ele>22.16</ele>
        <time>2011-06-26T07:08:54Z</time>
      </trkpt>
      <trkpt lat="50.41973" lon="3.53438">
        <ele>22.234</ele>
        <time>2011-06-26T07:08:58Z</time>
      </trkpt>
      <trkpt lat="50.41966" lon="3.53431">
        <ele>22.136</ele>
        <time>2011-06-26T07:09:02Z</time>
      </trkpt>
      <trkpt lat="50.41959" lon="3.53433">
        <ele>22.888</ele>
        <time>2011-06-26T07:09:05Z</time>
      </trkpt>
      <trkpt lat="50.41954" lon="3.53433">
        <ele>24.467</ele>
        <time>2011-06-26T07:09:12Z</time>
      </trkpt>
      <trkpt lat="50.41949" lon="3.53434">
        <ele>26.28</ele>
        <time>2011-06-26T07:09:19Z</time>
      </trkpt>
      <trkpt lat="50.41943" lon="3.53436">
        <ele>29.204</ele>
        <time>2011-06-26T07:09:28Z</time>
      </trkpt>
      <trkpt lat="50.41939" lon="3.53437">
        <ele>31.168</ele>
        <time>2011-06-26T07:09:35Z</time>
      </trkpt>
      <trkpt lat="50.41936" lon="3.5344">
        <ele>32.356</ele>
        <time>2011-06-26T07:09:41Z</time>
      </trkpt>
      <trkpt lat="50.41936" lon="3.53447">
        <ele>33.188</ele>
        <time>2011-06-26T07:09:47Z</time>
      </trkpt>
      <trkpt lat="50.41935" lon="3.53469">
        <ele>33.517</ele>
        <time>2011-06-26T07:09:52Z</time>
      </trkpt>
      <trkpt lat="50.41928" lon="3.53504">
        <ele>33.468</ele>
        <time>2011-06-26T07:09:58Z</time>
      </trkpt>
      <trkpt lat="50.41917" lon="3.53551">
        <ele>33.104</ele>
        <time>2011-06-26T07:10:06Z</time>
      </trkpt>
      <trkpt lat="50.41908" lon="3.53592">
        <ele>33.33</ele>
        <time>2011-06-26T07:10:13Z</time>
      </trkpt>
      <trkpt lat="50.41898" lon="3.53638">
        <ele>33.023</ele>
        <time>2011-06-26T07:10:21Z</time>
      </trkpt>
      <trkpt lat="50.41887" lon="3.53687">
        <ele>32.938</ele>
        <time>2011-06-26T07:10:29Z</time>
      </trkpt>
      <trkpt lat="50.41883" lon="3.53709">
        <ele>32.741</ele>
        <time>2011-06-26T07:10:33Z</time>
      </trkpt>
      <trkpt lat="50.41879" lon="3.53727">
        <ele>32.75</ele>
        <time>2011-06-26T07:10:36Z</time>
      </trkpt>
      <trkpt lat="50.41875" lon="3.53746">
        <ele>32.923</ele>
        <time>2011-06-26T07:10:39Z</time>
      </trkpt>
      <trkpt lat="50.41863" lon="3.53797">
        <ele>32.868</ele>
        <time>2011-06-26T07:10:47Z</time>
      </trkpt>
      <trkpt lat="50.41854" lon="3.53835">
        <ele>32.684</ele>
        <time>2011-06-26T07:10:53Z</time>
      </trkpt>
      <trkpt lat="50.41843" lon="3.53865">
        <ele>32.767</ele>
        <time>2011-06-26T07:10:58Z</time>
      </trkpt>
      <trkpt lat="50.41824" lon="3.53917">
        <ele>32.804</ele>
        <time>2011-06-26T07:11:06Z</time>
      </trkpt>
      <trkpt lat="50.41805" lon="3.53968">
        <ele>32.688</ele>
        <time>2011-06-26T07:11:13Z</time>
      </trkpt>
      <trkpt lat="50.4179" lon="3.54012">
        <ele>32.828</ele>
        <time>2011-06-26T07:11:19Z</time>
      </trkpt>
      <trkpt lat="50.41759" lon="3.54097">
        <ele>32.875</ele>
        <time>2011-06-26T07:11:30Z</time>
      </trkpt>
      <trkpt lat="50.41742" lon="3.54139">
        <ele>32.561</ele>
        <time>2011-06-26T07:11:37Z</time>
      </trkpt>
      <trkpt lat="50.41729" lon="3.54176">
        <ele>32.736</ele>
        <time>2011-06-26T07:11:44Z</time>
      </trkpt>
      <trkpt lat="50.41725" lon="3.54191">
        <ele>32.787</ele>
        <time>2011-06-26T07:11:46Z</time>
      </trkpt>
      <trkpt lat="50.41713" lon="3.54227">
        <ele>32.689</ele>
        <time>2011-06-26T07:11:51Z</time>
      </trkpt>
      <trkpt lat="50.41702" lon="3.54256">
        <ele>32.482</ele>
        <time>2011-06-26T07:11:56Z</time>
      </trkpt>
      <trkpt lat="50.41691" lon="3.54282">
        <ele>32.59</ele>
        <time>2011-06-26T07:12:01Z</time>
      </trkpt>
      <trkpt lat="50.41673" lon="3.54286">
        <ele>32.613</ele>
        <time>2011-06-26T07:12:05Z</time>
      </trkpt>
      <trkpt lat="50.41664" lon="3.54285">
        <ele>32.81</ele>
        <time>2011-06-26T07:12:07Z</time>
      </trkpt>
      <trkpt lat="50.4163" lon="3.54281">
        <ele>33.156</ele>
        <time>2011-06-26T07:12:14Z</time>
      </trkpt>
      <trkpt lat="50.41626" lon="3.54277">
        <ele>33.164</ele>
        <time>2011-06-26T07:12:15Z</time>
      </trkpt>
      <trkpt lat="50.41611" lon="3.54257">
        <ele>33.553</ele>
        <time>2011-06-26T07:12:20Z</time>
      </trkpt>
      <trkpt lat="50.416" lon="3.54254">
        <ele>33.95</ele>
        <time>2011-06-26T07:12:24Z</time>
      </trkpt>
      <trkpt lat="50.41599" lon="3.54266">
        <ele>33.808</ele>
        <time>2011-06-26T07:12:27Z</time>
      </trkpt>
      <trkpt lat="50.41602" lon="3.54269">
        <ele>33.63</ele>
        <time>2011-06-26T07:12:28Z</time>
      </trkpt>
      <trkpt lat="50.41626" lon="3.54292">
        <ele>32.247</ele>
        <time>2011-06-26T07:12:33Z</time>
      </trkpt>
      <trkpt lat="50.41676" lon="3.54323">
        <ele>29.423</ele>
        <time>2011-06-26T07:12:40Z</time>
      </trkpt>
      <trkpt lat="50.41705" lon="3.54324">
        <ele>28.915</ele>
        <time>2011-06-26T07:12:44Z</time>
      </trkpt>
      <trkpt lat="50.41711" lon="3.54321">
        <ele>28.698</ele>
        <time>2011-06-26T07:12:45Z</time>
      </trkpt>
      <trkpt lat="50.41722" lon="3.54315">
        <ele>28.421</ele>
        <time>2011-06-26T07:12:47Z</time>
      </trkpt>
      <trkpt lat="50.41739" lon="3.54321">
        <ele>28.024</ele>
        <time>2011-06-26T07:12:51Z</time>
      </trkpt>
      <trkpt lat="50.41746" lon="3.54331">
        <ele>28.291</ele>
        <time>2011-06-26T07:12:53Z</time>
      </trkpt>
      <trkpt lat="50.41763" lon="3.54349">
        <ele>28.608</ele>
        <time>2011-06-26T07:12:57Z</time>
      </trkpt>
      <trkpt lat="50.41797" lon="3.54384">
        <ele>28.725</ele>
        <time>2011-06-26T07:13:04Z</time>
      </trkpt>
      <trkpt lat="50.41812" lon="3.544">
        <ele>28.646</ele>
        <time>2011-06-26T07:13:07Z</time>
      </trkpt>
      <trkpt lat="50.41835" lon="3.54428">
        <ele>28.453</ele>
        <time>2011-06-26T07:13:12Z</time>
      </trkpt>
      <trkpt lat="50.41842" lon="3.54453">
        <ele>28.402</ele>
        <time>2011-06-26T07:13:16Z</time>
      </trkpt>
      <trkpt lat="50.41832" lon="3.54473">
        <ele>28.426</ele>
        <time>2011-06-26T07:13:19Z</time>
      </trkpt>
      <trkpt lat="50.418" lon="3.54519">
        <ele>28.496</ele>
        <time>2011-06-26T07:13:26Z</time>
      </trkpt>
      <trkpt lat="50.41792" lon="3.54533">
        <ele>28.314</ele>
        <time>2011-06-26T07:13:28Z</time>
      </trkpt>
      <trkpt lat="50.41785" lon="3.54547">
        <ele>28.078</ele>
        <time>2011-06-26T07:13:30Z</time>
      </trkpt>
      <trkpt lat="50.41771" lon="3.54575">
        <ele>27.632</ele>
        <time>2011-06-26T07:13:35Z</time>
      </trkpt>
      <trkpt lat="50.4177" lon="3.54586">
        <ele>27.745</ele>
        <time>2011-06-26T07:13:38Z</time>
      </trkpt>
      <trkpt lat="50.41775" lon="3.54598">
        <ele>27.751</ele>
        <time>2011-06-26T07:13:41Z</time>
      </trkpt>
      <trkpt lat="50.41769" lon="3.54623">
        <ele>28.442</ele>
        <time>2011-06-26T07:13:46Z</time>
      </trkpt>
      <trkpt lat="50.4176" lon="3.54661">
        <ele>29.416</ele>
        <time>2011-06-26T07:13:53Z</time>
      </trkpt>
      <trkpt lat="50.41754" lon="3.54688">
        <ele>30.587</ele>
        <time>2011-06-26T07:13:58Z</time>
      </trkpt>
      <trkpt lat="50.41751" lon="3.54712">
        <ele>31.867</ele>
        <time>2011-06-26T07:14:03Z</time>
      </trkpt>
      <trkpt lat="50.41745" lon="3.54742">
        <ele>33.153</ele>
        <time>2011-06-26T07:14:09Z</time>
      </trkpt>
      <trkpt lat="50.41742" lon="3.54771">
        <ele>33.751</ele>
        <time>2011-06-26T07:14:14Z</time>
      </trkpt>
      <trkpt lat="50.41742" lon="3.54797">
        <ele>34.572</ele>
        <time>2011-06-26T07:14:19Z</time>
      </trkpt>
      <trkpt lat="50.41744" lon="3.54821">
        <ele>35.379</ele>
        <time>2011-06-26T07:14:24Z</time>
      </trkpt>
      <trkpt lat="50.41748" lon="3.54848">
        <ele>35.852</ele>
        <time>2011-06-26T07:14:29Z</time>
      </trkpt>
      <trkpt lat="50.41754" lon="3.54882">
        <ele>36.404</ele>
        <time>2011-06-26T07:14:35Z</time>
      </trkpt>
      <trkpt lat="50.41768" lon="3.54911">
        <ele>37.004</ele>
        <time>2011-06-26T07:14:41Z</time>
      </trkpt>
      <trkpt lat="50.41789" lon="3.54941">
        <ele>37.375</ele>
        <time>2011-06-26T07:14:48Z</time>
      </trkpt>
      <trkpt lat="50.41805" lon="3.54962">
        <ele>37.027</ele>
        <time>2011-06-26T07:14:53Z</time>
      </trkpt>
      <trkpt lat="50.41809" lon="3.54967">
        <ele>36.855</ele>
        <time>2011-06-26T07:14:54Z</time>
      </trkpt>
      <trkpt lat="50.41832" lon="3.55009">
        <ele>34.719</ele>
        <time>2011-06-26T07:15:00Z</time>
      </trkpt>
      <trkpt lat="50.41835" lon="3.55016">
        <ele>34.133</ele>
        <time>2011-06-26T07:15:01Z</time>
      </trkpt>
      <trkpt lat="50.41845" lon="3.55038">
        <ele>32.704</ele>
        <time>2011-06-26T07:15:04Z</time>
      </trkpt>
      <trkpt lat="50.41849" lon="3.55046">
        <ele>32.05</ele>
        <time>2011-06-26T07:15:05Z</time>
      </trkpt>
      <trkpt lat="50.41867" lon="3.55089">
        <ele>27.81</ele>
        <time>2011-06-26T07:15:10Z</time>
      </trkpt>
      <trkpt lat="50.41875" lon="3.5511">
        <ele>25.315</ele>
        <time>2011-06-26T07:15:13Z</time>
      </trkpt>
      <trkpt lat="50.41871" lon="3.55129">
        <ele>23.824</ele>
        <time>2011-06-26T07:15:16Z</time>
      </trkpt>
      <trkpt lat="50.41859" lon="3.55138">
        <ele>23.332</ele>
        <time>2011-06-26T07:15:19Z</time>
      </trkpt>
      <trkpt lat="50.41849" lon="3.55127">
        <ele>23.232</ele>
        <time>2011-06-26T07:15:22Z</time>
      </trkpt>
      <trkpt lat="50.41842" lon="3.55117">
        <ele>23.375</ele>
        <time>2011-06-26T07:15:24Z</time>
      </trkpt>
      <trkpt lat="50.41812" lon="3.55098">
        <ele>24.439</ele>
        <time>2011-06-26T07:15:31Z</time>
      </trkpt>
      <trkpt lat="50.41793" lon="3.55092">
        <ele>24.697</ele>
        <time>2011-06-26T07:15:35Z</time>
      </trkpt>
      <trkpt lat="50.41761" lon="3.55095">
        <ele>24.666</ele>
        <time>2011-06-26T07:15:41Z</time>
      </trkpt>
      <trkpt lat="50.41756" lon="3.55096">
        <ele>24.16</ele>
        <time>2011-06-26T07:15:42Z</time>
      </trkpt>
      <trkpt lat="50.41734" lon="3.55091">
        <ele>23.182</ele>
        <time>2011-06-26T07:15:46Z</time>
      </trkpt>
      <trkpt lat="50.41724" lon="3.55084">
        <ele>23.029</ele>
        <time>2011-06-26T07:15:48Z</time>
      </trkpt>
      <trkpt lat="50.41712" lon="3.55071">
        <ele>22.973</ele>
        <time>2011-06-26T07:15:51Z</time>
      </trkpt>
      <trkpt lat="50.41696" lon="3.55053">
        <ele>23.057</ele>
        <time>2011-06-26T07:15:55Z</time>
      </trkpt>
      <trkpt lat="50.41663" lon="3.55023">
        <ele>23.019</ele>
        <time>2011-06-26T07:16:02Z</time>
      </trkpt>
      <trkpt lat="50.41645" lon="3.55002">
        <ele>22.788</ele>
        <time>2011-06-26T07:16:06Z</time>
      </trkpt>
      <trkpt lat="50.41618" lon="3.54959">
        <ele>22.722</ele>
        <time>2011-06-26T07:16:13Z</time>
      </trkpt>
      <trkpt lat="50.41614" lon="3.54953">
        <ele>22.632</ele>
        <time>2011-06-26T07:16:14Z</time>
      </trkpt>
      <trkpt lat="50.41589" lon="3.54934">
        <ele>22.299</ele>
        <time>2011-06-26T07:16:19Z</time>
      </trkpt>
      <trkpt lat="50.41577" lon="3.54935">
        <ele>22.255</ele>
        <time>2011-06-26T07:16:21Z</time>
      </trkpt>
      <trkpt lat="50.41544" lon="3.54945">
        <ele>21.717</ele>
        <time>2011-06-26T07:16:27Z</time>
      </trkpt>
      <trkpt lat="50.41503" lon="3.54938">
        <ele>21.805</ele>
        <time>2011-06-26T07:16:34Z</time>
      </trkpt>
      <trkpt lat="50.41473" lon="3.54926">
        <ele>22.932</ele>
        <time>2011-06-26T07:16:40Z</time>
      </trkpt>
      <trkpt lat="50.41453" lon="3.54905">
        <ele>23.458</ele>
        <time>2011-06-26T07:16:45Z</time>
      </trkpt>
      <trkpt lat="50.41448" lon="3.54874">
        <ele>23.709</ele>
        <time>2011-06-26T07:16:49Z</time>
      </trkpt>
      <trkpt lat="50.41447" lon="3.5483">
        <ele>23.419</ele>
        <time>2011-06-26T07:16:54Z</time>
      </trkpt>
      <trkpt lat="50.41444" lon="3.54789">
        <ele>23.435</ele>
        <time>2011-06-26T07:16:59Z</time>
      </trkpt>
      <trkpt lat="50.41441" lon="3.54775">
        <ele>23.609</ele>
        <time>2011-06-26T07:17:01Z</time>
      </trkpt>
      <trkpt lat="50.41439" lon="3.54761">
        <ele>23.868</ele>
        <time>2011-06-26T07:17:03Z</time>
      </trkpt>
      <trkpt lat="50.41432" lon="3.54728">
        <ele>24.325</ele>
        <time>2011-06-26T07:17:08Z</time>
      </trkpt>
      <trkpt lat="50.41421" lon="3.5466">
        <ele>25.054</ele>
        <time>2011-06-26T07:17:18Z</time>
      </trkpt>
      <trkpt lat="50.41413" lon="3.54605">
        <ele>24.872</ele>
        <time>2011-06-26T07:17:26Z</time>
      </trkpt>
      <trkpt lat="50.41412" lon="3.54565">
        <ele>25.048</ele>
        <time>2011-06-26T07:17:32Z</time>
      </trkpt>
      <trkpt lat="50.41413" lon="3.54537">
        <ele>26.435</ele>
        <time>2011-06-26T07:17:38Z</time>
      </trkpt>
      <trkpt lat="50.4141" lon="3.54516">
        <ele>28.5</ele>
        <time>2011-06-26T07:17:43Z</time>
      </trkpt>
      <trkpt lat="50.41407" lon="3.54487">
        <ele>30.667</ele>
        <time>2011-06-26T07:17:50Z</time>
      </trkpt>
      <trkpt lat="50.41408" lon="3.54463">
        <ele>32.642</ele>
        <time>2011-06-26T07:17:56Z</time>
      </trkpt>
      <trkpt lat="50.41408" lon="3.54439">
        <ele>34.857</ele>
        <time>2011-06-26T07:18:03Z</time>
      </trkpt>
      <trkpt lat="50.41408" lon="3.54421">
        <ele>36.026</ele>
        <time>2011-06-26T07:18:08Z</time>
      </trkpt>
      <trkpt lat="50.41406" lon="3.54399">
        <ele>35.813</ele>
        <time>2011-06-26T07:18:13Z</time>
      </trkpt>
      <trkpt lat="50.41404" lon="3.54377">
        <ele>37</ele>
        <time>2011-06-26T07:18:19Z</time>
      </trkpt>
      <trkpt lat="50.41392" lon="3.54364">
        <ele>37.122</ele>
        <time>2011-06-26T07:18:25Z</time>
      </trkpt>
      <trkpt lat="50.41386" lon="3.54361">
        <ele>37.017</ele>
        <time>2011-06-26T07:18:27Z</time>
      </trkpt>
      <trkpt lat="50.41379" lon="3.5436">
        <ele>36.864</ele>
        <time>2011-06-26T07:18:29Z</time>
      </trkpt>
      <trkpt lat="50.41363" lon="3.54376">
        <ele>36.132</ele>
        <time>2011-06-26T07:18:34Z</time>
      </trkpt>
      <trkpt lat="50.41358" lon="3.544">
        <ele>36.072</ele>
        <time>2011-06-26T07:18:38Z</time>
      </trkpt>
      <trkpt lat="50.41356" lon="3.54413">
        <ele>35.971</ele>
        <time>2011-06-26T07:18:40Z</time>
      </trkpt>
      <trkpt lat="50.41349" lon="3.54438">
        <ele>35.652</ele>
        <time>2011-06-26T07:18:44Z</time>
      </trkpt>
      <trkpt lat="50.41335" lon="3.54473">
        <ele>35.131</ele>
        <time>2011-06-26T07:18:50Z</time>
      </trkpt>
      <trkpt lat="50.41325" lon="3.54492">
        <ele>34.887</ele>
        <time>2011-06-26T07:18:54Z</time>
      </trkpt>
      <trkpt lat="50.41308" lon="3.54521">
        <ele>32.213</ele>
        <time>2011-06-26T07:18:57Z</time>
      </trkpt>
      <trkpt lat="50.41294" lon="3.54539">
        <ele>30.805</ele>
        <time>2011-06-26T07:19:00Z</time>
      </trkpt>
      <trkpt lat="50.41286" lon="3.54544">
        <ele>30.433</ele>
        <time>2011-06-26T07:19:03Z</time>
      </trkpt>
      <trkpt lat="50.41281" lon="3.54548">
        <ele>30.198</ele>
        <time>2011-06-26T07:19:05Z</time>
      </trkpt>
      <trkpt lat="50.41273" lon="3.54555">
        <ele>28.97</ele>
        <time>2011-06-26T07:19:07Z</time>
      </trkpt>
      <trkpt lat="50.4126" lon="3.54573">
        <ele>25.697</ele>
        <time>2011-06-26T07:19:11Z</time>
      </trkpt>
      <trkpt lat="50.41253" lon="3.54568">
        <ele>24.4</ele>
        <time>2011-06-26T07:19:14Z</time>
      </trkpt>
      <trkpt lat="50.41249" lon="3.54561">
        <ele>24.055</ele>
        <time>2011-06-26T07:19:17Z</time>
      </trkpt>
      <trkpt lat="50.41244" lon="3.54557">
        <ele>24.088</ele>
        <time>2011-06-26T07:19:19Z</time>
      </trkpt>
      <trkpt lat="50.41225" lon="3.54533">
        <ele>24.629</ele>
        <time>2011-06-26T07:19:26Z</time>
      </trkpt>
      <trkpt lat="50.41211" lon="3.54497">
        <ele>25.134</ele>
        <time>2011-06-26T07:19:33Z</time>
      </trkpt>
      <trkpt lat="50.41196" lon="3.54452">
        <ele>25.573</ele>
        <time>2011-06-26T07:19:41Z</time>
      </trkpt>
      <trkpt lat="50.41192" lon="3.54434">
        <ele>25.79</ele>
        <time>2011-06-26T07:19:45Z</time>
      </trkpt>
      <trkpt lat="50.41182" lon="3.54423">
        <ele>25.77</ele>
        <time>2011-06-26T07:19:50Z</time>
      </trkpt>
      <trkpt lat="50.4118" lon="3.54421">
        <ele>25.713</ele>
        <time>2011-06-26T07:19:51Z</time>
      </trkpt>
      <trkpt lat="50.4118" lon="3.54412">
        <ele>25.822</ele>
        <time>2011-06-26T07:19:55Z</time>
      </trkpt>
      <trkpt lat="50.41184" lon="3.54397">
        <ele>25.86</ele>
        <time>2011-06-26T07:19:59Z</time>
      </trkpt>
      <trkpt lat="50.41191" lon="3.54367">
        <ele>26.166</ele>
        <time>2011-06-26T07:20:05Z</time>
      </trkpt>
      <trkpt lat="50.41203" lon="3.54351">
        <ele>25.954</ele>
        <time>2011-06-26T07:20:10Z</time>
      </trkpt>
      <trkpt lat="50.41218" lon="3.54332">
        <ele>25.996</ele>
        <time>2011-06-26T07:20:15Z</time>
      </trkpt>
      <trkpt lat="50.41243" lon="3.54303">
        <ele>26.426</ele>
        <time>2011-06-26T07:20:23Z</time>
      </trkpt>
      <trkpt lat="50.41264" lon="3.54278">
        <ele>26.64</ele>
        <time>2011-06-26T07:20:30Z</time>
      </trkpt>
      <trkpt lat="50.41273" lon="3.54263">
        <ele>27.025</ele>
        <time>2011-06-26T07:20:34Z</time>
      </trkpt>
      <trkpt lat="50.41289" lon="3.54252">
        <ele>27.618</ele>
        <time>2011-06-26T07:20:39Z</time>
      </trkpt>
      <trkpt lat="50.41305" lon="3.54229">
        <ele>27.815</ele>
        <time>2011-06-26T07:20:45Z</time>
      </trkpt>
      <trkpt lat="50.41324" lon="3.54207">
        <ele>28.198</ele>
        <time>2011-06-26T07:20:51Z</time>
      </trkpt>
      <trkpt lat="50.41351" lon="3.54177">
        <ele>27.749</ele>
        <time>2011-06-26T07:20:58Z</time>
      </trkpt>
      <trkpt lat="50.41389" lon="3.54134">
        <ele>27.489</ele>
        <time>2011-06-26T07:21:08Z</time>
      </trkpt>
      <trkpt lat="50.41397" lon="3.54125">
        <ele>27.408</ele>
        <time>2011-06-26T07:21:10Z</time>
      </trkpt>
      <trkpt lat="50.41425" lon="3.54091">
        <ele>27.436</ele>
        <time>2011-06-26T07:21:18Z</time>
      </trkpt>
      <trkpt lat="50.41449" lon="3.54065">
        <ele>27.227</ele>
        <time>2011-06-26T07:21:25Z</time>
      </trkpt>
      <trkpt lat="50.41463" lon="3.54044">
        <ele>28.056</ele>
        <time>2011-06-26T07:21:31Z</time>
      </trkpt>
      <trkpt lat="50.41474" lon="3.54031">
        <ele>31.152</ele>
        <time>2011-06-26T07:21:37Z</time>
      </trkpt>
      <trkpt lat="50.41476" lon="3.54009">
        <ele>32.732</ele>
        <time>2011-06-26T07:21:42Z</time>
      </trkpt>
      <trkpt lat="50.41483" lon="3.53962">
        <ele>32.953</ele>
        <time>2011-06-26T07:21:51Z</time>
      </trkpt>
      <trkpt lat="50.41489" lon="3.53922">
        <ele>32.931</ele>
        <time>2011-06-26T07:21:58Z</time>
      </trkpt>
      <trkpt lat="50.41496" lon="3.53883">
        <ele>32.936</ele>
        <time>2011-06-26T07:22:05Z</time>
      </trkpt>
      <trkpt lat="50.41503" lon="3.53838">
        <ele>33.011</ele>
        <time>2011-06-26T07:22:13Z</time>
      </trkpt>
      <trkpt lat="50.415" lon="3.53811">
        <ele>33.169</ele>
        <time>2011-06-26T07:22:18Z</time>
      </trkpt>
      <trkpt lat="50.41488" lon="3.53803">
        <ele>33.371</ele>
        <time>2011-06-26T07:22:22Z</time>
      </trkpt>
      <trkpt lat="50.41465" lon="3.53795">
        <ele>33.13</ele>
        <time>2011-06-26T07:22:28Z</time>
      </trkpt>
      <trkpt lat="50.4145" lon="3.53787">
        <ele>32.691</ele>
        <time>2011-06-26T07:22:32Z</time>
      </trkpt>
      <trkpt lat="50.41439" lon="3.53783">
        <ele>32.96</ele>
        <time>2011-06-26T07:22:35Z</time>
      </trkpt>
      <trkpt lat="50.41422" lon="3.53777">
        <ele>32.869</ele>
        <time>2011-06-26T07:22:39Z</time>
      </trkpt>
      <trkpt lat="50.41402" lon="3.53769">
        <ele>32.922</ele>
        <time>2011-06-26T07:22:44Z</time>
      </trkpt>
      <trkpt lat="50.41394" lon="3.53766">
        <ele>33.092</ele>
        <time>2011-06-26T07:22:46Z</time>
      </trkpt>
      <trkpt lat="50.41386" lon="3.53762">
        <ele>33.246</ele>
        <time>2011-06-26T07:22:48Z</time>
      </trkpt>
      <trkpt lat="50.41367" lon="3.5375">
        <ele>32.735</ele>
        <time>2011-06-26T07:22:53Z</time>
      </trkpt>
      <trkpt lat="50.41367" lon="3.53731">
        <ele>32.619</ele>
        <time>2011-06-26T07:22:56Z</time>
      </trkpt>
      <trkpt lat="50.41368" lon="3.53725">
        <ele>32.697</ele>
        <time>2011-06-26T07:22:57Z</time>
      </trkpt>
      <trkpt lat="50.41375" lon="3.53685">
        <ele>33.152</ele>
        <time>2011-06-26T07:23:04Z</time>
      </trkpt>
      <trkpt lat="50.41379" lon="3.53657">
        <ele>33.338</ele>
        <time>2011-06-26T07:23:09Z</time>
      </trkpt>
      <trkpt lat="50.4138" lon="3.53651">
        <ele>33.456</ele>
        <time>2011-06-26T07:23:10Z</time>
      </trkpt>
      <trkpt lat="50.41384" lon="3.53618">
        <ele>33.038</ele>
        <time>2011-06-26T07:23:15Z</time>
      </trkpt>
      <trkpt lat="50.41385" lon="3.53599">
        <ele>32.843</ele>
        <time>2011-06-26T07:23:18Z</time>
      </trkpt>
      <trkpt lat="50.41391" lon="3.53569">
        <ele>33.143</ele>
        <time>2011-06-26T07:23:23Z</time>
      </trkpt>
      <trkpt lat="50.41396" lon="3.53536">
        <ele>33.236</ele>
        <time>2011-06-26T07:23:28Z</time>
      </trkpt>
      <trkpt lat="50.41408" lon="3.53494">
        <ele>33.058</ele>
        <time>2011-06-26T07:23:35Z</time>
      </trkpt>
      <trkpt lat="50.41412" lon="3.53485">
        <ele>33.226</ele>
        <time>2011-06-26T07:23:37Z</time>
      </trkpt>
      <trkpt lat="50.41423" lon="3.53485">
        <ele>33.586</ele>
        <time>2011-06-26T07:23:41Z</time>
      </trkpt>
      <trkpt lat="50.41429" lon="3.53476">
        <ele>32.79</ele>
        <time>2011-06-26T07:23:44Z</time>
      </trkpt>
      <trkpt lat="50.41425" lon="3.53465">
        <ele>32.453</ele>
        <time>2011-06-26T07:23:47Z</time>
      </trkpt>
      <trkpt lat="50.41424" lon="3.53448">
        <ele>33.657</ele>
        <time>2011-06-26T07:23:52Z</time>
      </trkpt>
      <trkpt lat="50.41425" lon="3.53424">
        <ele>33.802</ele>
        <time>2011-06-26T07:23:57Z</time>
      </trkpt>
      <trkpt lat="50.41429" lon="3.53405">
        <ele>33.902</ele>
        <time>2011-06-26T07:24:01Z</time>
      </trkpt>
      <trkpt lat="50.41436" lon="3.53369">
        <ele>33.909</ele>
        <time>2011-06-26T07:24:07Z</time>
      </trkpt>
      <trkpt lat="50.41445" lon="3.53329">
        <ele>34.027</ele>
        <time>2011-06-26T07:24:14Z</time>
      </trkpt>
      <trkpt lat="50.41452" lon="3.53295">
        <ele>34.004</ele>
        <time>2011-06-26T07:24:20Z</time>
      </trkpt>
      <trkpt lat="50.41464" lon="3.53251">
        <ele>33.747</ele>
        <time>2011-06-26T07:24:27Z</time>
      </trkpt>
      <trkpt lat="50.41475" lon="3.53228">
        <ele>34.121</ele>
        <time>2011-06-26T07:24:32Z</time>
      </trkpt>
      <trkpt lat="50.41484" lon="3.53205">
        <ele>35.474</ele>
        <time>2011-06-26T07:24:37Z</time>
      </trkpt>
      <trkpt lat="50.41494" lon="3.53166">
        <ele>35.951</ele>
        <time>2011-06-26T07:24:44Z</time>
      </trkpt>
      <trkpt lat="50.41507" lon="3.53121">
        <ele>35.874</ele>
        <time>2011-06-26T07:24:52Z</time>
      </trkpt>
      <trkpt lat="50.41514" lon="3.53088">
        <ele>35.705</ele>
        <time>2011-06-26T07:24:58Z</time>
      </trkpt>
      <trkpt lat="50.41521" lon="3.53052">
        <ele>35.627</ele>
        <time>2011-06-26T07:25:04Z</time>
      </trkpt>
      <trkpt lat="50.41531" lon="3.52998">
        <ele>35.703</ele>
        <time>2011-06-26T07:25:12Z</time>
      </trkpt>
      <trkpt lat="50.4154" lon="3.52944">
        <ele>35.626</ele>
        <time>2011-06-26T07:25:20Z</time>
      </trkpt>
      <trkpt lat="50.41545" lon="3.5291">
        <ele>35.528</ele>
        <time>2011-06-26T07:25:26Z</time>
      </trkpt>
      <trkpt lat="50.41542" lon="3.52885">
        <ele>33.117</ele>
        <time>2011-06-26T07:25:30Z</time>
      </trkpt>
      <trkpt lat="50.41537" lon="3.5287">
        <ele>29.678</ele>
        <time>2011-06-26T07:25:33Z</time>
      </trkpt>
      <trkpt lat="50.41531" lon="3.52881">
        <ele>28.653</ele>
        <time>2011-06-26T07:25:36Z</time>
      </trkpt>
      <trkpt lat="50.41529" lon="3.52891">
        <ele>28.584</ele>
        <time>2011-06-26T07:25:38Z</time>
      </trkpt>
      <trkpt lat="50.41522" lon="3.52937">
        <ele>28.905</ele>
        <time>2011-06-26T07:25:45Z</time>
      </trkpt>
      <trkpt lat="50.41521" lon="3.52956">
        <ele>29.144</ele>
        <time>2011-06-26T07:25:48Z</time>
      </trkpt>
      <trkpt lat="50.41513" lon="3.5299">
        <ele>29.264</ele>
        <time>2011-06-26T07:25:53Z</time>
      </trkpt>
      <trkpt lat="50.4151" lon="3.53005">
        <ele>29.289</ele>
        <time>2011-06-26T07:25:55Z</time>
      </trkpt>
      <trkpt lat="50.41497" lon="3.53061">
        <ele>29.546</ele>
        <time>2011-06-26T07:26:03Z</time>
      </trkpt>
      <trkpt lat="50.41486" lon="3.53114">
        <ele>29.592</ele>
        <time>2011-06-26T07:26:10Z</time>
      </trkpt>
      <trkpt lat="50.41467" lon="3.53176">
        <ele>29.296</ele>
        <time>2011-06-26T07:26:18Z</time>
      </trkpt>
      <trkpt lat="50.41449" lon="3.53229">
        <ele>28.943</ele>
        <time>2011-06-26T07:26:25Z</time>
      </trkpt>
      <trkpt lat="50.41442" lon="3.53252">
        <ele>28.998</ele>
        <time>2011-06-26T07:26:28Z</time>
      </trkpt>
      <trkpt lat="50.41428" lon="3.53297">
        <ele>28.861</ele>
        <time>2011-06-26T07:26:34Z</time>
      </trkpt>
      <trkpt lat="50.41423" lon="3.53312">
        <ele>28.917</ele>
        <time>2011-06-26T07:26:36Z</time>
      </trkpt>
      <trkpt lat="50.41413" lon="3.53351">
        <ele>28.755</ele>
        <time>2011-06-26T07:26:41Z</time>
      </trkpt>
      <trkpt lat="50.41398" lon="3.5337">
        <ele>28.301</ele>
        <time>2011-06-26T07:26:45Z</time>
      </trkpt>
      <trkpt lat="50.41383" lon="3.53358">
        <ele>27.755</ele>
        <time>2011-06-26T07:26:48Z</time>
      </trkpt>
      <trkpt lat="50.41361" lon="3.53341">
        <ele>27.414</ele>
        <time>2011-06-26T07:26:52Z</time>
      </trkpt>
      <trkpt lat="50.41344" lon="3.53333">
        <ele>27.151</ele>
        <time>2011-06-26T07:26:55Z</time>
      </trkpt>
      <trkpt lat="50.41318" lon="3.53313">
        <ele>26.643</ele>
        <time>2011-06-26T07:27:00Z</time>
      </trkpt>
      <trkpt lat="50.41309" lon="3.53303">
        <ele>26.745</ele>
        <time>2011-06-26T07:27:02Z</time>
      </trkpt>
      <trkpt lat="50.41289" lon="3.53286">
        <ele>26.611</ele>
        <time>2011-06-26T07:27:06Z</time>
      </trkpt>
      <trkpt lat="50.41269" lon="3.53269">
        <ele>26.578</ele>
        <time>2011-06-26T07:27:10Z</time>
      </trkpt>
      <trkpt lat="50.41256" lon="3.53252">
        <ele>26.561</ele>
        <time>2011-06-26T07:27:13Z</time>
      </trkpt>
      <trkpt lat="50.41225" lon="3.53217">
        <ele>26.347</ele>
        <time>2011-06-26T07:27:20Z</time>
      </trkpt>
      <trkpt lat="50.41213" lon="3.53205">
        <ele>26.531</ele>
        <time>2011-06-26T07:27:23Z</time>
      </trkpt>
      <trkpt lat="50.41201" lon="3.53195">
        <ele>26.974</ele>
        <time>2011-06-26T07:27:26Z</time>
      </trkpt>
      <trkpt lat="50.41189" lon="3.53176">
        <ele>27.03</ele>
        <time>2011-06-26T07:27:30Z</time>
      </trkpt>
      <trkpt lat="50.4119" lon="3.53155">
        <ele>27.173</ele>
        <time>2011-06-26T07:27:33Z</time>
      </trkpt>
      <trkpt lat="50.41193" lon="3.5314">
        <ele>27.312</ele>
        <time>2011-06-26T07:27:35Z</time>
      </trkpt>
      <trkpt lat="50.41195" lon="3.53118">
        <ele>27.367</ele>
        <time>2011-06-26T07:27:38Z</time>
      </trkpt>
      <trkpt lat="50.41199" lon="3.53087">
        <ele>27.627</ele>
        <time>2011-06-26T07:27:42Z</time>
      </trkpt>
      <trkpt lat="50.41204" lon="3.53033">
        <ele>27.809</ele>
        <time>2011-06-26T07:27:49Z</time>
      </trkpt>
      <trkpt lat="50.41206" lon="3.53011">
        <ele>27.854</ele>
        <time>2011-06-26T07:27:52Z</time>
      </trkpt>
      <trkpt lat="50.41219" lon="3.53004">
        <ele>28.087</ele>
        <time>2011-06-26T07:27:56Z</time>
      </trkpt>
      <trkpt lat="50.41233" lon="3.53011">
        <ele>27.889</ele>
        <time>2011-06-26T07:27:59Z</time>
      </trkpt>
      <trkpt lat="50.41256" lon="3.53008">
        <ele>27.669</ele>
        <time>2011-06-26T07:28:04Z</time>
      </trkpt>
      <trkpt lat="50.41264" lon="3.52999">
        <ele>27.732</ele>
        <time>2011-06-26T07:28:06Z</time>
      </trkpt>
      <trkpt lat="50.41294" lon="3.52949">
        <ele>27.902</ele>
        <time>2011-06-26T07:28:15Z</time>
      </trkpt>
      <trkpt lat="50.41316" lon="3.5291">
        <ele>28.001</ele>
        <time>2011-06-26T07:28:22Z</time>
      </trkpt>
      <trkpt lat="50.41341" lon="3.52856">
        <ele>28.41</ele>
        <time>2011-06-26T07:28:31Z</time>
      </trkpt>
      <trkpt lat="50.41349" lon="3.52837">
        <ele>28.51</ele>
        <time>2011-06-26T07:28:34Z</time>
      </trkpt>
      <trkpt lat="50.41354" lon="3.52825">
        <ele>28.526</ele>
        <time>2011-06-26T07:28:36Z</time>
      </trkpt>
      <trkpt lat="50.41372" lon="3.52781">
        <ele>28.979</ele>
        <time>2011-06-26T07:28:44Z</time>
      </trkpt>
      <trkpt lat="50.41385" lon="3.52752">
        <ele>29.026</ele>
        <time>2011-06-26T07:28:50Z</time>
      </trkpt>
      <trkpt lat="50.41393" lon="3.52726">
        <ele>29.009</ele>
        <time>2011-06-26T07:28:55Z</time>
      </trkpt>
      <trkpt lat="50.41402" lon="3.527">
        <ele>29.239</ele>
        <time>2011-06-26T07:29:01Z</time>
      </trkpt>
      <trkpt lat="50.41403" lon="3.52695">
        <ele>29.034</ele>
        <time>2011-06-26T07:29:03Z</time>
      </trkpt>
      <trkpt lat="50.41394" lon="3.5269">
        <ele>29.152</ele>
        <time>2011-06-26T07:29:08Z</time>
      </trkpt>
      <trkpt lat="50.41391" lon="3.5268">
        <ele>29.519</ele>
        <time>2011-06-26T07:29:11Z</time>
      </trkpt>
      <trkpt lat="50.41398" lon="3.52663">
        <ele>30.844</ele>
        <time>2011-06-26T07:29:16Z</time>
      </trkpt>
      <trkpt lat="50.41405" lon="3.52641">
        <ele>31.028</ele>
        <time>2011-06-26T07:29:22Z</time>
      </trkpt>
      <trkpt lat="50.41405" lon="3.52633">
        <ele>30.966</ele>
        <time>2011-06-26T07:29:25Z</time>
      </trkpt>
      <trkpt lat="50.41409" lon="3.52619">
        <ele>31.237</ele>
        <time>2011-06-26T07:29:30Z</time>
      </trkpt>
      <trkpt lat="50.41416" lon="3.52599">
        <ele>32.427</ele>
        <time>2011-06-26T07:29:38Z</time>
      </trkpt>
      <trkpt lat="50.41417" lon="3.52594">
        <ele>33.462</ele>
        <time>2011-06-26T07:29:42Z</time>
      </trkpt>
      <trkpt lat="50.41418" lon="3.52587">
        <ele>34.169</ele>
        <time>2011-06-26T07:29:46Z</time>
      </trkpt>
      <trkpt lat="50.4142" lon="3.52575">
        <ele>35.625</ele>
        <time>2011-06-26T07:29:53Z</time>
      </trkpt>
      <trkpt lat="50.41424" lon="3.52556">
        <ele>38.156</ele>
        <time>2011-06-26T07:30:04Z</time>
      </trkpt>
      <trkpt lat="50.41425" lon="3.52544">
        <ele>39.249</ele>
        <time>2011-06-26T07:30:10Z</time>
      </trkpt>
      <trkpt lat="50.41424" lon="3.52529">
        <ele>40.423</ele>
        <time>2011-06-26T07:30:17Z</time>
      </trkpt>
      <trkpt lat="50.41424" lon="3.52526">
        <ele>40.691</ele>
        <time>2011-06-26T07:30:20Z</time>
      </trkpt>
      <trkpt lat="50.41429" lon="3.52513">
        <ele>41.59</ele>
        <time>2011-06-26T07:30:26Z</time>
      </trkpt>
      <trkpt lat="50.41438" lon="3.52492">
        <ele>43.047</ele>
        <time>2011-06-26T07:30:33Z</time>
      </trkpt>
      <trkpt lat="50.4145" lon="3.52456">
        <ele>44.907</ele>
        <time>2011-06-26T07:30:43Z</time>
      </trkpt>
      <trkpt lat="50.41456" lon="3.52432">
        <ele>46.065</ele>
        <time>2011-06-26T07:30:50Z</time>
      </trkpt>
      <trkpt lat="50.41467" lon="3.52415">
        <ele>47.051</ele>
        <time>2011-06-26T07:30:57Z</time>
      </trkpt>
      <trkpt lat="50.41475" lon="3.52395">
        <ele>48.074</ele>
        <time>2011-06-26T07:31:04Z</time>
      </trkpt>
      <trkpt lat="50.4148" lon="3.52371">
        <ele>49.369</ele>
        <time>2011-06-26T07:31:12Z</time>
      </trkpt>
      <trkpt lat="50.4148" lon="3.52354">
        <ele>50.526</ele>
        <time>2011-06-26T07:31:18Z</time>
      </trkpt>
      <trkpt lat="50.4148" lon="3.52351">
        <ele>50.864</ele>
        <time>2011-06-26T07:31:19Z</time>
      </trkpt>
      <trkpt lat="50.41479" lon="3.52325">
        <ele>52.489</ele>
        <time>2011-06-26T07:31:27Z</time>
      </trkpt>
      <trkpt lat="50.4148" lon="3.52306">
        <ele>53.584</ele>
        <time>2011-06-26T07:31:34Z</time>
      </trkpt>
      <trkpt lat="50.41476" lon="3.5229">
        <ele>54.556</ele>
        <time>2011-06-26T07:31:41Z</time>
      </trkpt>
      <trkpt lat="50.41472" lon="3.52276">
        <ele>55.688</ele>
        <time>2011-06-26T07:31:48Z</time>
      </trkpt>
      <trkpt lat="50.41467" lon="3.52261">
        <ele>57.128</ele>
        <time>2011-06-26T07:31:54Z</time>
      </trkpt>
      <trkpt lat="50.41465" lon="3.52251">
        <ele>58.304</ele>
        <time>2011-06-26T07:31:59Z</time>
      </trkpt>
      <trkpt lat="50.41463" lon="3.52245">
        <ele>58.362</ele>
        <time>2011-06-26T07:32:07Z</time>
      </trkpt>
      <trkpt lat="50.41459" lon="3.52234">
        <ele>59.697</ele>
        <time>2011-06-26T07:32:15Z</time>
      </trkpt>
      <trkpt lat="50.41454" lon="3.52226">
        <ele>61.973</ele>
        <time>2011-06-26T07:32:25Z</time>
      </trkpt>
      <trkpt lat="50.41452" lon="3.52222">
        <ele>63.549</ele>
        <time>2011-06-26T07:32:31Z</time>
      </trkpt>
      <trkpt lat="50.41449" lon="3.5222">
        <ele>64.457</ele>
        <time>2011-06-26T07:32:36Z</time>
      </trkpt>
      <trkpt lat="50.41446" lon="3.52215">
        <ele>65.714</ele>
        <time>2011-06-26T07:32:43Z</time>
      </trkpt>
      <trkpt lat="50.41444" lon="3.52212">
        <ele>66.55</ele>
        <time>2011-06-26T07:32:48Z</time>
      </trkpt>
      <trkpt lat="50.4144" lon="3.52206">
        <ele>68.3</ele>
        <time>2011-06-26T07:32:57Z</time>
      </trkpt>
      <trkpt lat="50.41436" lon="3.52205">
        <ele>69.751</ele>
        <time>2011-06-26T07:33:04Z</time>
      </trkpt>
      <trkpt lat="50.41431" lon="3.52208">
        <ele>70.933</ele>
        <time>2011-06-26T07:33:11Z</time>
      </trkpt>
      <trkpt lat="50.41427" lon="3.52209">
        <ele>71.446</ele>
        <time>2011-06-26T07:33:16Z</time>
      </trkpt>
      <trkpt lat="50.41417" lon="3.52213">
        <ele>73.437</ele>
        <time>2011-06-26T07:33:28Z</time>
      </trkpt>
      <trkpt lat="50.41413" lon="3.52221">
        <ele>74.275</ele>
        <time>2011-06-26T07:33:35Z</time>
      </trkpt>
      <trkpt lat="50.41413" lon="3.52231">
        <ele>74.787</ele>
        <time>2011-06-26T07:33:41Z</time>
      </trkpt>
      <trkpt lat="50.41412" lon="3.52241">
        <ele>76.58</ele>
        <time>2011-06-26T07:33:49Z</time>
      </trkpt>
      <trkpt lat="50.41412" lon="3.52242">
        <ele>76.675</ele>
        <time>2011-06-26T07:33:50Z</time>
      </trkpt>
      <trkpt lat="50.41414" lon="3.52246">
        <ele>76.756</ele>
        <time>2011-06-26T07:33:55Z</time>
      </trkpt>
      <trkpt lat="50.41415" lon="3.52254">
        <ele>77.016</ele>
        <time>2011-06-26T07:34:02Z</time>
      </trkpt>
      <trkpt lat="50.41415" lon="3.52255">
        <ele>76.892</ele>
        <time>2011-06-26T07:34:14Z</time>
      </trkpt>
      <trkpt lat="50.41415" lon="3.52256">
        <ele>76.623</ele>
        <time>2011-06-26T07:34:30Z</time>
      </trkpt>
      <trkpt lat="50.41415" lon="3.52257">
        <ele>76.626</ele>
        <time>2011-06-26T07:34:40Z</time>
      </trkpt>
      <trkpt lat="50.41415" lon="3.52257">
        <ele>76.836</ele>
        <time>2011-06-26T07:34:52Z</time>
      </trkpt>
      <trkpt lat="50.41415" lon="3.52257">
        <ele>76.978</ele>
        <time>2011-06-26T07:35:06Z</time>
      </trkpt>
      <trkpt lat="50.41418" lon="3.52261">
        <ele>76.854</ele>
        <time>2011-06-26T07:35:26Z</time>
      </trkpt>
      <trkpt lat="50.41424" lon="3.52276">
        <ele>77.148</ele>
        <time>2011-06-26T07:35:30Z</time>
      </trkpt>
      <trkpt lat="50.41426" lon="3.52283">
        <ele>77.378</ele>
        <time>2011-06-26T07:35:32Z</time>
      </trkpt>
      <trkpt lat="50.41431" lon="3.52309">
        <ele>76.862</ele>
        <time>2011-06-26T07:35:36Z</time>
      </trkpt>
      <trkpt lat="50.41443" lon="3.52337">
        <ele>76.13</ele>
        <time>2011-06-26T07:35:42Z</time>
      </trkpt>
      <trkpt lat="50.41448" lon="3.5237">
        <ele>73.331</ele>
        <time>2011-06-26T07:35:47Z</time>
      </trkpt>
      <trkpt lat="50.4144" lon="3.52395">
        <ele>70.726</ele>
        <time>2011-06-26T07:35:50Z</time>
      </trkpt>
      <trkpt lat="50.41428" lon="3.52422">
        <ele>68.166</ele>
        <time>2011-06-26T07:35:53Z</time>
      </trkpt>
      <trkpt lat="50.41413" lon="3.52469">
        <ele>65.14</ele>
        <time>2011-06-26T07:35:58Z</time>
      </trkpt>
      <trkpt lat="50.41408" lon="3.52477">
        <ele>64.663</ele>
        <time>2011-06-26T07:35:59Z</time>
      </trkpt>
      <trkpt lat="50.41386" lon="3.52506">
        <ele>63.933</ele>
        <time>2011-06-26T07:36:04Z</time>
      </trkpt>
      <trkpt lat="50.41381" lon="3.52521">
        <ele>64.341</ele>
        <time>2011-06-26T07:36:08Z</time>
      </trkpt>
      <trkpt lat="50.41378" lon="3.5254">
        <ele>61.741</ele>
        <time>2011-06-26T07:36:13Z</time>
      </trkpt>
      <trkpt lat="50.41376" lon="3.52542">
        <ele>61.175</ele>
        <time>2011-06-26T07:36:14Z</time>
      </trkpt>
      <trkpt lat="50.41367" lon="3.52564">
        <ele>57.6</ele>
        <time>2011-06-26T07:36:20Z</time>
      </trkpt>
      <trkpt lat="50.41363" lon="3.52575">
        <ele>55.555</ele>
        <time>2011-06-26T07:36:23Z</time>
      </trkpt>
      <trkpt lat="50.41353" lon="3.52579">
        <ele>53.446</ele>
        <time>2011-06-26T07:36:27Z</time>
      </trkpt>
      <trkpt lat="50.41355" lon="3.52592">
        <ele>51.45</ele>
        <time>2011-06-26T07:36:32Z</time>
      </trkpt>
      <trkpt lat="50.41356" lon="3.52595">
        <ele>51.452</ele>
        <time>2011-06-26T07:36:33Z</time>
      </trkpt>
      <trkpt lat="50.41348" lon="3.52612">
        <ele>48.684</ele>
        <time>2011-06-26T07:36:38Z</time>
      </trkpt>
      <trkpt lat="50.41337" lon="3.52625">
        <ele>46.23</ele>
        <time>2011-06-26T07:36:42Z</time>
      </trkpt>
      <trkpt lat="50.41331" lon="3.52623">
        <ele>44.917</ele>
        <time>2011-06-26T07:36:45Z</time>
      </trkpt>
      <trkpt lat="50.41329" lon="3.52623">
        <ele>44.843</ele>
        <time>2011-06-26T07:36:46Z</time>
      </trkpt>
      <trkpt lat="50.41324" lon="3.52622">
        <ele>44.565</ele>
        <time>2011-06-26T07:36:48Z</time>
      </trkpt>
      <trkpt lat="50.41311" lon="3.52609">
        <ele>44.825</ele>
        <time>2011-06-26T07:36:54Z</time>
      </trkpt>
      <trkpt lat="50.41309" lon="3.52607">
        <ele>44.797</ele>
        <time>2011-06-26T07:36:55Z</time>
      </trkpt>
      <trkpt lat="50.41303" lon="3.52615">
        <ele>44.005</ele>
        <time>2011-06-26T07:36:59Z</time>
      </trkpt>
      <trkpt lat="50.41298" lon="3.52623">
        <ele>43.056</ele>
        <time>2011-06-26T07:37:01Z</time>
      </trkpt>
      <trkpt lat="50.41275" lon="3.52645">
        <ele>37.77</ele>
        <time>2011-06-26T07:37:08Z</time>
      </trkpt>
      <trkpt lat="50.41269" lon="3.52645">
        <ele>36.469</ele>
        <time>2011-06-26T07:37:10Z</time>
      </trkpt>
      <trkpt lat="50.41257" lon="3.52651">
        <ele>34.229</ele>
        <time>2011-06-26T07:37:14Z</time>
      </trkpt>
      <trkpt lat="50.41253" lon="3.52639">
        <ele>33.866</ele>
        <time>2011-06-26T07:37:19Z</time>
      </trkpt>
      <trkpt lat="50.41256" lon="3.52621">
        <ele>34.893</ele>
        <time>2011-06-26T07:37:24Z</time>
      </trkpt>
      <trkpt lat="50.41255" lon="3.52608">
        <ele>36.054</ele>
        <time>2011-06-26T07:37:28Z</time>
      </trkpt>
      <trkpt lat="50.41251" lon="3.52595">
        <ele>37.256</ele>
        <time>2011-06-26T07:37:32Z</time>
      </trkpt>
      <trkpt lat="50.41247" lon="3.52582">
        <ele>38.803</ele>
        <time>2011-06-26T07:37:36Z</time>
      </trkpt>
      <trkpt lat="50.41242" lon="3.52571">
        <ele>40.006</ele>
        <time>2011-06-26T07:37:40Z</time>
      </trkpt>
      <trkpt lat="50.41236" lon="3.52559">
        <ele>41.299</ele>
        <time>2011-06-26T07:37:45Z</time>
      </trkpt>
      <trkpt lat="50.41229" lon="3.52548">
        <ele>42.776</ele>
        <time>2011-06-26T07:37:51Z</time>
      </trkpt>
      <trkpt lat="50.41227" lon="3.52543">
        <ele>44.002</ele>
        <time>2011-06-26T07:37:56Z</time>
      </trkpt>
      <trkpt lat="50.41225" lon="3.52542">
        <ele>44.157</ele>
        <time>2011-06-26T07:38:04Z</time>
      </trkpt>
      <trkpt lat="50.41223" lon="3.52541">
        <ele>44.295</ele>
        <time>2011-06-26T07:38:06Z</time>
      </trkpt>
      <trkpt lat="50.41215" lon="3.5253">
        <ele>46.023</ele>
        <time>2011-06-26T07:38:16Z</time>
      </trkpt>
      <trkpt lat="50.41209" lon="3.52521">
        <ele>47.803</ele>
        <time>2011-06-26T07:38:25Z</time>
      </trkpt>
      <trkpt lat="50.41199" lon="3.52512">
        <ele>49.476</ele>
        <time>2011-06-26T07:38:35Z</time>
      </trkpt>
      <trkpt lat="50.4119" lon="3.52506">
        <ele>50.713</ele>
        <time>2011-06-26T07:38:43Z</time>
      </trkpt>
      <trkpt lat="50.4118" lon="3.52499">
        <ele>52.169</ele>
        <time>2011-06-26T07:38:53Z</time>
      </trkpt>
      <trkpt lat="50.41175" lon="3.52495">
        <ele>52.936</ele>
        <time>2011-06-26T07:39:00Z</time>
      </trkpt>
      <trkpt lat="50.41171" lon="3.52491">
        <ele>53.458</ele>
        <time>2011-06-26T07:39:05Z</time>
      </trkpt>
      <trkpt lat="50.41167" lon="3.52487">
        <ele>53.942</ele>
        <time>2011-06-26T07:39:08Z</time>
      </trkpt>
      <trkpt lat="50.41163" lon="3.52481">
        <ele>54.695</ele>
        <time>2011-06-26T07:39:12Z</time>
      </trkpt>
      <trkpt lat="50.41156" lon="3.52467">
        <ele>55.781</ele>
        <time>2011-06-26T07:39:19Z</time>
      </trkpt>
      <trkpt lat="50.41153" lon="3.52459">
        <ele>56.824</ele>
        <time>2011-06-26T07:39:23Z</time>
      </trkpt>
      <trkpt lat="50.41152" lon="3.52455">
        <ele>57.179</ele>
        <time>2011-06-26T07:39:25Z</time>
      </trkpt>
      <trkpt lat="50.41153" lon="3.5243">
        <ele>58.922</ele>
        <time>2011-06-26T07:39:35Z</time>
      </trkpt>
      <trkpt lat="50.41155" lon="3.52413">
        <ele>60.291</ele>
        <time>2011-06-26T07:39:42Z</time>
      </trkpt>
      <trkpt lat="50.41158" lon="3.52396">
        <ele>61.621</ele>
        <time>2011-06-26T07:39:49Z</time>
      </trkpt>
      <trkpt lat="50.41166" lon="3.52377">
        <ele>63.212</ele>
        <time>2011-06-26T07:39:58Z</time>
      </trkpt>
      <trkpt lat="50.41175" lon="3.52361">
        <ele>64.623</ele>
        <time>2011-06-26T07:40:06Z</time>
      </trkpt>
      <trkpt lat="50.41184" lon="3.52347">
        <ele>66.028</ele>
        <time>2011-06-26T07:40:14Z</time>
      </trkpt>
      <trkpt lat="50.41192" lon="3.52336">
        <ele>67.189</ele>
        <time>2011-06-26T07:40:21Z</time>
      </trkpt>
      <trkpt lat="50.41199" lon="3.52326">
        <ele>68.034</ele>
        <time>2011-06-26T07:40:26Z</time>
      </trkpt>
      <trkpt lat="50.41208" lon="3.52311">
        <ele>69.271</ele>
        <time>2011-06-26T07:40:34Z</time>
      </trkpt>
      <trkpt lat="50.41211" lon="3.52308">
        <ele>69.68</ele>
        <time>2011-06-26T07:40:36Z</time>
      </trkpt>
      <trkpt lat="50.41218" lon="3.52302">
        <ele>70.734</ele>
        <time>2011-06-26T07:40:41Z</time>
      </trkpt>
      <trkpt lat="50.41233" lon="3.52286">
        <ele>72.138</ele>
        <time>2011-06-26T07:40:51Z</time>
      </trkpt>
      <trkpt lat="50.41242" lon="3.52274">
        <ele>73.193</ele>
        <time>2011-06-26T07:40:58Z</time>
      </trkpt>
      <trkpt lat="50.41249" lon="3.52259">
        <ele>74.172</ele>
        <time>2011-06-26T07:41:04Z</time>
      </trkpt>
      <trkpt lat="50.41257" lon="3.52238">
        <ele>75.242</ele>
        <time>2011-06-26T07:41:13Z</time>
      </trkpt>
      <trkpt lat="50.41263" lon="3.52221">
        <ele>76.018</ele>
        <time>2011-06-26T07:41:20Z</time>
      </trkpt>
      <trkpt lat="50.41272" lon="3.52203">
        <ele>77.065</ele>
        <time>2011-06-26T07:41:28Z</time>
      </trkpt>
      <trkpt lat="50.41274" lon="3.52183">
        <ele>76.817</ele>
        <time>2011-06-26T07:41:33Z</time>
      </trkpt>
      <trkpt lat="50.41275" lon="3.52164">
        <ele>76.392</ele>
        <time>2011-06-26T07:41:36Z</time>
      </trkpt>
      <trkpt lat="50.41275" lon="3.5216">
        <ele>76.431</ele>
        <time>2011-06-26T07:41:37Z</time>
      </trkpt>
      <trkpt lat="50.41263" lon="3.52142">
        <ele>78.942</ele>
        <time>2011-06-26T07:41:44Z</time>
      </trkpt>
      <trkpt lat="50.41245" lon="3.52137">
        <ele>80.011</ele>
        <time>2011-06-26T07:41:52Z</time>
      </trkpt>
      <trkpt lat="50.41235" lon="3.52128">
        <ele>80.711</ele>
        <time>2011-06-26T07:41:58Z</time>
      </trkpt>
      <trkpt lat="50.41229" lon="3.52113">
        <ele>81.034</ele>
        <time>2011-06-26T07:42:04Z</time>
      </trkpt>
      <trkpt lat="50.41224" lon="3.5209">
        <ele>80.588</ele>
        <time>2011-06-26T07:42:10Z</time>
      </trkpt>
      <trkpt lat="50.41222" lon="3.5207">
        <ele>79.729</ele>
        <time>2011-06-26T07:42:14Z</time>
      </trkpt>
      <trkpt lat="50.4123" lon="3.52059">
        <ele>79.595</ele>
        <time>2011-06-26T07:42:18Z</time>
      </trkpt>
      <trkpt lat="50.41246" lon="3.52049">
        <ele>80.621</ele>
        <time>2011-06-26T07:42:26Z</time>
      </trkpt>
      <trkpt lat="50.41252" lon="3.52035">
        <ele>80.902</ele>
        <time>2011-06-26T07:42:31Z</time>
      </trkpt>
      <trkpt lat="50.41254" lon="3.52033">
        <ele>81.053</ele>
        <time>2011-06-26T07:42:32Z</time>
      </trkpt>
      <trkpt lat="50.41263" lon="3.52021">
        <ele>81.308</ele>
        <time>2011-06-26T07:42:37Z</time>
      </trkpt>
      <trkpt lat="50.41267" lon="3.51996">
        <ele>81.863</ele>
        <time>2011-06-26T07:42:44Z</time>
      </trkpt>
      <trkpt lat="50.41266" lon="3.5198">
        <ele>81.929</ele>
        <time>2011-06-26T07:42:48Z</time>
      </trkpt>
      <trkpt lat="50.41269" lon="3.51958">
        <ele>81.856</ele>
        <time>2011-06-26T07:42:53Z</time>
      </trkpt>
      <trkpt lat="50.41272" lon="3.51928">
        <ele>81.494</ele>
        <time>2011-06-26T07:42:59Z</time>
      </trkpt>
      <trkpt lat="50.41275" lon="3.5191">
        <ele>81.257</ele>
        <time>2011-06-26T07:43:03Z</time>
      </trkpt>
      <trkpt lat="50.41274" lon="3.51892">
        <ele>81.293</ele>
        <time>2011-06-26T07:43:07Z</time>
      </trkpt>
      <trkpt lat="50.41271" lon="3.51877">
        <ele>81.945</ele>
        <time>2011-06-26T07:43:11Z</time>
      </trkpt>
      <trkpt lat="50.41276" lon="3.51866">
        <ele>81.554</ele>
        <time>2011-06-26T07:43:14Z</time>
      </trkpt>
      <trkpt lat="50.41278" lon="3.51848">
        <ele>81.408</ele>
        <time>2011-06-26T07:43:18Z</time>
      </trkpt>
      <trkpt lat="50.41281" lon="3.51831">
        <ele>80.951</ele>
        <time>2011-06-26T07:43:21Z</time>
      </trkpt>
      <trkpt lat="50.41287" lon="3.51834">
        <ele>80.257</ele>
        <time>2011-06-26T07:43:24Z</time>
      </trkpt>
      <trkpt lat="50.41294" lon="3.51843">
        <ele>80.58</ele>
        <time>2011-06-26T07:43:28Z</time>
      </trkpt>
      <trkpt lat="50.41299" lon="3.51849">
        <ele>81.028</ele>
        <time>2011-06-26T07:43:30Z</time>
      </trkpt>
      <trkpt lat="50.41312" lon="3.51854">
        <ele>82.222</ele>
        <time>2011-06-26T07:43:36Z</time>
      </trkpt>
      <trkpt lat="50.41322" lon="3.51835">
        <ele>82.582</ele>
        <time>2011-06-26T07:43:42Z</time>
      </trkpt>
      <trkpt lat="50.41324" lon="3.51804">
        <ele>83.096</ele>
        <time>2011-06-26T07:43:48Z</time>
      </trkpt>
      <trkpt lat="50.41329" lon="3.5178">
        <ele>83.477</ele>
        <time>2011-06-26T07:43:53Z</time>
      </trkpt>
      <trkpt lat="50.41336" lon="3.51762">
        <ele>83.768</ele>
        <time>2011-06-26T07:43:58Z</time>
      </trkpt>
      <trkpt lat="50.41346" lon="3.51742">
        <ele>83.875</ele>
        <time>2011-06-26T07:44:04Z</time>
      </trkpt>
      <trkpt lat="50.41359" lon="3.5172">
        <ele>83.785</ele>
        <time>2011-06-26T07:44:10Z</time>
      </trkpt>
      <trkpt lat="50.41365" lon="3.517">
        <ele>83.915</ele>
        <time>2011-06-26T07:44:15Z</time>
      </trkpt>
      <trkpt lat="50.41366" lon="3.51696">
        <ele>83.93</ele>
        <time>2011-06-26T07:44:16Z</time>
      </trkpt>
      <trkpt lat="50.41375" lon="3.51694">
        <ele>83.592</ele>
        <time>2011-06-26T07:44:19Z</time>
      </trkpt>
      <trkpt lat="50.41386" lon="3.51676">
        <ele>82.741</ele>
        <time>2011-06-26T07:44:23Z</time>
      </trkpt>
      <trkpt lat="50.41394" lon="3.51663">
        <ele>82.416</ele>
        <time>2011-06-26T07:44:26Z</time>
      </trkpt>
      <trkpt lat="50.41401" lon="3.51638">
        <ele>81.806</ele>
        <time>2011-06-26T07:44:31Z</time>
      </trkpt>
      <trkpt lat="50.41406" lon="3.5163">
        <ele>81.557</ele>
        <time>2011-06-26T07:44:33Z</time>
      </trkpt>
      <trkpt lat="50.41416" lon="3.51631">
        <ele>80.58</ele>
        <time>2011-06-26T07:44:37Z</time>
      </trkpt>
      <trkpt lat="50.41432" lon="3.51646">
        <ele>80.924</ele>
        <time>2011-06-26T07:44:43Z</time>
      </trkpt>
      <trkpt lat="50.41447" lon="3.51653">
        <ele>81.602</ele>
        <time>2011-06-26T07:44:48Z</time>
      </trkpt>
      <trkpt lat="50.41463" lon="3.51638">
        <ele>81.716</ele>
        <time>2011-06-26T07:44:53Z</time>
      </trkpt>
      <trkpt lat="50.41468" lon="3.51637">
        <ele>81.553</ele>
        <time>2011-06-26T07:44:55Z</time>
      </trkpt>
      <trkpt lat="50.41494" lon="3.51651">
        <ele>80.376</ele>
        <time>2011-06-26T07:45:01Z</time>
      </trkpt>
      <trkpt lat="50.41494" lon="3.51672">
        <ele>79.704</ele>
        <time>2011-06-26T07:45:04Z</time>
      </trkpt>
      <trkpt lat="50.415" lon="3.51689">
        <ele>79.737</ele>
        <time>2011-06-26T07:45:08Z</time>
      </trkpt>
      <trkpt lat="50.41504" lon="3.51696">
        <ele>79.794</ele>
        <time>2011-06-26T07:45:10Z</time>
      </trkpt>
      <trkpt lat="50.41505" lon="3.51723">
        <ele>80.183</ele>
        <time>2011-06-26T07:45:15Z</time>
      </trkpt>
      <trkpt lat="50.41501" lon="3.5175">
        <ele>79.036</ele>
        <time>2011-06-26T07:45:18Z</time>
      </trkpt>
      <trkpt lat="50.41498" lon="3.5176">
        <ele>78.617</ele>
        <time>2011-06-26T07:45:20Z</time>
      </trkpt>
      <trkpt lat="50.41499" lon="3.51764">
        <ele>79.162</ele>
        <time>2011-06-26T07:45:25Z</time>
      </trkpt>
      <trkpt lat="50.41501" lon="3.51771">
        <ele>78.886</ele>
        <time>2011-06-26T07:45:29Z</time>
      </trkpt>
      <trkpt lat="50.41501" lon="3.51787">
        <ele>76.445</ele>
        <time>2011-06-26T07:45:33Z</time>
      </trkpt>
      <trkpt lat="50.41498" lon="3.5181">
        <ele>71.488</ele>
        <time>2011-06-26T07:45:37Z</time>
      </trkpt>
      <trkpt lat="50.41492" lon="3.51816">
        <ele>69.95</ele>
        <time>2011-06-26T07:45:39Z</time>
      </trkpt>
      <trkpt lat="50.41481" lon="3.51822">
        <ele>68.536</ele>
        <time>2011-06-26T07:45:43Z</time>
      </trkpt>
      <trkpt lat="50.41482" lon="3.51832">
        <ele>67.151</ele>
        <time>2011-06-26T07:45:47Z</time>
      </trkpt>
      <trkpt lat="50.41485" lon="3.51841">
        <ele>65.899</ele>
        <time>2011-06-26T07:45:49Z</time>
      </trkpt>
      <trkpt lat="50.41498" lon="3.51874">
        <ele>57.347</ele>
        <time>2011-06-26T07:45:57Z</time>
      </trkpt>
      <trkpt lat="50.41508" lon="3.51898">
        <ele>50.448</ele>
        <time>2011-06-26T07:46:03Z</time>
      </trkpt>
      <trkpt lat="50.4151" lon="3.51905">
        <ele>47.676</ele>
        <time>2011-06-26T07:46:05Z</time>
      </trkpt>
      <trkpt lat="50.41522" lon="3.51942">
        <ele>38.934</ele>
        <time>2011-06-26T07:46:10Z</time>
      </trkpt>
      <trkpt lat="50.41524" lon="3.51948">
        <ele>37.004</ele>
        <time>2011-06-26T07:46:11Z</time>
      </trkpt>
      <trkpt lat="50.41528" lon="3.51943">
        <ele>34.402</ele>
        <time>2011-06-26T07:46:15Z</time>
      </trkpt>
      <trkpt lat="50.41531" lon="3.51927">
        <ele>34.668</ele>
        <time>2011-06-26T07:46:18Z</time>
      </trkpt>
      <trkpt lat="50.41541" lon="3.51888">
        <ele>35.099</ele>
        <time>2011-06-26T07:46:25Z</time>
      </trkpt>
      <trkpt lat="50.41543" lon="3.51877">
        <ele>35.305</ele>
        <time>2011-06-26T07:46:27Z</time>
      </trkpt>
      <trkpt lat="50.41553" lon="3.51871">
        <ele>35.5</ele>
        <time>2011-06-26T07:46:31Z</time>
      </trkpt>
      <trkpt lat="50.41565" lon="3.51873">
        <ele>36.195</ele>
        <time>2011-06-26T07:46:36Z</time>
      </trkpt>
      <trkpt lat="50.41577" lon="3.51872">
        <ele>36.689</ele>
        <time>2011-06-26T07:46:43Z</time>
      </trkpt>
      <trkpt lat="50.41583" lon="3.51865">
        <ele>37.395</ele>
        <time>2011-06-26T07:46:47Z</time>
      </trkpt>
      <trkpt lat="50.41594" lon="3.51861">
        <ele>38.011</ele>
        <time>2011-06-26T07:46:54Z</time>
      </trkpt>
      <trkpt lat="50.41598" lon="3.51848">
        <ele>38.479</ele>
        <time>2011-06-26T07:46:59Z</time>
      </trkpt>
      <trkpt lat="50.416" lon="3.51813">
        <ele>39.008</ele>
        <time>2011-06-26T07:47:07Z</time>
      </trkpt>
      <trkpt lat="50.41601" lon="3.5178">
        <ele>39.992</ele>
        <time>2011-06-26T07:47:14Z</time>
      </trkpt>
      <trkpt lat="50.41602" lon="3.51746">
        <ele>40.268</ele>
        <time>2011-06-26T07:47:21Z</time>
      </trkpt>
      <trkpt lat="50.41604" lon="3.51704">
        <ele>40.671</ele>
        <time>2011-06-26T07:47:30Z</time>
      </trkpt>
      <trkpt lat="50.41608" lon="3.51693">
        <ele>40.941</ele>
        <time>2011-06-26T07:47:33Z</time>
      </trkpt>
      <trkpt lat="50.41623" lon="3.51689">
        <ele>41.488</ele>
        <time>2011-06-26T07:47:39Z</time>
      </trkpt>
      <trkpt lat="50.41644" lon="3.51689">
        <ele>41.783</ele>
        <time>2011-06-26T07:47:46Z</time>
      </trkpt>
      <trkpt lat="50.41673" lon="3.51691">
        <ele>41.488</ele>
        <time>2011-06-26T07:47:54Z</time>
      </trkpt>
      <trkpt lat="50.41682" lon="3.5167">
        <ele>40.743</ele>
        <time>2011-06-26T07:47:58Z</time>
      </trkpt>
      <trkpt lat="50.41691" lon="3.51626">
        <ele>38.954</ele>
        <time>2011-06-26T07:48:03Z</time>
      </trkpt>
      <trkpt lat="50.41695" lon="3.51607">
        <ele>37.517</ele>
        <time>2011-06-26T07:48:05Z</time>
      </trkpt>
      <trkpt lat="50.41706" lon="3.51538">
        <ele>31.115</ele>
        <time>2011-06-26T07:48:12Z</time>
      </trkpt>
      <trkpt lat="50.41708" lon="3.5151">
        <ele>28.343</ele>
        <time>2011-06-26T07:48:15Z</time>
      </trkpt>
      <trkpt lat="50.41707" lon="3.51482">
        <ele>26.618</ele>
        <time>2011-06-26T07:48:18Z</time>
      </trkpt>
      <trkpt lat="50.41706" lon="3.51472">
        <ele>25.996</ele>
        <time>2011-06-26T07:48:19Z</time>
      </trkpt>
      <trkpt lat="50.41693" lon="3.51421">
        <ele>24.519</ele>
        <time>2011-06-26T07:48:25Z</time>
      </trkpt>
      <trkpt lat="50.41666" lon="3.51357">
        <ele>24.42</ele>
        <time>2011-06-26T07:48:34Z</time>
      </trkpt>
      <trkpt lat="50.41639" lon="3.51299">
        <ele>23.933</ele>
        <time>2011-06-26T07:48:42Z</time>
      </trkpt>
      <trkpt lat="50.41606" lon="3.51249">
        <ele>23.553</ele>
        <time>2011-06-26T07:48:50Z</time>
      </trkpt>
      <trkpt lat="50.41574" lon="3.51211">
        <ele>23.152</ele>
        <time>2011-06-26T07:48:57Z</time>
      </trkpt>
      <trkpt lat="50.41525" lon="3.51159">
        <ele>22.792</ele>
        <time>2011-06-26T07:49:07Z</time>
      </trkpt>
      <trkpt lat="50.41497" lon="3.51128">
        <ele>22.522</ele>
        <time>2011-06-26T07:49:13Z</time>
      </trkpt>
      <trkpt lat="50.41457" lon="3.51089">
        <ele>22.207</ele>
        <time>2011-06-26T07:49:21Z</time>
      </trkpt>
      <trkpt lat="50.41417" lon="3.51054">
        <ele>21.648</ele>
        <time>2011-06-26T07:49:29Z</time>
      </trkpt>
      <trkpt lat="50.41383" lon="3.51023">
        <ele>21.181</ele>
        <time>2011-06-26T07:49:36Z</time>
      </trkpt>
      <trkpt lat="50.4136" lon="3.51002">
        <ele>20.984</ele>
        <time>2011-06-26T07:49:41Z</time>
      </trkpt>
      <trkpt lat="50.41319" lon="3.50963">
        <ele>20.864</ele>
        <time>2011-06-26T07:49:50Z</time>
      </trkpt>
      <trkpt lat="50.41297" lon="3.50945">
        <ele>20.511</ele>
        <time>2011-06-26T07:49:55Z</time>
      </trkpt>
      <trkpt lat="50.41278" lon="3.5094">
        <ele>20.752</ele>
        <time>2011-06-26T07:50:00Z</time>
      </trkpt>
      <trkpt lat="50.41257" lon="3.50929">
        <ele>20.773</ele>
        <time>2011-06-26T07:50:06Z</time>
      </trkpt>
      <trkpt lat="50.41247" lon="3.50923">
        <ele>20.577</ele>
        <time>2011-06-26T07:50:09Z</time>
      </trkpt>
      <trkpt lat="50.41218" lon="3.50906">
        <ele>20.113</ele>
        <time>2011-06-26T07:50:15Z</time>
      </trkpt>
      <trkpt lat="50.41208" lon="3.50899">
        <ele>20.019</ele>
        <time>2011-06-26T07:50:17Z</time>
      </trkpt>
      <trkpt lat="50.41186" lon="3.50888">
        <ele>19.581</ele>
        <time>2011-06-26T07:50:22Z</time>
      </trkpt>
      <trkpt lat="50.4117" lon="3.50874">
        <ele>19.443</ele>
        <time>2011-06-26T07:50:27Z</time>
      </trkpt>
      <trkpt lat="50.41158" lon="3.50866">
        <ele>19.454</ele>
        <time>2011-06-26T07:50:32Z</time>
      </trkpt>
      <trkpt lat="50.41153" lon="3.50862">
        <ele>19.445</ele>
        <time>2011-06-26T07:50:36Z</time>
      </trkpt>
      <trkpt lat="50.41138" lon="3.50851">
        <ele>19.694</ele>
        <time>2011-06-26T07:50:40Z</time>
      </trkpt>
      <trkpt lat="50.41114" lon="3.50837">
        <ele>19.706</ele>
        <time>2011-06-26T07:50:45Z</time>
      </trkpt>
      <trkpt lat="50.41108" lon="3.50835">
        <ele>19.725</ele>
        <time>2011-06-26T07:50:46Z</time>
      </trkpt>
      <trkpt lat="50.41065" lon="3.50811">
        <ele>19.337</ele>
        <time>2011-06-26T07:50:54Z</time>
      </trkpt>
      <trkpt lat="50.41037" lon="3.50794">
        <ele>19.043</ele>
        <time>2011-06-26T07:51:00Z</time>
      </trkpt>
      <trkpt lat="50.41016" lon="3.50781">
        <ele>18.976</ele>
        <time>2011-06-26T07:51:05Z</time>
      </trkpt>
      <trkpt lat="50.40994" lon="3.50769">
        <ele>18.627</ele>
        <time>2011-06-26T07:51:11Z</time>
      </trkpt>
      <trkpt lat="50.40979" lon="3.50761">
        <ele>18.505</ele>
        <time>2011-06-26T07:51:15Z</time>
      </trkpt>
      <trkpt lat="50.40972" lon="3.50758">
        <ele>18.274</ele>
        <time>2011-06-26T07:51:20Z</time>
      </trkpt>
      <trkpt lat="50.40968" lon="3.50756">
        <ele>18.439</ele>
        <time>2011-06-26T07:51:25Z</time>
      </trkpt>
      <trkpt lat="50.40962" lon="3.50759">
        <ele>18.253</ele>
        <time>2011-06-26T07:51:31Z</time>
      </trkpt>
      <trkpt lat="50.40952" lon="3.50756">
        <ele>18.095</ele>
        <time>2011-06-26T07:51:36Z</time>
      </trkpt>
      <trkpt lat="50.40938" lon="3.50751">
        <ele>18.147</ele>
        <time>2011-06-26T07:51:41Z</time>
      </trkpt>
      <trkpt lat="50.40907" lon="3.50734">
        <ele>18.745</ele>
        <time>2011-06-26T07:51:49Z</time>
      </trkpt>
      <trkpt lat="50.40889" lon="3.50722">
        <ele>18.579</ele>
        <time>2011-06-26T07:51:54Z</time>
      </trkpt>
      <trkpt lat="50.4087" lon="3.50709">
        <ele>18.179</ele>
        <time>2011-06-26T07:51:59Z</time>
      </trkpt>
      <trkpt lat="50.40859" lon="3.50692">
        <ele>17.989</ele>
        <time>2011-06-26T07:52:03Z</time>
      </trkpt>
      <trkpt lat="50.40832" lon="3.50662">
        <ele>17.683</ele>
        <time>2011-06-26T07:52:10Z</time>
      </trkpt>
      <trkpt lat="50.40811" lon="3.50639">
        <ele>17.546</ele>
        <time>2011-06-26T07:52:15Z</time>
      </trkpt>
      <trkpt lat="50.40785" lon="3.50602">
        <ele>17.39</ele>
        <time>2011-06-26T07:52:22Z</time>
      </trkpt>
      <trkpt lat="50.40767" lon="3.50579">
        <ele>17.32</ele>
        <time>2011-06-26T07:52:28Z</time>
      </trkpt>
      <trkpt lat="50.40755" lon="3.50572">
        <ele>17.28</ele>
        <time>2011-06-26T07:52:33Z</time>
      </trkpt>
      <trkpt lat="50.40756" lon="3.5056">
        <ele>17.318</ele>
        <time>2011-06-26T07:52:36Z</time>
      </trkpt>
      <trkpt lat="50.40755" lon="3.50541">
        <ele>17.265</ele>
        <time>2011-06-26T07:52:43Z</time>
      </trkpt>
      <trkpt lat="50.40748" lon="3.50534">
        <ele>17.16</ele>
        <time>2011-06-26T07:52:49Z</time>
      </trkpt>
      <trkpt lat="50.40746" lon="3.50534">
        <ele>17.145</ele>
        <time>2011-06-26T07:52:50Z</time>
      </trkpt>
      <trkpt lat="50.40743" lon="3.50539">
        <ele>17.037</ele>
        <time>2011-06-26T07:52:55Z</time>
      </trkpt>
      <trkpt lat="50.40741" lon="3.50542">
        <ele>16.163</ele>
        <time>2011-06-26T07:54:00Z</time>
      </trkpt>
      <trkpt lat="50.40742" lon="3.50543">
        <ele>15.97</ele>
        <time>2011-06-26T07:54:37Z</time>
      </trkpt>
      <trkpt lat="50.4074" lon="3.50538">
        <ele>15.994</ele>
        <time>2011-06-26T07:55:01Z</time>
      </trkpt>
      <trkpt lat="50.40747" lon="3.50541">
        <ele>15.638</ele>
        <time>2011-06-26T07:56:25Z</time>
      </trkpt>
      <trkpt lat="50.40747" lon="3.5054">
        <ele>15.82</ele>
        <time>2011-06-26T07:56:27Z</time>
      </trkpt>
      <trkpt lat="50.40747" lon="3.50538">
        <ele>16.019</ele>
        <time>2011-06-26T07:56:32Z</time>
      </trkpt>
      <trkpt lat="50.40746" lon="3.50538">
        <ele>16.061</ele>
        <time>2011-06-26T07:56:33Z</time>
      </trkpt>
      <trkpt lat="50.40735" lon="3.50539">
        <ele>15.894</ele>
        <time>2011-06-26T07:56:37Z</time>
      </trkpt>
      <trkpt lat="50.40709" lon="3.50549">
        <ele>15.943</ele>
        <time>2011-06-26T07:56:43Z</time>
      </trkpt>
      <trkpt lat="50.40684" lon="3.50561">
        <ele>16.23</ele>
        <time>2011-06-26T07:56:49Z</time>
      </trkpt>
      <trkpt lat="50.40641" lon="3.50579">
        <ele>15.787</ele>
        <time>2011-06-26T07:56:59Z</time>
      </trkpt>
      <trkpt lat="50.40637" lon="3.50582">
        <ele>15.823</ele>
        <time>2011-06-26T07:57:00Z</time>
      </trkpt>
      <trkpt lat="50.40599" lon="3.50598">
        <ele>15.642</ele>
        <time>2011-06-26T07:57:08Z</time>
      </trkpt>
      <trkpt lat="50.4055" lon="3.5062">
        <ele>15.238</ele>
        <time>2011-06-26T07:57:18Z</time>
      </trkpt>
      <trkpt lat="50.40501" lon="3.50642">
        <ele>14.439</ele>
        <time>2011-06-26T07:57:28Z</time>
      </trkpt>
      <trkpt lat="50.40468" lon="3.50658">
        <ele>14.118</ele>
        <time>2011-06-26T07:57:35Z</time>
      </trkpt>
      <trkpt lat="50.40454" lon="3.50651">
        <ele>13.978</ele>
        <time>2011-06-26T07:57:39Z</time>
      </trkpt>
      <trkpt lat="50.40442" lon="3.50631">
        <ele>13.814</ele>
        <time>2011-06-26T07:57:44Z</time>
      </trkpt>
      <trkpt lat="50.40443" lon="3.50624">
        <ele>13.789</ele>
        <time>2011-06-26T07:57:45Z</time>
      </trkpt>
      <trkpt lat="50.40442" lon="3.50602">
        <ele>13.793</ele>
        <time>2011-06-26T07:57:48Z</time>
      </trkpt>
      <trkpt lat="50.40444" lon="3.50539">
        <ele>14.013</ele>
        <time>2011-06-26T07:57:56Z</time>
      </trkpt>
      <trkpt lat="50.40444" lon="3.50531">
        <ele>14.005</ele>
        <time>2011-06-26T07:57:57Z</time>
      </trkpt>
      <trkpt lat="50.40439" lon="3.50497">
        <ele>14.175</ele>
        <time>2011-06-26T07:58:01Z</time>
      </trkpt>
      <trkpt lat="50.40429" lon="3.50465">
        <ele>14.331</ele>
        <time>2011-06-26T07:58:05Z</time>
      </trkpt>
      <trkpt lat="50.40415" lon="3.50439">
        <ele>14.168</ele>
        <time>2011-06-26T07:58:09Z</time>
      </trkpt>
      <trkpt lat="50.4038" lon="3.50399">
        <ele>13.85</ele>
        <time>2011-06-26T07:58:17Z</time>
      </trkpt>
      <trkpt lat="50.40342" lon="3.50368">
        <ele>13.821</ele>
        <time>2011-06-26T07:58:25Z</time>
      </trkpt>
      <trkpt lat="50.40307" lon="3.50344">
        <ele>13.439</ele>
        <time>2011-06-26T07:58:32Z</time>
      </trkpt>
      <trkpt lat="50.40272" lon="3.5032">
        <ele>13.585</ele>
        <time>2011-06-26T07:58:39Z</time>
      </trkpt>
      <trkpt lat="50.40228" lon="3.50292">
        <ele>13.659</ele>
        <time>2011-06-26T07:58:48Z</time>
      </trkpt>
      <trkpt lat="50.40213" lon="3.50288">
        <ele>13.576</ele>
        <time>2011-06-26T07:58:51Z</time>
      </trkpt>
      <trkpt lat="50.40204" lon="3.5027">
        <ele>13.407</ele>
        <time>2011-06-26T07:58:55Z</time>
      </trkpt>
      <trkpt lat="50.4021" lon="3.50257">
        <ele>13.572</ele>
        <time>2011-06-26T07:58:58Z</time>
      </trkpt>
      <trkpt lat="50.40231" lon="3.50233">
        <ele>14.344</ele>
        <time>2011-06-26T07:59:05Z</time>
      </trkpt>
      <trkpt lat="50.4025" lon="3.50211">
        <ele>15.841</ele>
        <time>2011-06-26T07:59:12Z</time>
      </trkpt>
      <trkpt lat="50.40259" lon="3.502">
        <ele>16.596</ele>
        <time>2011-06-26T07:59:17Z</time>
      </trkpt>
      <trkpt lat="50.40271" lon="3.50198">
        <ele>17.53</ele>
        <time>2011-06-26T07:59:22Z</time>
      </trkpt>
      <trkpt lat="50.40287" lon="3.50204">
        <ele>19.408</ele>
        <time>2011-06-26T07:59:28Z</time>
      </trkpt>
      <trkpt lat="50.40299" lon="3.5021">
        <ele>20.862</ele>
        <time>2011-06-26T07:59:33Z</time>
      </trkpt>
      <trkpt lat="50.40311" lon="3.50216">
        <ele>21.988</ele>
        <time>2011-06-26T07:59:39Z</time>
      </trkpt>
      <trkpt lat="50.40324" lon="3.50218">
        <ele>22.899</ele>
        <time>2011-06-26T07:59:46Z</time>
      </trkpt>
      <trkpt lat="50.40339" lon="3.50211">
        <ele>24.353</ele>
        <time>2011-06-26T07:59:54Z</time>
      </trkpt>
      <trkpt lat="50.40349" lon="3.50204">
        <ele>25.515</ele>
        <time>2011-06-26T08:00:00Z</time>
      </trkpt>
      <trkpt lat="50.40358" lon="3.50196">
        <ele>26.365</ele>
        <time>2011-06-26T08:00:07Z</time>
      </trkpt>
      <trkpt lat="50.40361" lon="3.50194">
        <ele>26.651</ele>
        <time>2011-06-26T08:00:09Z</time>
      </trkpt>
      <trkpt lat="50.40374" lon="3.50184">
        <ele>28.074</ele>
        <time>2011-06-26T08:00:17Z</time>
      </trkpt>
      <trkpt lat="50.40377" lon="3.50181">
        <ele>28.307</ele>
        <time>2011-06-26T08:00:19Z</time>
      </trkpt>
      <trkpt lat="50.40384" lon="3.50176">
        <ele>29.008</ele>
        <time>2011-06-26T08:00:23Z</time>
      </trkpt>
      <trkpt lat="50.40392" lon="3.50172">
        <ele>29.818</ele>
        <time>2011-06-26T08:00:28Z</time>
      </trkpt>
      <trkpt lat="50.40407" lon="3.5016">
        <ele>31.108</ele>
        <time>2011-06-26T08:00:38Z</time>
      </trkpt>
      <trkpt lat="50.40418" lon="3.50151">
        <ele>32.615</ele>
        <time>2011-06-26T08:00:46Z</time>
      </trkpt>
      <trkpt lat="50.40431" lon="3.50134">
        <ele>34.55</ele>
        <time>2011-06-26T08:00:56Z</time>
      </trkpt>
      <trkpt lat="50.40439" lon="3.50122">
        <ele>35.458</ele>
        <time>2011-06-26T08:01:03Z</time>
      </trkpt>
      <trkpt lat="50.40441" lon="3.50108">
        <ele>36.216</ele>
        <time>2011-06-26T08:01:08Z</time>
      </trkpt>
      <trkpt lat="50.40441" lon="3.50105">
        <ele>36.476</ele>
        <time>2011-06-26T08:01:09Z</time>
      </trkpt>
      <trkpt lat="50.40441" lon="3.50092">
        <ele>37.6</ele>
        <time>2011-06-26T08:01:14Z</time>
      </trkpt>
      <trkpt lat="50.40434" lon="3.50063">
        <ele>38.951</ele>
        <time>2011-06-26T08:01:24Z</time>
      </trkpt>
      <trkpt lat="50.40429" lon="3.50047">
        <ele>40.349</ele>
        <time>2011-06-26T08:01:31Z</time>
      </trkpt>
      <trkpt lat="50.40421" lon="3.50031">
        <ele>41.473</ele>
        <time>2011-06-26T08:01:39Z</time>
      </trkpt>
      <trkpt lat="50.40415" lon="3.50016">
        <ele>42.213</ele>
        <time>2011-06-26T08:01:46Z</time>
      </trkpt>
      <trkpt lat="50.4041" lon="3.50003">
        <ele>43.351</ele>
        <time>2011-06-26T08:01:52Z</time>
      </trkpt>
      <trkpt lat="50.40398" lon="3.49979">
        <ele>44.904</ele>
        <time>2011-06-26T08:02:03Z</time>
      </trkpt>
      <trkpt lat="50.4039" lon="3.49967">
        <ele>45.946</ele>
        <time>2011-06-26T08:02:10Z</time>
      </trkpt>
      <trkpt lat="50.40377" lon="3.49955">
        <ele>47.497</ele>
        <time>2011-06-26T08:02:19Z</time>
      </trkpt>
      <trkpt lat="50.40363" lon="3.49947">
        <ele>48.757</ele>
        <time>2011-06-26T08:02:28Z</time>
      </trkpt>
      <trkpt lat="50.40348" lon="3.49943">
        <ele>50.097</ele>
        <time>2011-06-26T08:02:37Z</time>
      </trkpt>
      <trkpt lat="50.40335" lon="3.49944">
        <ele>51.16</ele>
        <time>2011-06-26T08:02:46Z</time>
      </trkpt>
      <trkpt lat="50.4033" lon="3.49946">
        <ele>51.78</ele>
        <time>2011-06-26T08:02:53Z</time>
      </trkpt>
      <trkpt lat="50.4033" lon="3.49945">
        <ele>51.746</ele>
        <time>2011-06-26T08:02:56Z</time>
      </trkpt>
      <trkpt lat="50.40326" lon="3.4994">
        <ele>51.531</ele>
        <time>2011-06-26T08:03:00Z</time>
      </trkpt>
      <trkpt lat="50.40306" lon="3.49934">
        <ele>47.454</ele>
        <time>2011-06-26T08:03:06Z</time>
      </trkpt>
      <trkpt lat="50.40289" lon="3.49942">
        <ele>43.115</ele>
        <time>2011-06-26T08:03:11Z</time>
      </trkpt>
      <trkpt lat="50.40276" lon="3.49962">
        <ele>39.887</ele>
        <time>2011-06-26T08:03:17Z</time>
      </trkpt>
      <trkpt lat="50.40264" lon="3.49984">
        <ele>37.556</ele>
        <time>2011-06-26T08:03:22Z</time>
      </trkpt>
      <trkpt lat="50.40254" lon="3.50002">
        <ele>35.312</ele>
        <time>2011-06-26T08:03:26Z</time>
      </trkpt>
      <trkpt lat="50.40246" lon="3.50021">
        <ele>33.556</ele>
        <time>2011-06-26T08:03:30Z</time>
      </trkpt>
      <trkpt lat="50.40242" lon="3.50043">
        <ele>31.15</ele>
        <time>2011-06-26T08:03:34Z</time>
      </trkpt>
      <trkpt lat="50.4024" lon="3.50064">
        <ele>28.87</ele>
        <time>2011-06-26T08:03:39Z</time>
      </trkpt>
      <trkpt lat="50.40233" lon="3.50088">
        <ele>26.084</ele>
        <time>2011-06-26T08:03:43Z</time>
      </trkpt>
      <trkpt lat="50.4023" lon="3.50114">
        <ele>22.25</ele>
        <time>2011-06-26T08:03:46Z</time>
      </trkpt>
      <trkpt lat="50.40229" lon="3.50135">
        <ele>19.768</ele>
        <time>2011-06-26T08:03:49Z</time>
      </trkpt>
      <trkpt lat="50.40233" lon="3.5016">
        <ele>18.276</ele>
        <time>2011-06-26T08:03:52Z</time>
      </trkpt>
      <trkpt lat="50.40237" lon="3.50166">
        <ele>18.273</ele>
        <time>2011-06-26T08:03:53Z</time>
      </trkpt>
      <trkpt lat="50.40247" lon="3.50201">
        <ele>17.097</ele>
        <time>2011-06-26T08:03:59Z</time>
      </trkpt>
      <trkpt lat="50.40255" lon="3.50221">
        <ele>16.2</ele>
        <time>2011-06-26T08:04:04Z</time>
      </trkpt>
      <trkpt lat="50.40258" lon="3.50225">
        <ele>15.83</ele>
        <time>2011-06-26T08:04:05Z</time>
      </trkpt>
      <trkpt lat="50.40271" lon="3.50253">
        <ele>14.41</ele>
        <time>2011-06-26T08:04:10Z</time>
      </trkpt>
      <trkpt lat="50.40275" lon="3.50258">
        <ele>14.041</ele>
        <time>2011-06-26T08:04:12Z</time>
      </trkpt>
      <trkpt lat="50.4029" lon="3.50262">
        <ele>13.547</ele>
        <time>2011-06-26T08:04:16Z</time>
      </trkpt>
      <trkpt lat="50.40295" lon="3.50264">
        <ele>13.49</ele>
        <time>2011-06-26T08:04:17Z</time>
      </trkpt>
      <trkpt lat="50.40321" lon="3.50277">
        <ele>13.277</ele>
        <time>2011-06-26T08:04:22Z</time>
      </trkpt>
      <trkpt lat="50.40338" lon="3.50279">
        <ele>13.446</ele>
        <time>2011-06-26T08:04:26Z</time>
      </trkpt>
      <trkpt lat="50.40345" lon="3.5027">
        <ele>13.532</ele>
        <time>2011-06-26T08:04:28Z</time>
      </trkpt>
      <trkpt lat="50.40351" lon="3.50259">
        <ele>13.645</ele>
        <time>2011-06-26T08:04:30Z</time>
      </trkpt>
      <trkpt lat="50.40366" lon="3.50241">
        <ele>14.138</ele>
        <time>2011-06-26T08:04:34Z</time>
      </trkpt>
      <trkpt lat="50.4038" lon="3.50227">
        <ele>14.92</ele>
        <time>2011-06-26T08:04:38Z</time>
      </trkpt>
      <trkpt lat="50.40405" lon="3.50207">
        <ele>16.758</ele>
        <time>2011-06-26T08:04:46Z</time>
      </trkpt>
      <trkpt lat="50.40421" lon="3.50192">
        <ele>18.304</ele>
        <time>2011-06-26T08:04:52Z</time>
      </trkpt>
      <trkpt lat="50.40439" lon="3.50176">
        <ele>19.277</ele>
        <time>2011-06-26T08:04:58Z</time>
      </trkpt>
      <trkpt lat="50.40461" lon="3.50156">
        <ele>19.498</ele>
        <time>2011-06-26T08:05:05Z</time>
      </trkpt>
      <trkpt lat="50.40471" lon="3.50148">
        <ele>19.004</ele>
        <time>2011-06-26T08:05:08Z</time>
      </trkpt>
      <trkpt lat="50.40485" lon="3.50157">
        <ele>18.729</ele>
        <time>2011-06-26T08:05:12Z</time>
      </trkpt>
      <trkpt lat="50.40489" lon="3.5017">
        <ele>19.766</ele>
        <time>2011-06-26T08:05:16Z</time>
      </trkpt>
      <trkpt lat="50.40494" lon="3.50195">
        <ele>21.202</ele>
        <time>2011-06-26T08:05:23Z</time>
      </trkpt>
      <trkpt lat="50.40495" lon="3.50201">
        <ele>20.983</ele>
        <time>2011-06-26T08:05:24Z</time>
      </trkpt>
      <trkpt lat="50.40499" lon="3.50231">
        <ele>18.907</ele>
        <time>2011-06-26T08:05:27Z</time>
      </trkpt>
      <trkpt lat="50.40516" lon="3.50287">
        <ele>16.543</ele>
        <time>2011-06-26T08:05:33Z</time>
      </trkpt>
      <trkpt lat="50.40518" lon="3.50294">
        <ele>16.545</ele>
        <time>2011-06-26T08:05:34Z</time>
      </trkpt>
      <trkpt lat="50.40531" lon="3.50318">
        <ele>17.398</ele>
        <time>2011-06-26T08:05:39Z</time>
      </trkpt>
      <trkpt lat="50.40541" lon="3.50334">
        <ele>18.456</ele>
        <time>2011-06-26T08:05:43Z</time>
      </trkpt>
      <trkpt lat="50.40549" lon="3.50359">
        <ele>16.848</ele>
        <time>2011-06-26T08:05:47Z</time>
      </trkpt>
      <trkpt lat="50.40554" lon="3.50384">
        <ele>17.202</ele>
        <time>2011-06-26T08:05:51Z</time>
      </trkpt>
      <trkpt lat="50.40559" lon="3.50411">
        <ele>17.32</ele>
        <time>2011-06-26T08:05:55Z</time>
      </trkpt>
      <trkpt lat="50.40567" lon="3.50439">
        <ele>16.775</ele>
        <time>2011-06-26T08:05:59Z</time>
      </trkpt>
      <trkpt lat="50.40576" lon="3.50462">
        <ele>15.82</ele>
        <time>2011-06-26T08:06:03Z</time>
      </trkpt>
      <trkpt lat="50.40588" lon="3.50459">
        <ele>15.093</ele>
        <time>2011-06-26T08:06:07Z</time>
      </trkpt>
      <trkpt lat="50.40598" lon="3.50445">
        <ele>14.292</ele>
        <time>2011-06-26T08:06:10Z</time>
      </trkpt>
      <trkpt lat="50.40613" lon="3.50444">
        <ele>13.641</ele>
        <time>2011-06-26T08:06:13Z</time>
      </trkpt>
      <trkpt lat="50.40635" lon="3.5045">
        <ele>13.708</ele>
        <time>2011-06-26T08:06:19Z</time>
      </trkpt>
      <trkpt lat="50.40657" lon="3.50443">
        <ele>13.867</ele>
        <time>2011-06-26T08:06:25Z</time>
      </trkpt>
      <trkpt lat="50.4067" lon="3.50433">
        <ele>13.85</ele>
        <time>2011-06-26T08:06:29Z</time>
      </trkpt>
      <trkpt lat="50.40686" lon="3.5041">
        <ele>13.482</ele>
        <time>2011-06-26T08:06:35Z</time>
      </trkpt>
      <trkpt lat="50.40691" lon="3.50383">
        <ele>13.7</ele>
        <time>2011-06-26T08:06:40Z</time>
      </trkpt>
      <trkpt lat="50.40692" lon="3.50378">
        <ele>13.651</ele>
        <time>2011-06-26T08:06:41Z</time>
      </trkpt>
      <trkpt lat="50.40689" lon="3.50359">
        <ele>13.805</ele>
        <time>2011-06-26T08:06:45Z</time>
      </trkpt>
      <trkpt lat="50.40682" lon="3.50321">
        <ele>14.134</ele>
        <time>2011-06-26T08:06:52Z</time>
      </trkpt>
      <trkpt lat="50.40665" lon="3.5029">
        <ele>13.867</ele>
        <time>2011-06-26T08:06:58Z</time>
      </trkpt>
      <trkpt lat="50.4064" lon="3.50263">
        <ele>13.135</ele>
        <time>2011-06-26T08:07:04Z</time>
      </trkpt>
      <trkpt lat="50.40623" lon="3.50241">
        <ele>14.513</ele>
        <time>2011-06-26T08:07:10Z</time>
      </trkpt>
      <trkpt lat="50.40618" lon="3.50237">
        <ele>15.451</ele>
        <time>2011-06-26T08:07:14Z</time>
      </trkpt>
      <trkpt lat="50.40615" lon="3.50234">
        <ele>15.792</ele>
        <time>2011-06-26T08:07:18Z</time>
      </trkpt>
      <trkpt lat="50.40602" lon="3.50215">
        <ele>18.829</ele>
        <time>2011-06-26T08:07:26Z</time>
      </trkpt>
      <trkpt lat="50.40594" lon="3.50192">
        <ele>19.773</ele>
        <time>2011-06-26T08:07:34Z</time>
      </trkpt>
      <trkpt lat="50.40588" lon="3.50168">
        <ele>19.233</ele>
        <time>2011-06-26T08:07:40Z</time>
      </trkpt>
      <trkpt lat="50.40579" lon="3.50132">
        <ele>18.137</ele>
        <time>2011-06-26T08:07:45Z</time>
      </trkpt>
      <trkpt lat="50.40576" lon="3.50125">
        <ele>17.817</ele>
        <time>2011-06-26T08:07:46Z</time>
      </trkpt>
      <trkpt lat="50.40565" lon="3.50078">
        <ele>17.176</ele>
        <time>2011-06-26T08:07:53Z</time>
      </trkpt>
      <trkpt lat="50.40564" lon="3.50068">
        <ele>17.37</ele>
        <time>2011-06-26T08:07:55Z</time>
      </trkpt>
      <trkpt lat="50.40574" lon="3.50047">
        <ele>17.406</ele>
        <time>2011-06-26T08:08:00Z</time>
      </trkpt>
      <trkpt lat="50.40577" lon="3.50044">
        <ele>17.284</ele>
        <time>2011-06-26T08:08:01Z</time>
      </trkpt>
      <trkpt lat="50.4059" lon="3.50034">
        <ele>17.117</ele>
        <time>2011-06-26T08:08:06Z</time>
      </trkpt>
      <trkpt lat="50.40593" lon="3.50031">
        <ele>17.158</ele>
        <time>2011-06-26T08:08:07Z</time>
      </trkpt>
      <trkpt lat="50.4061" lon="3.50014">
        <ele>16.183</ele>
        <time>2011-06-26T08:08:11Z</time>
      </trkpt>
      <trkpt lat="50.40626" lon="3.50003">
        <ele>14.907</ele>
        <time>2011-06-26T08:08:14Z</time>
      </trkpt>
      <trkpt lat="50.40637" lon="3.49995">
        <ele>15.768</ele>
        <time>2011-06-26T08:08:18Z</time>
      </trkpt>
      <trkpt lat="50.40645" lon="3.49988">
        <ele>17.853</ele>
        <time>2011-06-26T08:08:24Z</time>
      </trkpt>
      <trkpt lat="50.40653" lon="3.49988">
        <ele>19.225</ele>
        <time>2011-06-26T08:08:29Z</time>
      </trkpt>
      <trkpt lat="50.40661" lon="3.49989">
        <ele>20.159</ele>
        <time>2011-06-26T08:08:34Z</time>
      </trkpt>
      <trkpt lat="50.40665" lon="3.50001">
        <ele>21.66</ele>
        <time>2011-06-26T08:08:40Z</time>
      </trkpt>
      <trkpt lat="50.40665" lon="3.50007">
        <ele>22.621</ele>
        <time>2011-06-26T08:08:45Z</time>
      </trkpt>
      <trkpt lat="50.40667" lon="3.5002">
        <ele>23.982</ele>
        <time>2011-06-26T08:08:54Z</time>
      </trkpt>
      <trkpt lat="50.40669" lon="3.50026">
        <ele>24.958</ele>
        <time>2011-06-26T08:09:01Z</time>
      </trkpt>
      <trkpt lat="50.40669" lon="3.50027">
        <ele>24.926</ele>
        <time>2011-06-26T08:09:02Z</time>
      </trkpt>
      <trkpt lat="50.40669" lon="3.50041">
        <ele>24.928</ele>
        <time>2011-06-26T08:09:08Z</time>
      </trkpt>
      <trkpt lat="50.40678" lon="3.50064">
        <ele>25.059</ele>
        <time>2011-06-26T08:09:15Z</time>
      </trkpt>
      <trkpt lat="50.40689" lon="3.50091">
        <ele>24.984</ele>
        <time>2011-06-26T08:09:22Z</time>
      </trkpt>
      <trkpt lat="50.40701" lon="3.50118">
        <ele>24.761</ele>
        <time>2011-06-26T08:09:28Z</time>
      </trkpt>
      <trkpt lat="50.40713" lon="3.50152">
        <ele>24.867</ele>
        <time>2011-06-26T08:09:35Z</time>
      </trkpt>
      <trkpt lat="50.4072" lon="3.5017">
        <ele>24.875</ele>
        <time>2011-06-26T08:09:40Z</time>
      </trkpt>
      <trkpt lat="50.40728" lon="3.50188">
        <ele>24.491</ele>
        <time>2011-06-26T08:09:45Z</time>
      </trkpt>
      <trkpt lat="50.40736" lon="3.50213">
        <ele>24.672</ele>
        <time>2011-06-26T08:09:50Z</time>
      </trkpt>
      <trkpt lat="50.4075" lon="3.50241">
        <ele>24.5</ele>
        <time>2011-06-26T08:09:56Z</time>
      </trkpt>
      <trkpt lat="50.40762" lon="3.5026">
        <ele>23.717</ele>
        <time>2011-06-26T08:10:01Z</time>
      </trkpt>
      <trkpt lat="50.40767" lon="3.50291">
        <ele>23.504</ele>
        <time>2011-06-26T08:10:07Z</time>
      </trkpt>
      <trkpt lat="50.40776" lon="3.50324">
        <ele>23.299</ele>
        <time>2011-06-26T08:10:13Z</time>
      </trkpt>
      <trkpt lat="50.40781" lon="3.50335">
        <ele>23.211</ele>
        <time>2011-06-26T08:10:15Z</time>
      </trkpt>
      <trkpt lat="50.40798" lon="3.50372">
        <ele>22.873</ele>
        <time>2011-06-26T08:10:22Z</time>
      </trkpt>
      <trkpt lat="50.40814" lon="3.50407">
        <ele>22.451</ele>
        <time>2011-06-26T08:10:29Z</time>
      </trkpt>
      <trkpt lat="50.4083" lon="3.50436">
        <ele>22.097</ele>
        <time>2011-06-26T08:10:35Z</time>
      </trkpt>
      <trkpt lat="50.40845" lon="3.50455">
        <ele>22.067</ele>
        <time>2011-06-26T08:10:40Z</time>
      </trkpt>
      <trkpt lat="50.40853" lon="3.50467">
        <ele>21.798</ele>
        <time>2011-06-26T08:10:43Z</time>
      </trkpt>
      <trkpt lat="50.40865" lon="3.50464">
        <ele>21.543</ele>
        <time>2011-06-26T08:10:47Z</time>
      </trkpt>
      <trkpt lat="50.40868" lon="3.50461">
        <ele>21.716</ele>
        <time>2011-06-26T08:10:48Z</time>
      </trkpt>
      <trkpt lat="50.40886" lon="3.5044">
        <ele>22.156</ele>
        <time>2011-06-26T08:10:55Z</time>
      </trkpt>
      <trkpt lat="50.40898" lon="3.50428">
        <ele>22.111</ele>
        <time>2011-06-26T08:11:00Z</time>
      </trkpt>
      <trkpt lat="50.40909" lon="3.50417">
        <ele>22.082</ele>
        <time>2011-06-26T08:11:05Z</time>
      </trkpt>
      <trkpt lat="50.40922" lon="3.50405">
        <ele>22.412</ele>
        <time>2011-06-26T08:11:11Z</time>
      </trkpt>
      <trkpt lat="50.40935" lon="3.50388">
        <ele>22.125</ele>
        <time>2011-06-26T08:11:17Z</time>
      </trkpt>
      <trkpt lat="50.40948" lon="3.50371">
        <ele>22.171</ele>
        <time>2011-06-26T08:11:23Z</time>
      </trkpt>
      <trkpt lat="50.40962" lon="3.50354">
        <ele>22.161</ele>
        <time>2011-06-26T08:11:29Z</time>
      </trkpt>
      <trkpt lat="50.4096" lon="3.50343">
        <ele>21.94</ele>
        <time>2011-06-26T08:11:33Z</time>
      </trkpt>
      <trkpt lat="50.40953" lon="3.50332">
        <ele>22.12</ele>
        <time>2011-06-26T08:11:37Z</time>
      </trkpt>
      <trkpt lat="50.40954" lon="3.50315">
        <ele>22.486</ele>
        <time>2011-06-26T08:11:41Z</time>
      </trkpt>
      <trkpt lat="50.40956" lon="3.50298">
        <ele>22.446</ele>
        <time>2011-06-26T08:11:44Z</time>
      </trkpt>
      <trkpt lat="50.4096" lon="3.50273">
        <ele>22.162</ele>
        <time>2011-06-26T08:11:48Z</time>
      </trkpt>
      <trkpt lat="50.40954" lon="3.50241">
        <ele>21.881</ele>
        <time>2011-06-26T08:11:54Z</time>
      </trkpt>
      <trkpt lat="50.40945" lon="3.50217">
        <ele>22.029</ele>
        <time>2011-06-26T08:11:59Z</time>
      </trkpt>
      <trkpt lat="50.40938" lon="3.50192">
        <ele>22.691</ele>
        <time>2011-06-26T08:12:05Z</time>
      </trkpt>
      <trkpt lat="50.40935" lon="3.50168">
        <ele>23.352</ele>
        <time>2011-06-26T08:12:11Z</time>
      </trkpt>
      <trkpt lat="50.40936" lon="3.50159">
        <ele>25.088</ele>
        <time>2011-06-26T08:12:15Z</time>
      </trkpt>
      <trkpt lat="50.40944" lon="3.50151">
        <ele>25.863</ele>
        <time>2011-06-26T08:12:19Z</time>
      </trkpt>
      <trkpt lat="50.40949" lon="3.50131">
        <ele>26.107</ele>
        <time>2011-06-26T08:12:26Z</time>
      </trkpt>
      <trkpt lat="50.40949" lon="3.50128">
        <ele>26.11</ele>
        <time>2011-06-26T08:12:27Z</time>
      </trkpt>
      <trkpt lat="50.40947" lon="3.5012">
        <ele>27.151</ele>
        <time>2011-06-26T08:12:34Z</time>
      </trkpt>
      <trkpt lat="50.40946" lon="3.50104">
        <ele>28.37</ele>
        <time>2011-06-26T08:12:44Z</time>
      </trkpt>
      <trkpt lat="50.40948" lon="3.5009">
        <ele>30.4</ele>
        <time>2011-06-26T08:12:53Z</time>
      </trkpt>
      <trkpt lat="50.40947" lon="3.50079">
        <ele>32.221</ele>
        <time>2011-06-26T08:13:01Z</time>
      </trkpt>
      <trkpt lat="50.40944" lon="3.50069">
        <ele>34.328</ele>
        <time>2011-06-26T08:13:11Z</time>
      </trkpt>
      <trkpt lat="50.40942" lon="3.50061">
        <ele>36.17</ele>
        <time>2011-06-26T08:13:18Z</time>
      </trkpt>
      <trkpt lat="50.40942" lon="3.50057">
        <ele>36.57</ele>
        <time>2011-06-26T08:13:21Z</time>
      </trkpt>
      <trkpt lat="50.40946" lon="3.50044">
        <ele>36.894</ele>
        <time>2011-06-26T08:13:29Z</time>
      </trkpt>
      <trkpt lat="50.40949" lon="3.50036">
        <ele>37.842</ele>
        <time>2011-06-26T08:13:35Z</time>
      </trkpt>
      <trkpt lat="50.40947" lon="3.5003">
        <ele>39.654</ele>
        <time>2011-06-26T08:13:42Z</time>
      </trkpt>
      <trkpt lat="50.40944" lon="3.50028">
        <ele>40.871</ele>
        <time>2011-06-26T08:13:48Z</time>
      </trkpt>
      <trkpt lat="50.40937" lon="3.50026">
        <ele>43.016</ele>
        <time>2011-06-26T08:13:58Z</time>
      </trkpt>
      <trkpt lat="50.40933" lon="3.50026">
        <ele>44.3</ele>
        <time>2011-06-26T08:14:05Z</time>
      </trkpt>
      <trkpt lat="50.40932" lon="3.50027">
        <ele>44.45</ele>
        <time>2011-06-26T08:14:07Z</time>
      </trkpt>
      <trkpt lat="50.40926" lon="3.50037">
        <ele>45.361</ele>
        <time>2011-06-26T08:14:17Z</time>
      </trkpt>
      <trkpt lat="50.40921" lon="3.50047">
        <ele>46.357</ele>
        <time>2011-06-26T08:14:25Z</time>
      </trkpt>
      <trkpt lat="50.40916" lon="3.50054">
        <ele>47.355</ele>
        <time>2011-06-26T08:14:31Z</time>
      </trkpt>
      <trkpt lat="50.40913" lon="3.5005">
        <ele>48.551</ele>
        <time>2011-06-26T08:14:36Z</time>
      </trkpt>
      <trkpt lat="50.40913" lon="3.50042">
        <ele>49.593</ele>
        <time>2011-06-26T08:14:42Z</time>
      </trkpt>
      <trkpt lat="50.40911" lon="3.50031">
        <ele>51.07</ele>
        <time>2011-06-26T08:14:50Z</time>
      </trkpt>
      <trkpt lat="50.4091" lon="3.50026">
        <ele>51.878</ele>
        <time>2011-06-26T08:14:54Z</time>
      </trkpt>
      <trkpt lat="50.40908" lon="3.50013">
        <ele>53.674</ele>
        <time>2011-06-26T08:15:04Z</time>
      </trkpt>
      <trkpt lat="50.40906" lon="3.50002">
        <ele>55.392</ele>
        <time>2011-06-26T08:15:11Z</time>
      </trkpt>
      <trkpt lat="50.40903" lon="3.49995">
        <ele>56.539</ele>
        <time>2011-06-26T08:15:19Z</time>
      </trkpt>
      <trkpt lat="50.40898" lon="3.49997">
        <ele>57.266</ele>
        <time>2011-06-26T08:15:26Z</time>
      </trkpt>
      <trkpt lat="50.40893" lon="3.50002">
        <ele>58.52</ele>
        <time>2011-06-26T08:15:35Z</time>
      </trkpt>
      <trkpt lat="50.4089" lon="3.50005">
        <ele>59.241</ele>
        <time>2011-06-26T08:15:50Z</time>
      </trkpt>
      <trkpt lat="50.40881" lon="3.50011">
        <ele>61.393</ele>
        <time>2011-06-26T08:16:01Z</time>
      </trkpt>
      <trkpt lat="50.4087" lon="3.50018">
        <ele>63.901</ele>
        <time>2011-06-26T08:16:13Z</time>
      </trkpt>
      <trkpt lat="50.40865" lon="3.50023">
        <ele>65.982</ele>
        <time>2011-06-26T08:16:22Z</time>
      </trkpt>
      <trkpt lat="50.4086" lon="3.50026">
        <ele>67.603</ele>
        <time>2011-06-26T08:16:31Z</time>
      </trkpt>
      <trkpt lat="50.40857" lon="3.5003">
        <ele>68.57</ele>
        <time>2011-06-26T08:16:37Z</time>
      </trkpt>
      <trkpt lat="50.40856" lon="3.50033">
        <ele>69.433</ele>
        <time>2011-06-26T08:16:43Z</time>
      </trkpt>
      <trkpt lat="50.40852" lon="3.50035">
        <ele>70.191</ele>
        <time>2011-06-26T08:16:52Z</time>
      </trkpt>
      <trkpt lat="50.40851" lon="3.50031">
        <ele>70.331</ele>
        <time>2011-06-26T08:16:56Z</time>
      </trkpt>
      <trkpt lat="50.4085" lon="3.50018">
        <ele>72.195</ele>
        <time>2011-06-26T08:17:06Z</time>
      </trkpt>
      <trkpt lat="50.4085" lon="3.50007">
        <ele>73.751</ele>
        <time>2011-06-26T08:17:15Z</time>
      </trkpt>
      <trkpt lat="50.4085" lon="3.49997">
        <ele>75.193</ele>
        <time>2011-06-26T08:17:23Z</time>
      </trkpt>
      <trkpt lat="50.40849" lon="3.49986">
        <ele>76.747</ele>
        <time>2011-06-26T08:17:32Z</time>
      </trkpt>
      <trkpt lat="50.40849" lon="3.49975">
        <ele>77.716</ele>
        <time>2011-06-26T08:17:40Z</time>
      </trkpt>
      <trkpt lat="50.40848" lon="3.49973">
        <ele>78.07</ele>
        <time>2011-06-26T08:17:45Z</time>
      </trkpt>
      <trkpt lat="50.40846" lon="3.49975">
        <ele>78.333</ele>
        <time>2011-06-26T08:18:11Z</time>
      </trkpt>
      <trkpt lat="50.4084" lon="3.49986">
        <ele>79.245</ele>
        <time>2011-06-26T08:18:20Z</time>
      </trkpt>
      <trkpt lat="50.40832" lon="3.50002">
        <ele>81.606</ele>
        <time>2011-06-26T08:18:30Z</time>
      </trkpt>
      <trkpt lat="50.40827" lon="3.50016">
        <ele>83.475</ele>
        <time>2011-06-26T08:18:39Z</time>
      </trkpt>
      <trkpt lat="50.40824" lon="3.50024">
        <ele>83.813</ele>
        <time>2011-06-26T08:18:46Z</time>
      </trkpt>
      <trkpt lat="50.40823" lon="3.50024">
        <ele>84.079</ele>
        <time>2011-06-26T08:18:50Z</time>
      </trkpt>
      <trkpt lat="50.4081" lon="3.50028">
        <ele>83.743</ele>
        <time>2011-06-26T08:18:56Z</time>
      </trkpt>
      <trkpt lat="50.40789" lon="3.5002">
        <ele>81.732</ele>
        <time>2011-06-26T08:19:01Z</time>
      </trkpt>
      <trkpt lat="50.40775" lon="3.49998">
        <ele>77.564</ele>
        <time>2011-06-26T08:19:08Z</time>
      </trkpt>
      <trkpt lat="50.40774" lon="3.49995">
        <ele>77.168</ele>
        <time>2011-06-26T08:19:09Z</time>
      </trkpt>
      <trkpt lat="50.4077" lon="3.50001">
        <ele>75.694</ele>
        <time>2011-06-26T08:19:13Z</time>
      </trkpt>
      <trkpt lat="50.40777" lon="3.50036">
        <ele>72.885</ele>
        <time>2011-06-26T08:19:22Z</time>
      </trkpt>
      <trkpt lat="50.40781" lon="3.50057">
        <ele>70.659</ele>
        <time>2011-06-26T08:19:28Z</time>
      </trkpt>
      <trkpt lat="50.40786" lon="3.50077">
        <ele>67.378</ele>
        <time>2011-06-26T08:19:33Z</time>
      </trkpt>
      <trkpt lat="50.4078" lon="3.50084">
        <ele>64.668</ele>
        <time>2011-06-26T08:19:37Z</time>
      </trkpt>
      <trkpt lat="50.40774" lon="3.50079">
        <ele>63.95</ele>
        <time>2011-06-26T08:19:39Z</time>
      </trkpt>
      <trkpt lat="50.40771" lon="3.50077">
        <ele>63.439</ele>
        <time>2011-06-26T08:19:40Z</time>
      </trkpt>
      <trkpt lat="50.40753" lon="3.50057">
        <ele>59.821</ele>
        <time>2011-06-26T08:19:46Z</time>
      </trkpt>
      <trkpt lat="50.4075" lon="3.50053">
        <ele>59.248</ele>
        <time>2011-06-26T08:19:47Z</time>
      </trkpt>
      <trkpt lat="50.40743" lon="3.50044">
        <ele>58.044</ele>
        <time>2011-06-26T08:19:49Z</time>
      </trkpt>
      <trkpt lat="50.40735" lon="3.50019">
        <ele>56.82</ele>
        <time>2011-06-26T08:19:53Z</time>
      </trkpt>
      <trkpt lat="50.40729" lon="3.49999">
        <ele>54.869</ele>
        <time>2011-06-26T08:19:58Z</time>
      </trkpt>
      <trkpt lat="50.40724" lon="3.49993">
        <ele>53.672</ele>
        <time>2011-06-26T08:20:00Z</time>
      </trkpt>
      <trkpt lat="50.40719" lon="3.49998">
        <ele>51.302</ele>
        <time>2011-06-26T08:20:04Z</time>
      </trkpt>
      <trkpt lat="50.40719" lon="3.50006">
        <ele>50.65</ele>
        <time>2011-06-26T08:20:06Z</time>
      </trkpt>
      <trkpt lat="50.40717" lon="3.50028">
        <ele>48.806</ele>
        <time>2011-06-26T08:20:10Z</time>
      </trkpt>
      <trkpt lat="50.4072" lon="3.5006">
        <ele>46.449</ele>
        <time>2011-06-26T08:20:15Z</time>
      </trkpt>
      <trkpt lat="50.40725" lon="3.50087">
        <ele>43.403</ele>
        <time>2011-06-26T08:20:20Z</time>
      </trkpt>
      <trkpt lat="50.40727" lon="3.50095">
        <ele>42.485</ele>
        <time>2011-06-26T08:20:22Z</time>
      </trkpt>
      <trkpt lat="50.4072" lon="3.50098">
        <ele>40.584</ele>
        <time>2011-06-26T08:20:26Z</time>
      </trkpt>
      <trkpt lat="50.40711" lon="3.50082">
        <ele>38.319</ele>
        <time>2011-06-26T08:20:30Z</time>
      </trkpt>
      <trkpt lat="50.40701" lon="3.5006">
        <ele>35.963</ele>
        <time>2011-06-26T08:20:34Z</time>
      </trkpt>
      <trkpt lat="50.40698" lon="3.50052">
        <ele>35.538</ele>
        <time>2011-06-26T08:20:35Z</time>
      </trkpt>
      <trkpt lat="50.40689" lon="3.50022">
        <ele>33.681</ele>
        <time>2011-06-26T08:20:39Z</time>
      </trkpt>
      <trkpt lat="50.40684" lon="3.49985">
        <ele>32.74</ele>
        <time>2011-06-26T08:20:44Z</time>
      </trkpt>
      <trkpt lat="50.40683" lon="3.49979">
        <ele>32.546</ele>
        <time>2011-06-26T08:20:45Z</time>
      </trkpt>
      <trkpt lat="50.40669" lon="3.49971">
        <ele>30.869</ele>
        <time>2011-06-26T08:20:49Z</time>
      </trkpt>
      <trkpt lat="50.40664" lon="3.4997">
        <ele>30.266</ele>
        <time>2011-06-26T08:20:50Z</time>
      </trkpt>
      <trkpt lat="50.40648" lon="3.49967">
        <ele>28.511</ele>
        <time>2011-06-26T08:20:53Z</time>
      </trkpt>
      <trkpt lat="50.40631" lon="3.49949">
        <ele>27.722</ele>
        <time>2011-06-26T08:20:57Z</time>
      </trkpt>
      <trkpt lat="50.40621" lon="3.49923">
        <ele>27.382</ele>
        <time>2011-06-26T08:21:01Z</time>
      </trkpt>
      <trkpt lat="50.40602" lon="3.49885">
        <ele>26.352</ele>
        <time>2011-06-26T08:21:07Z</time>
      </trkpt>
      <trkpt lat="50.40592" lon="3.49859">
        <ele>24.994</ele>
        <time>2011-06-26T08:21:12Z</time>
      </trkpt>
      <trkpt lat="50.40573" lon="3.49824">
        <ele>21.799</ele>
        <time>2011-06-26T08:21:17Z</time>
      </trkpt>
      <trkpt lat="50.40566" lon="3.49807">
        <ele>20.225</ele>
        <time>2011-06-26T08:21:19Z</time>
      </trkpt>
      <trkpt lat="50.40555" lon="3.49779">
        <ele>16.383</ele>
        <time>2011-06-26T08:21:24Z</time>
      </trkpt>
      <trkpt lat="50.40565" lon="3.49758">
        <ele>14.969</ele>
        <time>2011-06-26T08:21:29Z</time>
      </trkpt>
      <trkpt lat="50.40578" lon="3.49738">
        <ele>14.367</ele>
        <time>2011-06-26T08:21:34Z</time>
      </trkpt>
      <trkpt lat="50.40597" lon="3.49711">
        <ele>14.409</ele>
        <time>2011-06-26T08:21:41Z</time>
      </trkpt>
      <trkpt lat="50.40616" lon="3.49683">
        <ele>14.722</ele>
        <time>2011-06-26T08:21:47Z</time>
      </trkpt>
      <trkpt lat="50.40626" lon="3.49666">
        <ele>14.606</ele>
        <time>2011-06-26T08:21:50Z</time>
      </trkpt>
      <trkpt lat="50.40645" lon="3.49636">
        <ele>14.099</ele>
        <time>2011-06-26T08:21:55Z</time>
      </trkpt>
      <trkpt lat="50.40657" lon="3.4962">
        <ele>14.089</ele>
        <time>2011-06-26T08:21:58Z</time>
      </trkpt>
      <trkpt lat="50.40669" lon="3.4956">
        <ele>13.519</ele>
        <time>2011-06-26T08:22:05Z</time>
      </trkpt>
      <trkpt lat="50.40672" lon="3.49533">
        <ele>13.047</ele>
        <time>2011-06-26T08:22:08Z</time>
      </trkpt>
      <trkpt lat="50.40673" lon="3.49493">
        <ele>12.956</ele>
        <time>2011-06-26T08:22:13Z</time>
      </trkpt>
      <trkpt lat="50.40672" lon="3.49484">
        <ele>12.936</ele>
        <time>2011-06-26T08:22:14Z</time>
      </trkpt>
      <trkpt lat="50.4066" lon="3.4945">
        <ele>12.831</ele>
        <time>2011-06-26T08:22:19Z</time>
      </trkpt>
      <trkpt lat="50.40643" lon="3.49428">
        <ele>12.495</ele>
        <time>2011-06-26T08:22:23Z</time>
      </trkpt>
      <trkpt lat="50.4064" lon="3.49411">
        <ele>12.57</ele>
        <time>2011-06-26T08:22:25Z</time>
      </trkpt>
      <trkpt lat="50.40639" lon="3.49396">
        <ele>12.658</ele>
        <time>2011-06-26T08:22:27Z</time>
      </trkpt>
      <trkpt lat="50.40638" lon="3.49351">
        <ele>12.854</ele>
        <time>2011-06-26T08:22:33Z</time>
      </trkpt>
      <trkpt lat="50.40637" lon="3.49335">
        <ele>12.858</ele>
        <time>2011-06-26T08:22:35Z</time>
      </trkpt>
      <trkpt lat="50.40638" lon="3.49275">
        <ele>12.585</ele>
        <time>2011-06-26T08:22:42Z</time>
      </trkpt>
      <trkpt lat="50.40643" lon="3.4922">
        <ele>12.672</ele>
        <time>2011-06-26T08:22:49Z</time>
      </trkpt>
      <trkpt lat="50.40636" lon="3.49202">
        <ele>12.648</ele>
        <time>2011-06-26T08:22:53Z</time>
      </trkpt>
      <trkpt lat="50.40633" lon="3.49197">
        <ele>12.643</ele>
        <time>2011-06-26T08:22:54Z</time>
      </trkpt>
      <trkpt lat="50.40613" lon="3.49195">
        <ele>12.812</ele>
        <time>2011-06-26T08:22:58Z</time>
      </trkpt>
      <trkpt lat="50.40591" lon="3.49202">
        <ele>12.919</ele>
        <time>2011-06-26T08:23:02Z</time>
      </trkpt>
      <trkpt lat="50.40565" lon="3.49226">
        <ele>12.664</ele>
        <time>2011-06-26T08:23:08Z</time>
      </trkpt>
      <trkpt lat="50.4056" lon="3.4923">
        <ele>12.657</ele>
        <time>2011-06-26T08:23:09Z</time>
      </trkpt>
      <trkpt lat="50.40544" lon="3.49262">
        <ele>12.876</ele>
        <time>2011-06-26T08:23:14Z</time>
      </trkpt>
      <trkpt lat="50.40523" lon="3.49289">
        <ele>12.872</ele>
        <time>2011-06-26T08:23:19Z</time>
      </trkpt>
      <trkpt lat="50.40513" lon="3.49295">
        <ele>12.889</ele>
        <time>2011-06-26T08:23:21Z</time>
      </trkpt>
      <trkpt lat="50.40489" lon="3.49312">
        <ele>13.099</ele>
        <time>2011-06-26T08:23:26Z</time>
      </trkpt>
      <trkpt lat="50.40467" lon="3.4931">
        <ele>13.141</ele>
        <time>2011-06-26T08:23:31Z</time>
      </trkpt>
      <trkpt lat="50.40456" lon="3.49289">
        <ele>13.636</ele>
        <time>2011-06-26T08:23:35Z</time>
      </trkpt>
      <trkpt lat="50.40441" lon="3.49249">
        <ele>13.895</ele>
        <time>2011-06-26T08:23:41Z</time>
      </trkpt>
      <trkpt lat="50.40438" lon="3.49243">
        <ele>14.014</ele>
        <time>2011-06-26T08:23:42Z</time>
      </trkpt>
      <trkpt lat="50.40426" lon="3.49228">
        <ele>14.095</ele>
        <time>2011-06-26T08:23:45Z</time>
      </trkpt>
      <trkpt lat="50.40413" lon="3.49204">
        <ele>14.297</ele>
        <time>2011-06-26T08:23:49Z</time>
      </trkpt>
      <trkpt lat="50.40405" lon="3.49174">
        <ele>14.498</ele>
        <time>2011-06-26T08:23:53Z</time>
      </trkpt>
      <trkpt lat="50.40411" lon="3.49143">
        <ele>14.72</ele>
        <time>2011-06-26T08:23:57Z</time>
      </trkpt>
      <trkpt lat="50.40415" lon="3.49138">
        <ele>14.616</ele>
        <time>2011-06-26T08:23:58Z</time>
      </trkpt>
      <trkpt lat="50.40422" lon="3.49127">
        <ele>14.732</ele>
        <time>2011-06-26T08:24:00Z</time>
      </trkpt>
      <trkpt lat="50.40437" lon="3.49107">
        <ele>14.792</ele>
        <time>2011-06-26T08:24:04Z</time>
      </trkpt>
      <trkpt lat="50.40471" lon="3.49072">
        <ele>14.748</ele>
        <time>2011-06-26T08:24:11Z</time>
      </trkpt>
      <trkpt lat="50.40476" lon="3.49066">
        <ele>14.747</ele>
        <time>2011-06-26T08:24:12Z</time>
      </trkpt>
      <trkpt lat="50.40488" lon="3.49042">
        <ele>15.089</ele>
        <time>2011-06-26T08:24:16Z</time>
      </trkpt>
      <trkpt lat="50.40497" lon="3.49028">
        <ele>15.297</ele>
        <time>2011-06-26T08:24:19Z</time>
      </trkpt>
      <trkpt lat="50.40503" lon="3.49016">
        <ele>15.326</ele>
        <time>2011-06-26T08:24:21Z</time>
      </trkpt>
      <trkpt lat="50.40502" lon="3.48997">
        <ele>15.01</ele>
        <time>2011-06-26T08:24:25Z</time>
      </trkpt>
      <trkpt lat="50.40498" lon="3.48994">
        <ele>14.979</ele>
        <time>2011-06-26T08:24:26Z</time>
      </trkpt>
      <trkpt lat="50.40482" lon="3.48978">
        <ele>15.401</ele>
        <time>2011-06-26T08:24:31Z</time>
      </trkpt>
      <trkpt lat="50.40462" lon="3.48962">
        <ele>15.451</ele>
        <time>2011-06-26T08:24:36Z</time>
      </trkpt>
      <trkpt lat="50.40437" lon="3.48945">
        <ele>16.105</ele>
        <time>2011-06-26T08:24:42Z</time>
      </trkpt>
      <trkpt lat="50.40406" lon="3.48924">
        <ele>15.571</ele>
        <time>2011-06-26T08:24:49Z</time>
      </trkpt>
      <trkpt lat="50.40391" lon="3.48912">
        <ele>15.993</ele>
        <time>2011-06-26T08:24:54Z</time>
      </trkpt>
      <trkpt lat="50.40392" lon="3.48913">
        <ele>15.858</ele>
        <time>2011-06-26T08:24:57Z</time>
      </trkpt>
      <trkpt lat="50.40399" lon="3.48899">
        <ele>15.836</ele>
        <time>2011-06-26T08:25:01Z</time>
      </trkpt>
      <trkpt lat="50.40415" lon="3.48861">
        <ele>16.064</ele>
        <time>2011-06-26T08:25:08Z</time>
      </trkpt>
      <trkpt lat="50.40433" lon="3.48825">
        <ele>16.101</ele>
        <time>2011-06-26T08:25:15Z</time>
      </trkpt>
      <trkpt lat="50.40448" lon="3.48796">
        <ele>16.003</ele>
        <time>2011-06-26T08:25:20Z</time>
      </trkpt>
      <trkpt lat="50.4046" lon="3.4877">
        <ele>15.754</ele>
        <time>2011-06-26T08:25:25Z</time>
      </trkpt>
      <trkpt lat="50.40471" lon="3.48741">
        <ele>15.548</ele>
        <time>2011-06-26T08:25:31Z</time>
      </trkpt>
      <trkpt lat="50.40475" lon="3.48729">
        <ele>15.632</ele>
        <time>2011-06-26T08:25:34Z</time>
      </trkpt>
      <trkpt lat="50.40481" lon="3.48718">
        <ele>15.758</ele>
        <time>2011-06-26T08:25:36Z</time>
      </trkpt>
      <trkpt lat="50.40494" lon="3.4869">
        <ele>15.861</ele>
        <time>2011-06-26T08:25:41Z</time>
      </trkpt>
      <trkpt lat="50.40504" lon="3.48667">
        <ele>15.624</ele>
        <time>2011-06-26T08:25:47Z</time>
      </trkpt>
      <trkpt lat="50.40515" lon="3.48658">
        <ele>15.561</ele>
        <time>2011-06-26T08:25:51Z</time>
      </trkpt>
      <trkpt lat="50.40519" lon="3.48657">
        <ele>15.639</ele>
        <time>2011-06-26T08:25:52Z</time>
      </trkpt>
      <trkpt lat="50.40533" lon="3.48632">
        <ele>15.972</ele>
        <time>2011-06-26T08:25:57Z</time>
      </trkpt>
      <trkpt lat="50.40541" lon="3.48614">
        <ele>15.868</ele>
        <time>2011-06-26T08:26:00Z</time>
      </trkpt>
      <trkpt lat="50.40566" lon="3.48562">
        <ele>15.491</ele>
        <time>2011-06-26T08:26:08Z</time>
      </trkpt>
      <trkpt lat="50.40594" lon="3.48498">
        <ele>14.896</ele>
        <time>2011-06-26T08:26:17Z</time>
      </trkpt>
      <trkpt lat="50.40612" lon="3.48452">
        <ele>14.96</ele>
        <time>2011-06-26T08:26:24Z</time>
      </trkpt>
      <trkpt lat="50.4063" lon="3.48408">
        <ele>15.161</ele>
        <time>2011-06-26T08:26:32Z</time>
      </trkpt>
      <trkpt lat="50.40638" lon="3.48391">
        <ele>14.949</ele>
        <time>2011-06-26T08:26:35Z</time>
      </trkpt>
      <trkpt lat="50.40656" lon="3.48349">
        <ele>14.818</ele>
        <time>2011-06-26T08:26:43Z</time>
      </trkpt>
      <trkpt lat="50.40665" lon="3.48327">
        <ele>15.002</ele>
        <time>2011-06-26T08:26:47Z</time>
      </trkpt>
      <trkpt lat="50.40671" lon="3.48317">
        <ele>14.984</ele>
        <time>2011-06-26T08:26:49Z</time>
      </trkpt>
      <trkpt lat="50.40685" lon="3.48287">
        <ele>14.904</ele>
        <time>2011-06-26T08:26:55Z</time>
      </trkpt>
      <trkpt lat="50.40696" lon="3.48259">
        <ele>15.037</ele>
        <time>2011-06-26T08:27:01Z</time>
      </trkpt>
      <trkpt lat="50.40713" lon="3.4822">
        <ele>15.424</ele>
        <time>2011-06-26T08:27:08Z</time>
      </trkpt>
      <trkpt lat="50.40736" lon="3.48168">
        <ele>15.38</ele>
        <time>2011-06-26T08:27:17Z</time>
      </trkpt>
      <trkpt lat="50.40752" lon="3.48132">
        <ele>15.52</ele>
        <time>2011-06-26T08:27:24Z</time>
      </trkpt>
      <trkpt lat="50.40765" lon="3.48104">
        <ele>15.297</ele>
        <time>2011-06-26T08:27:30Z</time>
      </trkpt>
      <trkpt lat="50.40776" lon="3.48077">
        <ele>15.364</ele>
        <time>2011-06-26T08:27:36Z</time>
      </trkpt>
      <trkpt lat="50.40785" lon="3.48055">
        <ele>15.415</ele>
        <time>2011-06-26T08:27:41Z</time>
      </trkpt>
      <trkpt lat="50.40795" lon="3.4803">
        <ele>15.476</ele>
        <time>2011-06-26T08:27:46Z</time>
      </trkpt>
      <trkpt lat="50.40808" lon="3.48002">
        <ele>15.576</ele>
        <time>2011-06-26T08:27:52Z</time>
      </trkpt>
      <trkpt lat="50.40822" lon="3.47976">
        <ele>15.761</ele>
        <time>2011-06-26T08:27:58Z</time>
      </trkpt>
      <trkpt lat="50.40838" lon="3.4794">
        <ele>16.024</ele>
        <time>2011-06-26T08:28:05Z</time>
      </trkpt>
      <trkpt lat="50.40852" lon="3.47906">
        <ele>16.027</ele>
        <time>2011-06-26T08:28:12Z</time>
      </trkpt>
      <trkpt lat="50.40866" lon="3.4787">
        <ele>16.281</ele>
        <time>2011-06-26T08:28:19Z</time>
      </trkpt>
      <trkpt lat="50.40888" lon="3.47831">
        <ele>16.542</ele>
        <time>2011-06-26T08:28:27Z</time>
      </trkpt>
      <trkpt lat="50.40902" lon="3.4781">
        <ele>16.088</ele>
        <time>2011-06-26T08:28:32Z</time>
      </trkpt>
      <trkpt lat="50.40911" lon="3.47795">
        <ele>16.407</ele>
        <time>2011-06-26T08:28:37Z</time>
      </trkpt>
      <trkpt lat="50.4092" lon="3.47782">
        <ele>16.346</ele>
        <time>2011-06-26T08:28:42Z</time>
      </trkpt>
      <trkpt lat="50.40936" lon="3.47765">
        <ele>16.339</ele>
        <time>2011-06-26T08:28:47Z</time>
      </trkpt>
      <trkpt lat="50.40957" lon="3.47736">
        <ele>16.536</ele>
        <time>2011-06-26T08:28:54Z</time>
      </trkpt>
      <trkpt lat="50.40981" lon="3.47707">
        <ele>16.677</ele>
        <time>2011-06-26T08:29:01Z</time>
      </trkpt>
      <trkpt lat="50.41003" lon="3.47683">
        <ele>16.815</ele>
        <time>2011-06-26T08:29:07Z</time>
      </trkpt>
      <trkpt lat="50.41023" lon="3.4766">
        <ele>17.049</ele>
        <time>2011-06-26T08:29:13Z</time>
      </trkpt>
      <trkpt lat="50.41055" lon="3.4763">
        <ele>17.02</ele>
        <time>2011-06-26T08:29:21Z</time>
      </trkpt>
      <trkpt lat="50.41085" lon="3.47602">
        <ele>17.062</ele>
        <time>2011-06-26T08:29:29Z</time>
      </trkpt>
      <trkpt lat="50.41106" lon="3.47579">
        <ele>17.014</ele>
        <time>2011-06-26T08:29:35Z</time>
      </trkpt>
      <trkpt lat="50.41132" lon="3.47554">
        <ele>17.492</ele>
        <time>2011-06-26T08:29:42Z</time>
      </trkpt>
      <trkpt lat="50.41157" lon="3.47532">
        <ele>17.871</ele>
        <time>2011-06-26T08:29:49Z</time>
      </trkpt>
      <trkpt lat="50.41172" lon="3.4752">
        <ele>17.83</ele>
        <time>2011-06-26T08:29:53Z</time>
      </trkpt>
      <trkpt lat="50.41207" lon="3.47489">
        <ele>17.858</ele>
        <time>2011-06-26T08:30:02Z</time>
      </trkpt>
      <trkpt lat="50.41248" lon="3.47451">
        <ele>17.87</ele>
        <time>2011-06-26T08:30:12Z</time>
      </trkpt>
      <trkpt lat="50.41275" lon="3.47428">
        <ele>17.909</ele>
        <time>2011-06-26T08:30:18Z</time>
      </trkpt>
      <trkpt lat="50.41295" lon="3.47407">
        <ele>17.762</ele>
        <time>2011-06-26T08:30:23Z</time>
      </trkpt>
      <trkpt lat="50.41328" lon="3.47379">
        <ele>17.855</ele>
        <time>2011-06-26T08:30:31Z</time>
      </trkpt>
      <trkpt lat="50.41361" lon="3.47349">
        <ele>17.959</ele>
        <time>2011-06-26T08:30:39Z</time>
      </trkpt>
      <trkpt lat="50.41393" lon="3.4732">
        <ele>17.955</ele>
        <time>2011-06-26T08:30:47Z</time>
      </trkpt>
      <trkpt lat="50.41416" lon="3.47298">
        <ele>18.147</ele>
        <time>2011-06-26T08:30:53Z</time>
      </trkpt>
      <trkpt lat="50.41451" lon="3.47265">
        <ele>18.153</ele>
        <time>2011-06-26T08:31:02Z</time>
      </trkpt>
      <trkpt lat="50.41474" lon="3.4724">
        <ele>17.778</ele>
        <time>2011-06-26T08:31:08Z</time>
      </trkpt>
      <trkpt lat="50.41505" lon="3.47211">
        <ele>16.814</ele>
        <time>2011-06-26T08:31:15Z</time>
      </trkpt>
      <trkpt lat="50.4153" lon="3.47186">
        <ele>16.32</ele>
        <time>2011-06-26T08:31:22Z</time>
      </trkpt>
      <trkpt lat="50.41558" lon="3.4716">
        <ele>15.888</ele>
        <time>2011-06-26T08:31:29Z</time>
      </trkpt>
      <trkpt lat="50.41561" lon="3.47156">
        <ele>15.887</ele>
        <time>2011-06-26T08:31:30Z</time>
      </trkpt>
      <trkpt lat="50.41575" lon="3.47143">
        <ele>15.806</ele>
        <time>2011-06-26T08:31:34Z</time>
      </trkpt>
      <trkpt lat="50.41609" lon="3.47115">
        <ele>16.357</ele>
        <time>2011-06-26T08:31:44Z</time>
      </trkpt>
      <trkpt lat="50.41632" lon="3.47096">
        <ele>17.006</ele>
        <time>2011-06-26T08:31:51Z</time>
      </trkpt>
      <trkpt lat="50.4166" lon="3.4707">
        <ele>17.883</ele>
        <time>2011-06-26T08:31:59Z</time>
      </trkpt>
      <trkpt lat="50.41683" lon="3.47047">
        <ele>18.14</ele>
        <time>2011-06-26T08:32:06Z</time>
      </trkpt>
      <trkpt lat="50.417" lon="3.47033">
        <ele>18.718</ele>
        <time>2011-06-26T08:32:11Z</time>
      </trkpt>
      <trkpt lat="50.41707" lon="3.47014">
        <ele>18.734</ele>
        <time>2011-06-26T08:32:15Z</time>
      </trkpt>
      <trkpt lat="50.41707" lon="3.47009">
        <ele>18.759</ele>
        <time>2011-06-26T08:32:16Z</time>
      </trkpt>
      <trkpt lat="50.41696" lon="3.46999">
        <ele>18.68</ele>
        <time>2011-06-26T08:32:20Z</time>
      </trkpt>
      <trkpt lat="50.41676" lon="3.46999">
        <ele>18.498</ele>
        <time>2011-06-26T08:32:25Z</time>
      </trkpt>
      <trkpt lat="50.41673" lon="3.46997">
        <ele>18.407</ele>
        <time>2011-06-26T08:32:26Z</time>
      </trkpt>
      <trkpt lat="50.41648" lon="3.47001">
        <ele>18.354</ele>
        <time>2011-06-26T08:32:32Z</time>
      </trkpt>
      <trkpt lat="50.4163" lon="3.47002">
        <ele>18.428</ele>
        <time>2011-06-26T08:32:37Z</time>
      </trkpt>
      <trkpt lat="50.41617" lon="3.47002">
        <ele>18.157</ele>
        <time>2011-06-26T08:32:40Z</time>
      </trkpt>
      <trkpt lat="50.41604" lon="3.47004">
        <ele>17.867</ele>
        <time>2011-06-26T08:32:43Z</time>
      </trkpt>
      <trkpt lat="50.41576" lon="3.47007">
        <ele>16.879</ele>
        <time>2011-06-26T08:32:49Z</time>
      </trkpt>
      <trkpt lat="50.41565" lon="3.47007">
        <ele>16.522</ele>
        <time>2011-06-26T08:32:51Z</time>
      </trkpt>
      <trkpt lat="50.41537" lon="3.47012">
        <ele>16.074</ele>
        <time>2011-06-26T08:32:56Z</time>
      </trkpt>
      <trkpt lat="50.41514" lon="3.47014">
        <ele>15.834</ele>
        <time>2011-06-26T08:33:01Z</time>
      </trkpt>
      <trkpt lat="50.41499" lon="3.47018">
        <ele>15.771</ele>
        <time>2011-06-26T08:33:05Z</time>
      </trkpt>
      <trkpt lat="50.41481" lon="3.47018">
        <ele>15.999</ele>
        <time>2011-06-26T08:33:09Z</time>
      </trkpt>
      <trkpt lat="50.41461" lon="3.47021">
        <ele>16.292</ele>
        <time>2011-06-26T08:33:13Z</time>
      </trkpt>
      <trkpt lat="50.41424" lon="3.47026">
        <ele>16.323</ele>
        <time>2011-06-26T08:33:20Z</time>
      </trkpt>
      <trkpt lat="50.41387" lon="3.47032">
        <ele>16.034</ele>
        <time>2011-06-26T08:33:27Z</time>
      </trkpt>
      <trkpt lat="50.41354" lon="3.47034">
        <ele>15.656</ele>
        <time>2011-06-26T08:33:33Z</time>
      </trkpt>
      <trkpt lat="50.41311" lon="3.47039">
        <ele>15.327</ele>
        <time>2011-06-26T08:33:41Z</time>
      </trkpt>
      <trkpt lat="50.4127" lon="3.47045">
        <ele>15.424</ele>
        <time>2011-06-26T08:33:49Z</time>
      </trkpt>
      <trkpt lat="50.41238" lon="3.47049">
        <ele>15.872</ele>
        <time>2011-06-26T08:33:56Z</time>
      </trkpt>
      <trkpt lat="50.41214" lon="3.47052">
        <ele>16.113</ele>
        <time>2011-06-26T08:34:01Z</time>
      </trkpt>
      <trkpt lat="50.41199" lon="3.47053">
        <ele>16.328</ele>
        <time>2011-06-26T08:34:05Z</time>
      </trkpt>
      <trkpt lat="50.4116" lon="3.47057">
        <ele>16.541</ele>
        <time>2011-06-26T08:34:13Z</time>
      </trkpt>
      <trkpt lat="50.41156" lon="3.47058">
        <ele>16.57</ele>
        <time>2011-06-26T08:34:14Z</time>
      </trkpt>
      <trkpt lat="50.41141" lon="3.47059">
        <ele>16.474</ele>
        <time>2011-06-26T08:34:18Z</time>
      </trkpt>
      <trkpt lat="50.41128" lon="3.47061">
        <ele>16.461</ele>
        <time>2011-06-26T08:34:21Z</time>
      </trkpt>
      <trkpt lat="50.41107" lon="3.47063">
        <ele>16.455</ele>
        <time>2011-06-26T08:34:26Z</time>
      </trkpt>
      <trkpt lat="50.41088" lon="3.47066">
        <ele>16.588</ele>
        <time>2011-06-26T08:34:30Z</time>
      </trkpt>
      <trkpt lat="50.41054" lon="3.47069">
        <ele>16.926</ele>
        <time>2011-06-26T08:34:37Z</time>
      </trkpt>
      <trkpt lat="50.4103" lon="3.47071">
        <ele>17.005</ele>
        <time>2011-06-26T08:34:43Z</time>
      </trkpt>
      <trkpt lat="50.4101" lon="3.47073">
        <ele>16.996</ele>
        <time>2011-06-26T08:34:48Z</time>
      </trkpt>
      <trkpt lat="50.4099" lon="3.47075">
        <ele>17.26</ele>
        <time>2011-06-26T08:34:53Z</time>
      </trkpt>
      <trkpt lat="50.40981" lon="3.47075">
        <ele>17.171</ele>
        <time>2011-06-26T08:34:55Z</time>
      </trkpt>
      <trkpt lat="50.40945" lon="3.47079">
        <ele>16.484</ele>
        <time>2011-06-26T08:35:02Z</time>
      </trkpt>
      <trkpt lat="50.40915" lon="3.47084">
        <ele>16.548</ele>
        <time>2011-06-26T08:35:08Z</time>
      </trkpt>
      <trkpt lat="50.40886" lon="3.47088">
        <ele>16.293</ele>
        <time>2011-06-26T08:35:14Z</time>
      </trkpt>
      <trkpt lat="50.40866" lon="3.47091">
        <ele>15.949</ele>
        <time>2011-06-26T08:35:19Z</time>
      </trkpt>
      <trkpt lat="50.40839" lon="3.47091">
        <ele>15.637</ele>
        <time>2011-06-26T08:35:25Z</time>
      </trkpt>
      <trkpt lat="50.40803" lon="3.47093">
        <ele>14.868</ele>
        <time>2011-06-26T08:35:32Z</time>
      </trkpt>
      <trkpt lat="50.40769" lon="3.47097">
        <ele>14.654</ele>
        <time>2011-06-26T08:35:39Z</time>
      </trkpt>
      <trkpt lat="50.40732" lon="3.471">
        <ele>14.592</ele>
        <time>2011-06-26T08:35:47Z</time>
      </trkpt>
      <trkpt lat="50.40705" lon="3.47102">
        <ele>14.234</ele>
        <time>2011-06-26T08:35:54Z</time>
      </trkpt>
      <trkpt lat="50.40699" lon="3.471">
        <ele>14.108</ele>
        <time>2011-06-26T08:35:56Z</time>
      </trkpt>
      <trkpt lat="50.40691" lon="3.47091">
        <ele>14.05</ele>
        <time>2011-06-26T08:35:59Z</time>
      </trkpt>
      <trkpt lat="50.40682" lon="3.47053">
        <ele>14.361</ele>
        <time>2011-06-26T08:36:05Z</time>
      </trkpt>
      <trkpt lat="50.4067" lon="3.46989">
        <ele>13.975</ele>
        <time>2011-06-26T08:36:13Z</time>
      </trkpt>
      <trkpt lat="50.40658" lon="3.4692">
        <ele>13.997</ele>
        <time>2011-06-26T08:36:21Z</time>
      </trkpt>
      <trkpt lat="50.40644" lon="3.46845">
        <ele>13.766</ele>
        <time>2011-06-26T08:36:30Z</time>
      </trkpt>
      <trkpt lat="50.40636" lon="3.46796">
        <ele>13.834</ele>
        <time>2011-06-26T08:36:36Z</time>
      </trkpt>
      <trkpt lat="50.40624" lon="3.46737">
        <ele>13.978</ele>
        <time>2011-06-26T08:36:44Z</time>
      </trkpt>
      <trkpt lat="50.40618" lon="3.467">
        <ele>14.049</ele>
        <time>2011-06-26T08:36:49Z</time>
      </trkpt>
      <trkpt lat="50.40607" lon="3.46652">
        <ele>13.899</ele>
        <time>2011-06-26T08:36:56Z</time>
      </trkpt>
      <trkpt lat="50.40597" lon="3.46594">
        <ele>14.084</ele>
        <time>2011-06-26T08:37:04Z</time>
      </trkpt>
      <trkpt lat="50.40589" lon="3.46539">
        <ele>14.065</ele>
        <time>2011-06-26T08:37:11Z</time>
      </trkpt>
      <trkpt lat="50.40584" lon="3.46509">
        <ele>13.935</ele>
        <time>2011-06-26T08:37:15Z</time>
      </trkpt>
      <trkpt lat="50.40573" lon="3.46493">
        <ele>13.652</ele>
        <time>2011-06-26T08:37:19Z</time>
      </trkpt>
      <trkpt lat="50.40561" lon="3.46506">
        <ele>13.594</ele>
        <time>2011-06-26T08:37:22Z</time>
      </trkpt>
      <trkpt lat="50.40545" lon="3.46524">
        <ele>13.614</ele>
        <time>2011-06-26T08:37:27Z</time>
      </trkpt>
      <trkpt lat="50.40538" lon="3.46525">
        <ele>13.759</ele>
        <time>2011-06-26T08:37:29Z</time>
      </trkpt>
      <trkpt lat="50.40527" lon="3.46513">
        <ele>13.876</ele>
        <time>2011-06-26T08:37:33Z</time>
      </trkpt>
      <trkpt lat="50.40524" lon="3.4651">
        <ele>13.91</ele>
        <time>2011-06-26T08:37:34Z</time>
      </trkpt>
      <trkpt lat="50.40507" lon="3.46487">
        <ele>14.602</ele>
        <time>2011-06-26T08:37:40Z</time>
      </trkpt>
      <trkpt lat="50.405" lon="3.46481">
        <ele>14.74</ele>
        <time>2011-06-26T08:37:42Z</time>
      </trkpt>
      <trkpt lat="50.40482" lon="3.4648">
        <ele>14.891</ele>
        <time>2011-06-26T08:37:46Z</time>
      </trkpt>
      <trkpt lat="50.4047" lon="3.46482">
        <ele>14.941</ele>
        <time>2011-06-26T08:37:49Z</time>
      </trkpt>
      <trkpt lat="50.40451" lon="3.46495">
        <ele>14.949</ele>
        <time>2011-06-26T08:37:54Z</time>
      </trkpt>
      <trkpt lat="50.40424" lon="3.46499">
        <ele>15.547</ele>
        <time>2011-06-26T08:38:00Z</time>
      </trkpt>
      <trkpt lat="50.40397" lon="3.46495">
        <ele>15.603</ele>
        <time>2011-06-26T08:38:06Z</time>
      </trkpt>
      <trkpt lat="50.4039" lon="3.4649">
        <ele>15.733</ele>
        <time>2011-06-26T08:38:08Z</time>
      </trkpt>
      <trkpt lat="50.4038" lon="3.46467">
        <ele>15.84</ele>
        <time>2011-06-26T08:38:12Z</time>
      </trkpt>
      <trkpt lat="50.40362" lon="3.46404">
        <ele>16.413</ele>
        <time>2011-06-26T08:38:22Z</time>
      </trkpt>
      <trkpt lat="50.40353" lon="3.46369">
        <ele>16.77</ele>
        <time>2011-06-26T08:38:28Z</time>
      </trkpt>
      <trkpt lat="50.40346" lon="3.4635">
        <ele>16.543</ele>
        <time>2011-06-26T08:38:32Z</time>
      </trkpt>
      <trkpt lat="50.40329" lon="3.4634">
        <ele>16.409</ele>
        <time>2011-06-26T08:38:37Z</time>
      </trkpt>
      <trkpt lat="50.4031" lon="3.46331">
        <ele>16.62</ele>
        <time>2011-06-26T08:38:43Z</time>
      </trkpt>
      <trkpt lat="50.40295" lon="3.463">
        <ele>16.607</ele>
        <time>2011-06-26T08:38:49Z</time>
      </trkpt>
      <trkpt lat="50.40288" lon="3.46283">
        <ele>16.626</ele>
        <time>2011-06-26T08:38:52Z</time>
      </trkpt>
      <trkpt lat="50.4027" lon="3.46243">
        <ele>17.245</ele>
        <time>2011-06-26T08:38:59Z</time>
      </trkpt>
      <trkpt lat="50.40245" lon="3.46183">
        <ele>17.665</ele>
        <time>2011-06-26T08:39:09Z</time>
      </trkpt>
      <trkpt lat="50.40223" lon="3.4613">
        <ele>17.839</ele>
        <time>2011-06-26T08:39:18Z</time>
      </trkpt>
      <trkpt lat="50.40211" lon="3.461">
        <ele>17.879</ele>
        <time>2011-06-26T08:39:24Z</time>
      </trkpt>
      <trkpt lat="50.4021" lon="3.46095">
        <ele>17.911</ele>
        <time>2011-06-26T08:39:25Z</time>
      </trkpt>
      <trkpt lat="50.4021" lon="3.46069">
        <ele>17.997</ele>
        <time>2011-06-26T08:39:29Z</time>
      </trkpt>
      <trkpt lat="50.40225" lon="3.46016">
        <ele>17.872</ele>
        <time>2011-06-26T08:39:36Z</time>
      </trkpt>
      <trkpt lat="50.40238" lon="3.45962">
        <ele>17.716</ele>
        <time>2011-06-26T08:39:43Z</time>
      </trkpt>
      <trkpt lat="50.40242" lon="3.45948">
        <ele>17.899</ele>
        <time>2011-06-26T08:39:45Z</time>
      </trkpt>
      <trkpt lat="50.40237" lon="3.45927">
        <ele>18.071</ele>
        <time>2011-06-26T08:39:49Z</time>
      </trkpt>
      <trkpt lat="50.40234" lon="3.45924">
        <ele>18.104</ele>
        <time>2011-06-26T08:39:50Z</time>
      </trkpt>
      <trkpt lat="50.40223" lon="3.45916">
        <ele>18.328</ele>
        <time>2011-06-26T08:39:53Z</time>
      </trkpt>
      <trkpt lat="50.40199" lon="3.45899">
        <ele>18.363</ele>
        <time>2011-06-26T08:39:59Z</time>
      </trkpt>
      <trkpt lat="50.40193" lon="3.45896">
        <ele>18.392</ele>
        <time>2011-06-26T08:40:01Z</time>
      </trkpt>
      <trkpt lat="50.40181" lon="3.45887">
        <ele>18.48</ele>
        <time>2011-06-26T08:40:07Z</time>
      </trkpt>
      <trkpt lat="50.40172" lon="3.45899">
        <ele>18.145</ele>
        <time>2011-06-26T08:40:13Z</time>
      </trkpt>
      <trkpt lat="50.40161" lon="3.45907">
        <ele>18.306</ele>
        <time>2011-06-26T08:40:18Z</time>
      </trkpt>
      <trkpt lat="50.40147" lon="3.45898">
        <ele>18.167</ele>
        <time>2011-06-26T08:40:22Z</time>
      </trkpt>
      <trkpt lat="50.40134" lon="3.45901">
        <ele>17.98</ele>
        <time>2011-06-26T08:40:25Z</time>
      </trkpt>
      <trkpt lat="50.40128" lon="3.45884">
        <ele>18.455</ele>
        <time>2011-06-26T08:40:30Z</time>
      </trkpt>
      <trkpt lat="50.40125" lon="3.45867">
        <ele>20.62</ele>
        <time>2011-06-26T08:40:35Z</time>
      </trkpt>
      <trkpt lat="50.40113" lon="3.45843">
        <ele>21.162</ele>
        <time>2011-06-26T08:40:42Z</time>
      </trkpt>
      <trkpt lat="50.4011" lon="3.45832">
        <ele>21.201</ele>
        <time>2011-06-26T08:40:45Z</time>
      </trkpt>
      <trkpt lat="50.40112" lon="3.4582">
        <ele>22.103</ele>
        <time>2011-06-26T08:40:49Z</time>
      </trkpt>
      <trkpt lat="50.40122" lon="3.45813">
        <ele>24.973</ele>
        <time>2011-06-26T08:40:56Z</time>
      </trkpt>
      <trkpt lat="50.40125" lon="3.45806">
        <ele>26.609</ele>
        <time>2011-06-26T08:41:02Z</time>
      </trkpt>
      <trkpt lat="50.40127" lon="3.45804">
        <ele>26.585</ele>
        <time>2011-06-26T08:41:04Z</time>
      </trkpt>
      <trkpt lat="50.40133" lon="3.45802">
        <ele>26.193</ele>
        <time>2011-06-26T08:41:10Z</time>
      </trkpt>
      <trkpt lat="50.40143" lon="3.45803">
        <ele>24.445</ele>
        <time>2011-06-26T08:41:14Z</time>
      </trkpt>
      <trkpt lat="50.40176" lon="3.45807">
        <ele>22.221</ele>
        <time>2011-06-26T08:41:20Z</time>
      </trkpt>
      <trkpt lat="50.40183" lon="3.45807">
        <ele>21.849</ele>
        <time>2011-06-26T08:41:22Z</time>
      </trkpt>
      <trkpt lat="50.40195" lon="3.45798">
        <ele>20.188</ele>
        <time>2011-06-26T08:41:27Z</time>
      </trkpt>
      <trkpt lat="50.40194" lon="3.45795">
        <ele>19.108</ele>
        <time>2011-06-26T08:41:29Z</time>
      </trkpt>
      <trkpt lat="50.40181" lon="3.45781">
        <ele>18.845</ele>
        <time>2011-06-26T08:41:35Z</time>
      </trkpt>
      <trkpt lat="50.40177" lon="3.45778">
        <ele>18.916</ele>
        <time>2011-06-26T08:41:36Z</time>
      </trkpt>
      <trkpt lat="50.40151" lon="3.45753">
        <ele>19.123</ele>
        <time>2011-06-26T08:41:43Z</time>
      </trkpt>
      <trkpt lat="50.40113" lon="3.45728">
        <ele>19.126</ele>
        <time>2011-06-26T08:41:50Z</time>
      </trkpt>
      <trkpt lat="50.40078" lon="3.457">
        <ele>18.631</ele>
        <time>2011-06-26T08:41:57Z</time>
      </trkpt>
      <trkpt lat="50.40067" lon="3.45693">
        <ele>18.625</ele>
        <time>2011-06-26T08:41:59Z</time>
      </trkpt>
      <trkpt lat="50.40024" lon="3.45655">
        <ele>18.036</ele>
        <time>2011-06-26T08:42:08Z</time>
      </trkpt>
      <trkpt lat="50.39983" lon="3.45614">
        <ele>17.644</ele>
        <time>2011-06-26T08:42:17Z</time>
      </trkpt>
      <trkpt lat="50.39975" lon="3.45604">
        <ele>17.623</ele>
        <time>2011-06-26T08:42:19Z</time>
      </trkpt>
      <trkpt lat="50.39968" lon="3.45594">
        <ele>17.681</ele>
        <time>2011-06-26T08:42:21Z</time>
      </trkpt>
      <trkpt lat="50.39953" lon="3.4559">
        <ele>17.66</ele>
        <time>2011-06-26T08:42:25Z</time>
      </trkpt>
      <trkpt lat="50.39941" lon="3.45582">
        <ele>17.795</ele>
        <time>2011-06-26T08:42:29Z</time>
      </trkpt>
      <trkpt lat="50.39939" lon="3.45577">
        <ele>17.817</ele>
        <time>2011-06-26T08:42:30Z</time>
      </trkpt>
      <trkpt lat="50.39924" lon="3.45518">
        <ele>17.303</ele>
        <time>2011-06-26T08:42:38Z</time>
      </trkpt>
      <trkpt lat="50.39911" lon="3.45452">
        <ele>17.293</ele>
        <time>2011-06-26T08:42:46Z</time>
      </trkpt>
      <trkpt lat="50.39903" lon="3.45403">
        <ele>17.048</ele>
        <time>2011-06-26T08:42:53Z</time>
      </trkpt>
      <trkpt lat="50.39902" lon="3.45394">
        <ele>16.876</ele>
        <time>2011-06-26T08:42:56Z</time>
      </trkpt>
      <trkpt lat="50.39899" lon="3.45376">
        <ele>17.078</ele>
        <time>2011-06-26T08:43:01Z</time>
      </trkpt>
      <trkpt lat="50.39894" lon="3.45343">
        <ele>17.581</ele>
        <time>2011-06-26T08:43:07Z</time>
      </trkpt>
      <trkpt lat="50.39882" lon="3.45307">
        <ele>18.832</ele>
        <time>2011-06-26T08:43:14Z</time>
      </trkpt>
      <trkpt lat="50.39864" lon="3.45284">
        <ele>19.33</ele>
        <time>2011-06-26T08:43:20Z</time>
      </trkpt>
      <trkpt lat="50.39835" lon="3.45258">
        <ele>19.861</ele>
        <time>2011-06-26T08:43:28Z</time>
      </trkpt>
      <trkpt lat="50.39806" lon="3.45231">
        <ele>20.301</ele>
        <time>2011-06-26T08:43:37Z</time>
      </trkpt>
      <trkpt lat="50.39792" lon="3.45217">
        <ele>20.83</ele>
        <time>2011-06-26T08:43:42Z</time>
      </trkpt>
      <trkpt lat="50.39775" lon="3.45193">
        <ele>21.147</ele>
        <time>2011-06-26T08:43:48Z</time>
      </trkpt>
      <trkpt lat="50.39758" lon="3.45163">
        <ele>21.456</ele>
        <time>2011-06-26T08:43:55Z</time>
      </trkpt>
      <trkpt lat="50.39746" lon="3.45134">
        <ele>22.194</ele>
        <time>2011-06-26T08:44:02Z</time>
      </trkpt>
      <trkpt lat="50.39737" lon="3.45108">
        <ele>22.247</ele>
        <time>2011-06-26T08:44:08Z</time>
      </trkpt>
      <trkpt lat="50.3973" lon="3.45092">
        <ele>22.262</ele>
        <time>2011-06-26T08:44:11Z</time>
      </trkpt>
      <trkpt lat="50.3972" lon="3.4507">
        <ele>21.898</ele>
        <time>2011-06-26T08:44:15Z</time>
      </trkpt>
      <trkpt lat="50.39702" lon="3.45027">
        <ele>20.89</ele>
        <time>2011-06-26T08:44:21Z</time>
      </trkpt>
      <trkpt lat="50.39684" lon="3.4498">
        <ele>19.416</ele>
        <time>2011-06-26T08:44:27Z</time>
      </trkpt>
      <trkpt lat="50.39676" lon="3.44944">
        <ele>19.255</ele>
        <time>2011-06-26T08:44:31Z</time>
      </trkpt>
      <trkpt lat="50.39674" lon="3.44937">
        <ele>19.392</ele>
        <time>2011-06-26T08:44:32Z</time>
      </trkpt>
      <trkpt lat="50.39653" lon="3.44893">
        <ele>20.435</ele>
        <time>2011-06-26T08:44:40Z</time>
      </trkpt>
      <trkpt lat="50.39639" lon="3.4488">
        <ele>20.975</ele>
        <time>2011-06-26T08:44:44Z</time>
      </trkpt>
      <trkpt lat="50.39622" lon="3.4487">
        <ele>21.788</ele>
        <time>2011-06-26T08:44:49Z</time>
      </trkpt>
      <trkpt lat="50.3961" lon="3.44864">
        <ele>22.134</ele>
        <time>2011-06-26T08:44:53Z</time>
      </trkpt>
      <trkpt lat="50.39603" lon="3.44844">
        <ele>22.656</ele>
        <time>2011-06-26T08:44:58Z</time>
      </trkpt>
      <trkpt lat="50.39596" lon="3.44804">
        <ele>22.365</ele>
        <time>2011-06-26T08:45:04Z</time>
      </trkpt>
      <trkpt lat="50.39594" lon="3.44789">
        <ele>22.162</ele>
        <time>2011-06-26T08:45:06Z</time>
      </trkpt>
      <trkpt lat="50.39593" lon="3.44765">
        <ele>21.706</ele>
        <time>2011-06-26T08:45:10Z</time>
      </trkpt>
      <trkpt lat="50.39584" lon="3.44733">
        <ele>21.509</ele>
        <time>2011-06-26T08:45:15Z</time>
      </trkpt>
      <trkpt lat="50.39576" lon="3.44701">
        <ele>21.225</ele>
        <time>2011-06-26T08:45:20Z</time>
      </trkpt>
      <trkpt lat="50.39556" lon="3.44654">
        <ele>20.995</ele>
        <time>2011-06-26T08:45:27Z</time>
      </trkpt>
      <trkpt lat="50.39531" lon="3.44591">
        <ele>20.419</ele>
        <time>2011-06-26T08:45:35Z</time>
      </trkpt>
      <trkpt lat="50.39502" lon="3.44519">
        <ele>20.124</ele>
        <time>2011-06-26T08:45:44Z</time>
      </trkpt>
      <trkpt lat="50.39469" lon="3.44438">
        <ele>19.161</ele>
        <time>2011-06-26T08:45:54Z</time>
      </trkpt>
      <trkpt lat="50.39441" lon="3.44365">
        <ele>18.811</ele>
        <time>2011-06-26T08:46:03Z</time>
      </trkpt>
      <trkpt lat="50.39428" lon="3.44333">
        <ele>18.417</ele>
        <time>2011-06-26T08:46:07Z</time>
      </trkpt>
      <trkpt lat="50.39399" lon="3.44263">
        <ele>18.148</ele>
        <time>2011-06-26T08:46:16Z</time>
      </trkpt>
      <trkpt lat="50.39377" lon="3.44212">
        <ele>18.323</ele>
        <time>2011-06-26T08:46:23Z</time>
      </trkpt>
      <trkpt lat="50.39352" lon="3.44148">
        <ele>18.285</ele>
        <time>2011-06-26T08:46:32Z</time>
      </trkpt>
      <trkpt lat="50.39329" lon="3.4409">
        <ele>18.284</ele>
        <time>2011-06-26T08:46:40Z</time>
      </trkpt>
      <trkpt lat="50.39296" lon="3.44005">
        <ele>17.6</ele>
        <time>2011-06-26T08:46:51Z</time>
      </trkpt>
      <trkpt lat="50.39271" lon="3.4394">
        <ele>16.785</ele>
        <time>2011-06-26T08:46:59Z</time>
      </trkpt>
      <trkpt lat="50.39251" lon="3.4389">
        <ele>16.892</ele>
        <time>2011-06-26T08:47:06Z</time>
      </trkpt>
      <trkpt lat="50.39222" lon="3.43817">
        <ele>16.311</ele>
        <time>2011-06-26T08:47:16Z</time>
      </trkpt>
      <trkpt lat="50.39197" lon="3.43753">
        <ele>16.636</ele>
        <time>2011-06-26T08:47:25Z</time>
      </trkpt>
      <trkpt lat="50.3918" lon="3.43706">
        <ele>16.88</ele>
        <time>2011-06-26T08:47:32Z</time>
      </trkpt>
      <trkpt lat="50.39157" lon="3.43656">
        <ele>17.209</ele>
        <time>2011-06-26T08:47:40Z</time>
      </trkpt>
      <trkpt lat="50.39135" lon="3.43605">
        <ele>17.469</ele>
        <time>2011-06-26T08:47:48Z</time>
      </trkpt>
      <trkpt lat="50.3911" lon="3.43542">
        <ele>18.243</ele>
        <time>2011-06-26T08:47:58Z</time>
      </trkpt>
      <trkpt lat="50.39104" lon="3.43531">
        <ele>18.544</ele>
        <time>2011-06-26T08:48:00Z</time>
      </trkpt>
      <trkpt lat="50.39084" lon="3.43484">
        <ele>19.45</ele>
        <time>2011-06-26T08:48:09Z</time>
      </trkpt>
      <trkpt lat="50.3908" lon="3.43473">
        <ele>19.525</ele>
        <time>2011-06-26T08:48:11Z</time>
      </trkpt>
      <trkpt lat="50.39074" lon="3.43456">
        <ele>19.668</ele>
        <time>2011-06-26T08:48:14Z</time>
      </trkpt>
      <trkpt lat="50.39066" lon="3.43433">
        <ele>20.041</ele>
        <time>2011-06-26T08:48:18Z</time>
      </trkpt>
      <trkpt lat="50.39051" lon="3.43393">
        <ele>20.61</ele>
        <time>2011-06-26T08:48:25Z</time>
      </trkpt>
      <trkpt lat="50.39027" lon="3.43344">
        <ele>21.227</ele>
        <time>2011-06-26T08:48:35Z</time>
      </trkpt>
      <trkpt lat="50.39009" lon="3.43325">
        <ele>21.72</ele>
        <time>2011-06-26T08:48:41Z</time>
      </trkpt>
      <trkpt lat="50.38988" lon="3.43319">
        <ele>22.457</ele>
        <time>2011-06-26T08:48:47Z</time>
      </trkpt>
      <trkpt lat="50.38962" lon="3.43318">
        <ele>23.343</ele>
        <time>2011-06-26T08:48:55Z</time>
      </trkpt>
      <trkpt lat="50.38947" lon="3.4332">
        <ele>24.226</ele>
        <time>2011-06-26T08:49:00Z</time>
      </trkpt>
      <trkpt lat="50.38931" lon="3.43318">
        <ele>25.522</ele>
        <time>2011-06-26T08:49:05Z</time>
      </trkpt>
      <trkpt lat="50.38913" lon="3.43314">
        <ele>26.612</ele>
        <time>2011-06-26T08:49:11Z</time>
      </trkpt>
      <trkpt lat="50.38896" lon="3.43315">
        <ele>27.406</ele>
        <time>2011-06-26T08:49:17Z</time>
      </trkpt>
      <trkpt lat="50.38886" lon="3.43319">
        <ele>27.204</ele>
        <time>2011-06-26T08:49:20Z</time>
      </trkpt>
      <trkpt lat="50.38873" lon="3.43312">
        <ele>27.327</ele>
        <time>2011-06-26T08:49:25Z</time>
      </trkpt>
      <trkpt lat="50.38854" lon="3.43311">
        <ele>27.478</ele>
        <time>2011-06-26T08:49:31Z</time>
      </trkpt>
      <trkpt lat="50.38826" lon="3.43309">
        <ele>27.966</ele>
        <time>2011-06-26T08:49:39Z</time>
      </trkpt>
      <trkpt lat="50.38807" lon="3.43306">
        <ele>28.43</ele>
        <time>2011-06-26T08:49:44Z</time>
      </trkpt>
      <trkpt lat="50.3878" lon="3.43305">
        <ele>28.841</ele>
        <time>2011-06-26T08:49:51Z</time>
      </trkpt>
      <trkpt lat="50.3876" lon="3.43306">
        <ele>29.4</ele>
        <time>2011-06-26T08:49:57Z</time>
      </trkpt>
      <trkpt lat="50.38734" lon="3.43305">
        <ele>30.212</ele>
        <time>2011-06-26T08:50:05Z</time>
      </trkpt>
      <trkpt lat="50.38724" lon="3.43303">
        <ele>30.281</ele>
        <time>2011-06-26T08:50:08Z</time>
      </trkpt>
      <trkpt lat="50.38723" lon="3.43294">
        <ele>30.804</ele>
        <time>2011-06-26T08:50:12Z</time>
      </trkpt>
      <trkpt lat="50.38733" lon="3.43293">
        <ele>31.137</ele>
        <time>2011-06-26T08:50:16Z</time>
      </trkpt>
      <trkpt lat="50.38743" lon="3.43283">
        <ele>30.514</ele>
        <time>2011-06-26T08:50:20Z</time>
      </trkpt>
      <trkpt lat="50.38749" lon="3.43283">
        <ele>30.446</ele>
        <time>2011-06-26T08:50:22Z</time>
      </trkpt>
      <trkpt lat="50.38759" lon="3.43285">
        <ele>30.123</ele>
        <time>2011-06-26T08:50:26Z</time>
      </trkpt>
      <trkpt lat="50.38771" lon="3.43295">
        <ele>29.872</ele>
        <time>2011-06-26T08:50:31Z</time>
      </trkpt>
      <trkpt lat="50.38782" lon="3.43283">
        <ele>29.826</ele>
        <time>2011-06-26T08:50:36Z</time>
      </trkpt>
      <trkpt lat="50.38784" lon="3.43274">
        <ele>29.561</ele>
        <time>2011-06-26T08:50:38Z</time>
      </trkpt>
      <trkpt lat="50.38791" lon="3.43265">
        <ele>28.801</ele>
        <time>2011-06-26T08:50:43Z</time>
      </trkpt>
      <trkpt lat="50.38799" lon="3.43249">
        <ele>28.495</ele>
        <time>2011-06-26T08:50:48Z</time>
      </trkpt>
      <trkpt lat="50.38809" lon="3.4323">
        <ele>27.887</ele>
        <time>2011-06-26T08:50:52Z</time>
      </trkpt>
      <trkpt lat="50.38824" lon="3.43213">
        <ele>27.158</ele>
        <time>2011-06-26T08:50:58Z</time>
      </trkpt>
      <trkpt lat="50.38831" lon="3.43209">
        <ele>26.693</ele>
        <time>2011-06-26T08:51:03Z</time>
      </trkpt>
      <trkpt lat="50.3884" lon="3.43208">
        <ele>26.731</ele>
        <time>2011-06-26T08:51:15Z</time>
      </trkpt>
      <trkpt lat="50.38843" lon="3.43207">
        <ele>26.761</ele>
        <time>2011-06-26T08:51:27Z</time>
      </trkpt>
      <trkpt lat="50.38843" lon="3.43206">
        <ele>26.837</ele>
        <time>2011-06-26T08:51:38Z</time>
      </trkpt>
      <trkpt lat="50.38848" lon="3.432">
        <ele>26.456</ele>
        <time>2011-06-26T08:51:44Z</time>
      </trkpt>
      <trkpt lat="50.38849" lon="3.43198">
        <ele>26.453</ele>
        <time>2011-06-26T08:51:46Z</time>
      </trkpt>
      <trkpt lat="50.38846" lon="3.43182">
        <ele>26.24</ele>
        <time>2011-06-26T08:51:52Z</time>
      </trkpt>
      <trkpt lat="50.38844" lon="3.43177">
        <ele>26.24</ele>
        <time>2011-06-26T08:51:54Z</time>
      </trkpt>
      <trkpt lat="50.38837" lon="3.43168">
        <ele>26.098</ele>
        <time>2011-06-26T08:52:02Z</time>
      </trkpt>
      <trkpt lat="50.38832" lon="3.43165">
        <ele>25.982</ele>
        <time>2011-06-26T08:52:23Z</time>
      </trkpt>
      <trkpt lat="50.38831" lon="3.43166">
        <ele>26.101</ele>
        <time>2011-06-26T08:52:24Z</time>
      </trkpt>
      <trkpt lat="50.38823" lon="3.43165">
        <ele>26.401</ele>
        <time>2011-06-26T08:52:30Z</time>
      </trkpt>
      <trkpt lat="50.38821" lon="3.43168">
        <ele>26.414</ele>
        <time>2011-06-26T08:52:32Z</time>
      </trkpt>
      <trkpt lat="50.38822" lon="3.43176">
        <ele>26.676</ele>
        <time>2011-06-26T08:52:36Z</time>
      </trkpt>
      <trkpt lat="50.38825" lon="3.43186">
        <ele>26.883</ele>
        <time>2011-06-26T08:52:42Z</time>
      </trkpt>
      <trkpt lat="50.38825" lon="3.43192">
        <ele>26.871</ele>
        <time>2011-06-26T08:52:44Z</time>
      </trkpt>
      <trkpt lat="50.38824" lon="3.43202">
        <ele>26.887</ele>
        <time>2011-06-26T08:52:49Z</time>
      </trkpt>
      <trkpt lat="50.38823" lon="3.43204">
        <ele>26.992</ele>
        <time>2011-06-26T08:52:50Z</time>
      </trkpt>
      <trkpt lat="50.38822" lon="3.43211">
        <ele>27.147</ele>
        <time>2011-06-26T08:52:53Z</time>
      </trkpt>
      <trkpt lat="50.38818" lon="3.43216">
        <ele>27.355</ele>
        <time>2011-06-26T08:52:56Z</time>
      </trkpt>
      <trkpt lat="50.38807" lon="3.43236">
        <ele>27.88</ele>
        <time>2011-06-26T08:53:03Z</time>
      </trkpt>
      <trkpt lat="50.388" lon="3.4325">
        <ele>28.491</ele>
        <time>2011-06-26T08:53:08Z</time>
      </trkpt>
      <trkpt lat="50.38793" lon="3.43258">
        <ele>29.116</ele>
        <time>2011-06-26T08:53:14Z</time>
      </trkpt>
      <trkpt lat="50.38791" lon="3.43265">
        <ele>29.367</ele>
        <time>2011-06-26T08:53:16Z</time>
      </trkpt>
      <trkpt lat="50.38784" lon="3.43284">
        <ele>29.628</ele>
        <time>2011-06-26T08:53:23Z</time>
      </trkpt>
      <trkpt lat="50.38777" lon="3.43288">
        <ele>30.246</ele>
        <time>2011-06-26T08:53:29Z</time>
      </trkpt>
      <trkpt lat="50.38768" lon="3.43291">
        <ele>30.231</ele>
        <time>2011-06-26T08:53:35Z</time>
      </trkpt>
      <trkpt lat="50.38753" lon="3.43303">
        <ele>29.864</ele>
        <time>2011-06-26T08:53:40Z</time>
      </trkpt>
      <trkpt lat="50.38749" lon="3.43304">
        <ele>29.778</ele>
        <time>2011-06-26T08:53:41Z</time>
      </trkpt>
      <trkpt lat="50.38722" lon="3.43305">
        <ele>30.678</ele>
        <time>2011-06-26T08:53:48Z</time>
      </trkpt>
      <trkpt lat="50.38699" lon="3.43301">
        <ele>30.99</ele>
        <time>2011-06-26T08:53:54Z</time>
      </trkpt>
      <trkpt lat="50.38694" lon="3.43282">
        <ele>31.182</ele>
        <time>2011-06-26T08:53:58Z</time>
      </trkpt>
      <trkpt lat="50.38692" lon="3.43273">
        <ele>31.106</ele>
        <time>2011-06-26T08:54:00Z</time>
      </trkpt>
      <trkpt lat="50.3868" lon="3.43265">
        <ele>31.021</ele>
        <time>2011-06-26T08:54:05Z</time>
      </trkpt>
      <trkpt lat="50.38672" lon="3.43264">
        <ele>31.143</ele>
        <time>2011-06-26T08:54:08Z</time>
      </trkpt>
      <trkpt lat="50.38665" lon="3.43249">
        <ele>31.418</ele>
        <time>2011-06-26T08:54:13Z</time>
      </trkpt>
      <trkpt lat="50.38666" lon="3.43245">
        <ele>31.396</ele>
        <time>2011-06-26T08:54:14Z</time>
      </trkpt>
      <trkpt lat="50.38673" lon="3.43224">
        <ele>31.32</ele>
        <time>2011-06-26T08:54:20Z</time>
      </trkpt>
      <trkpt lat="50.38677" lon="3.43213">
        <ele>31.429</ele>
        <time>2011-06-26T08:54:23Z</time>
      </trkpt>
      <trkpt lat="50.38685" lon="3.43205">
        <ele>31.129</ele>
        <time>2011-06-26T08:54:27Z</time>
      </trkpt>
      <trkpt lat="50.38695" lon="3.43198">
        <ele>30.582</ele>
        <time>2011-06-26T08:54:31Z</time>
      </trkpt>
      <trkpt lat="50.38706" lon="3.43203">
        <ele>30.541</ele>
        <time>2011-06-26T08:54:35Z</time>
      </trkpt>
      <trkpt lat="50.38716" lon="3.43203">
        <ele>30.343</ele>
        <time>2011-06-26T08:54:39Z</time>
      </trkpt>
      <trkpt lat="50.38718" lon="3.43189">
        <ele>30.059</ele>
        <time>2011-06-26T08:54:43Z</time>
      </trkpt>
      <trkpt lat="50.38721" lon="3.43171">
        <ele>29.979</ele>
        <time>2011-06-26T08:54:49Z</time>
      </trkpt>
      <trkpt lat="50.38724" lon="3.43152">
        <ele>29.902</ele>
        <time>2011-06-26T08:54:54Z</time>
      </trkpt>
      <trkpt lat="50.38727" lon="3.43146">
        <ele>29.638</ele>
        <time>2011-06-26T08:54:56Z</time>
      </trkpt>
      <trkpt lat="50.38741" lon="3.43146">
        <ele>29.311</ele>
        <time>2011-06-26T08:55:02Z</time>
      </trkpt>
      <trkpt lat="50.38744" lon="3.43144">
        <ele>29.258</ele>
        <time>2011-06-26T08:55:03Z</time>
      </trkpt>
      <trkpt lat="50.38754" lon="3.43137">
        <ele>29.072</ele>
        <time>2011-06-26T08:55:08Z</time>
      </trkpt>
      <trkpt lat="50.38758" lon="3.43115">
        <ele>28.816</ele>
        <time>2011-06-26T08:55:13Z</time>
      </trkpt>
      <trkpt lat="50.38763" lon="3.43112">
        <ele>28.685</ele>
        <time>2011-06-26T08:55:15Z</time>
      </trkpt>
      <trkpt lat="50.38779" lon="3.431">
        <ele>28.145</ele>
        <time>2011-06-26T08:55:21Z</time>
      </trkpt>
      <trkpt lat="50.38788" lon="3.43088">
        <ele>27.781</ele>
        <time>2011-06-26T08:55:25Z</time>
      </trkpt>
      <trkpt lat="50.38789" lon="3.43071">
        <ele>27.611</ele>
        <time>2011-06-26T08:55:29Z</time>
      </trkpt>
      <trkpt lat="50.38787" lon="3.43051">
        <ele>27.185</ele>
        <time>2011-06-26T08:55:34Z</time>
      </trkpt>
      <trkpt lat="50.38795" lon="3.43027">
        <ele>26.524</ele>
        <time>2011-06-26T08:55:39Z</time>
      </trkpt>
      <trkpt lat="50.388" lon="3.43006">
        <ele>26.985</ele>
        <time>2011-06-26T08:55:45Z</time>
      </trkpt>
      <trkpt lat="50.38803" lon="3.42975">
        <ele>27.03</ele>
        <time>2011-06-26T08:55:51Z</time>
      </trkpt>
      <trkpt lat="50.38805" lon="3.42948">
        <ele>26.995</ele>
        <time>2011-06-26T08:55:56Z</time>
      </trkpt>
      <trkpt lat="50.38805" lon="3.42943">
        <ele>27.033</ele>
        <time>2011-06-26T08:55:57Z</time>
      </trkpt>
      <trkpt lat="50.38796" lon="3.42928">
        <ele>26.284</ele>
        <time>2011-06-26T08:56:01Z</time>
      </trkpt>
      <trkpt lat="50.38779" lon="3.42904">
        <ele>26.173</ele>
        <time>2011-06-26T08:56:07Z</time>
      </trkpt>
      <trkpt lat="50.38763" lon="3.42888">
        <ele>26.554</ele>
        <time>2011-06-26T08:56:13Z</time>
      </trkpt>
      <trkpt lat="50.38751" lon="3.42878">
        <ele>26.693</ele>
        <time>2011-06-26T08:56:17Z</time>
      </trkpt>
      <trkpt lat="50.38738" lon="3.42877">
        <ele>26.989</ele>
        <time>2011-06-26T08:56:22Z</time>
      </trkpt>
      <trkpt lat="50.38737" lon="3.42881">
        <ele>27.714</ele>
        <time>2011-06-26T08:56:29Z</time>
      </trkpt>
      <trkpt lat="50.38736" lon="3.42884">
        <ele>27.883</ele>
        <time>2011-06-26T08:56:34Z</time>
      </trkpt>
      <trkpt lat="50.38725" lon="3.4289">
        <ele>28.096</ele>
        <time>2011-06-26T08:56:39Z</time>
      </trkpt>
      <trkpt lat="50.38724" lon="3.42891">
        <ele>28.334</ele>
        <time>2011-06-26T08:56:41Z</time>
      </trkpt>
      <trkpt lat="50.38714" lon="3.42887">
        <ele>28.37</ele>
        <time>2011-06-26T08:56:45Z</time>
      </trkpt>
      <trkpt lat="50.38709" lon="3.42886">
        <ele>28.107</ele>
        <time>2011-06-26T08:56:46Z</time>
      </trkpt>
      <trkpt lat="50.38699" lon="3.42885">
        <ele>27.565</ele>
        <time>2011-06-26T08:56:48Z</time>
      </trkpt>
      <trkpt lat="50.38683" lon="3.4287">
        <ele>26.788</ele>
        <time>2011-06-26T08:56:53Z</time>
      </trkpt>
      <trkpt lat="50.38684" lon="3.4286">
        <ele>26.938</ele>
        <time>2011-06-26T08:56:56Z</time>
      </trkpt>
      <trkpt lat="50.38689" lon="3.42847">
        <ele>28.354</ele>
        <time>2011-06-26T08:57:00Z</time>
      </trkpt>
      <trkpt lat="50.38687" lon="3.4284">
        <ele>28.583</ele>
        <time>2011-06-26T08:57:02Z</time>
      </trkpt>
      <trkpt lat="50.38675" lon="3.42813">
        <ele>29.791</ele>
        <time>2011-06-26T08:57:10Z</time>
      </trkpt>
      <trkpt lat="50.38663" lon="3.42789">
        <ele>30.541</ele>
        <time>2011-06-26T08:57:17Z</time>
      </trkpt>
      <trkpt lat="50.38652" lon="3.42762">
        <ele>30.707</ele>
        <time>2011-06-26T08:57:24Z</time>
      </trkpt>
      <trkpt lat="50.38643" lon="3.42735">
        <ele>30.994</ele>
        <time>2011-06-26T08:57:31Z</time>
      </trkpt>
      <trkpt lat="50.38641" lon="3.42711">
        <ele>31.407</ele>
        <time>2011-06-26T08:57:37Z</time>
      </trkpt>
      <trkpt lat="50.38633" lon="3.42699">
        <ele>31.411</ele>
        <time>2011-06-26T08:57:42Z</time>
      </trkpt>
      <trkpt lat="50.38627" lon="3.42691">
        <ele>31.741</ele>
        <time>2011-06-26T08:57:47Z</time>
      </trkpt>
      <trkpt lat="50.38617" lon="3.42696">
        <ele>32.028</ele>
        <time>2011-06-26T08:57:52Z</time>
      </trkpt>
      <trkpt lat="50.38604" lon="3.4271">
        <ele>32.301</ele>
        <time>2011-06-26T08:57:57Z</time>
      </trkpt>
      <trkpt lat="50.38589" lon="3.42724">
        <ele>32.501</ele>
        <time>2011-06-26T08:58:02Z</time>
      </trkpt>
      <trkpt lat="50.38577" lon="3.42718">
        <ele>32.696</ele>
        <time>2011-06-26T08:58:06Z</time>
      </trkpt>
      <trkpt lat="50.38575" lon="3.42713">
        <ele>32.693</ele>
        <time>2011-06-26T08:58:07Z</time>
      </trkpt>
      <trkpt lat="50.38561" lon="3.4268">
        <ele>32.768</ele>
        <time>2011-06-26T08:58:14Z</time>
      </trkpt>
      <trkpt lat="50.38554" lon="3.42677">
        <ele>32.884</ele>
        <time>2011-06-26T08:58:17Z</time>
      </trkpt>
      <trkpt lat="50.38532" lon="3.42698">
        <ele>32.984</ele>
        <time>2011-06-26T08:58:24Z</time>
      </trkpt>
      <trkpt lat="50.38526" lon="3.42705">
        <ele>33.144</ele>
        <time>2011-06-26T08:58:26Z</time>
      </trkpt>
      <trkpt lat="50.38514" lon="3.42699">
        <ele>33.115</ele>
        <time>2011-06-26T08:58:30Z</time>
      </trkpt>
      <trkpt lat="50.38511" lon="3.42695">
        <ele>33.076</ele>
        <time>2011-06-26T08:58:31Z</time>
      </trkpt>
      <trkpt lat="50.385" lon="3.42671">
        <ele>32.802</ele>
        <time>2011-06-26T08:58:37Z</time>
      </trkpt>
      <trkpt lat="50.38488" lon="3.42645">
        <ele>32.827</ele>
        <time>2011-06-26T08:58:45Z</time>
      </trkpt>
      <trkpt lat="50.38485" lon="3.42644">
        <ele>32.741</ele>
        <time>2011-06-26T08:58:49Z</time>
      </trkpt>
      <trkpt lat="50.38482" lon="3.42632">
        <ele>32.932</ele>
        <time>2011-06-26T08:58:56Z</time>
      </trkpt>
      <trkpt lat="50.38482" lon="3.42631">
        <ele>32.925</ele>
        <time>2011-06-26T08:58:59Z</time>
      </trkpt>
      <trkpt lat="50.38481" lon="3.42631">
        <ele>32.884</ele>
        <time>2011-06-26T08:59:25Z</time>
      </trkpt>
      <trkpt lat="50.38481" lon="3.4263">
        <ele>33.02</ele>
        <time>2011-06-26T08:59:46Z</time>
      </trkpt>
    </trkseg>
  </trk>
</gpx>